[[{"header":{"parameterUnit":"m.s-1","parameterCategory":1,"la1":31.0,"la2":29.5877,"lo1":-88.7671,"lo2":-86.6584,"dy":0.0162,"dx":0.0185,"nx":115,"ny":88,"refTime":"2024-07-30T12:00:00:Z","depth":0,"parameterNumber":2,"parameterNumberName":"U-component_of_WINDS"},"data":[0.0,0.0,0.0,0.0,0.0,0.0,0.0,0.0,0.0,0.0,0.0,0.0,0.0,0.0,0.0,0.0,0.0,0.0,0.0,0.0,0.0,0.0,0.0,0.0,0.0,0.0,0.0,0.0,0.0,0.0,0.0,0.0,0.0,0.0,0.0,0.0,0.0,0.0,0.0,0.0,0.0,0.0,0.0,0.0,0.0,0.0,0.0,0.0,0.0,0.0,0.0,0.0,0.0,0.0,0.0,0.0,0.0,0.0,0.0,0.0,0.0,0.0,0.0,0.0,0.0,0.0,0.0,0.0,0.0,0.0,0.0,0.0,0.0,0.0,0.0,0.0,0.0,0.0,0.0,0.0,0.0,0.0,0.0,0.0,0.0,0.0,0.0,0.0,0.0,0.0,0.0,0.0,0.0,0.0,0.0,0.0,0.0,0.0,0.0,0.0,0.0,0.0,0.0,0.0,0.0,0.0,0.0,0.0,0.0,0.0,0.0,0.0,0.0,0.0,0.0,0.0,0.0,0.0,0.0,0.0,0.0,0.0,0.0,0.0,0.0,0.0,0.0,0.0,0.0,0.0,0.0,0.0,0.0,0.0,0.0,0.0,0.0,0.0,0.0,0.0,0.0,0.0,0.0,0.0,0.0,0.0,0.0,0.0,0.0,0.0,0.0,0.0,0.0,0.0,0.0,0.0,0.0,0.0,0.0,0.0,0.0,0.0,0.0,0.0,0.0,0.0,0.0,0.0,0.0,0.0,0.0,0.0,0.0,0.0,0.0,0.0,0.0,0.0,0.0,0.0,0.0,0.0,0.0,0.0,0.0,0.0,0.0,0.0,0.0,0.0,0.0,0.0,0.0,0.0,0.0,0.0,0.0,0.0,0.0,0.0,0.0,0.0,0.0,0.0,0.0,0.0,0.0,0.0,0.0,0.0,0.0,0.0,0.0,0.0,0.0,0.0,0.0,0.0,0.0,0.0,0.0,0.0,0.0,0.0,0.0,0.0,0.0,0.0,0.0,0.0,0.0,0.0,0.0,0.0,0.0,0.0,0.0,0.0,0.0,0.0,0.0,0.0,0.0,0.0,0.0,0.0,0.0,0.0,0.0,0.0,0.0,0.0,0.0,0.0,0.0,0.0,0.0,0.0,0.0,0.0,0.0,0.0,0.0,0.0,0.0,0.0,0.0,0.0,0.0,0.0,0.0,0.0,0.0,0.0,0.0,0.0,0.0,0.0,0.0,0.0,0.0,0.0,0.0,0.0,0.0,0.0,0.0,0.0,0.0,0.0,0.0,0.0,0.0,0.0,0.0,0.0,0.0,0.0,0.0,0.0,0.0,0.0,0.0,0.0,0.0,0.0,0.0,0.0,0.0,0.0,0.0,0.0,0.0,0.0,0.0,0.0,0.0,0.0,0.0,0.0,0.0,0.0,0.0,0.0,0.0,0.0,0.0,0.0,0.0,0.0,0.0,0.0,0.0,0.0,0.0,0.0,0.0,0.0,0.0,0.0,0.0,0.0,0.0,0.0,0.0,0.0,0.0,0.0,0.0,0.0,0.0,0.0,0.0,0.0,0.0,0.0,0.0,0.0,0.0,0.0,0.0,0.0,0.0,0.0,0.0,0.0,0.0,0.0,0.0,0.0,0.0,0.0,0.0,0.0,0.0,0.0,0.0,0.0,0.0,0.0,0.0,0.0,0.0,0.0,0.0,0.0,0.0,0.0,0.0,0.0,0.0,0.0,0.0,0.0,0.0,0.0,0.0,0.0,0.0,0.0,0.0,0.0,0.0,0.0,0.0,0.0,0.0,0.0,0.0,0.0,0.0,0.0,0.0,0.0,0.0,0.0,0.0,0.0,0.0,0.0,0.0,0.0,0.0,0.0,0.0,0.0,0.0,0.0,0.0,0.0,0.0,0.0,0.0,0.0,0.0,0.0,0.0,0.0,0.0,0.0,0.0,0.0,0.0,0.0,0.0,0.0,0.0,0.0,0.0,0.0,0.0,0.0,0.0,0.0,0.0,0.0,0.0,0.0,0.0,0.0,0.0,0.0,0.0,0.0,0.0,0.0,0.0,0.0,0.0,0.0,0.0,0.0,0.0,0.0,0.0,0.0,0.0,0.0,0.0,0.0,0.0,0.0,0.0,0.0,0.0,0.0,0.0,0.0,0.0,0.0,0.0,0.0,0.0,0.0,0.0,0.0,0.0,0.0,0.0,0.0,0.0,0.0,0.0,0.0,0.0,0.0,0.0,0.0,0.0,0.0,0.0,0.0,0.0,0.0,0.0,0.0,0.0,0.0,0.0,0.0,0.0,0.0,0.0,0.0,0.0,0.0,0.0,0.0,0.0,0.0,0.0,0.0,0.0,0.0,0.0,0.0,0.0,0.0,0.0,0.0,0.0,0.0,0.0,0.0,0.0,0.0,0.0,0.0,0.0,0.0,0.0,0.0,0.0,0.0,0.0,0.0,0.0,0.0,0.0,0.0,0.0,0.0,0.0,0.0,0.0,0.0,0.0,0.0,0.0,0.0,0.0,0.0,0.0,0.0,0.0,0.0,0.0,0.0,0.0,0.0,0.0,0.0,0.0,0.0,0.0,0.0,0.0,0.0,0.0,0.0,0.0,0.0,0.0,0.0,0.0,0.0,0.0,0.0,0.0,0.0,0.0,0.0,0.0,0.0,0.0,0.0,0.0,0.0,0.0,0.0,0.0,0.0,0.0,0.0,0.0,0.0,0.0,0.0,0.0,0.0,0.0,0.0,0.0,0.0,0.0,0.0,0.0,0.0,0.0,0.0,0.0,0.0,0.0,0.0,0.0,0.0,0.0,0.0,0.0,0.0,0.0,0.0,0.0,0.0,0.0,0.0,0.0,0.0,0.0,0.0,0.0,0.0,0.0,0.0,0.0,0.0,0.0,0.0,0.0,0.0,0.0,0.0,0.0,0.0,0.0,0.0,0.0,0.0,0.0,0.0,0.0,0.0,0.0,0.0,0.0,0.0,0.0,0.0,0.0,0.0,0.0,0.0,0.0,0.0,0.0,0.0,0.0,0.0,0.0,0.0,0.0,0.0,0.0,0.0,0.0,0.0,0.0,0.0,0.0,0.0,0.0,0.0,0.0,0.0,0.0,0.0,0.0,0.0,0.0,0.0,0.0,0.0,0.0,0.0,0.0,0.0,0.0,0.0,0.0,0.0,0.0,0.0,0.0,0.0,0.0,0.0,0.0,0.0,0.0,0.0,0.0,0.0,0.0,0.0,0.0,0.0,0.0,0.0,0.0,0.0,0.0,0.0,0.0,0.0,0.0,0.0,0.0,0.0,0.0,0.0,0.0,0.0,0.0,0.0,0.0,0.0,0.0,0.0,0.0,0.0,0.0,0.0,0.0,0.0,0.0,0.0,0.0,0.0,0.0,0.0,0.0,0.0,0.0,0.0,0.0,0.0,0.0,0.0,0.0,0.0,0.0,0.0,0.0,0.0,0.0,0.0,0.0,0.0,0.0,0.0,0.0,0.0,0.0,0.0,0.0,0.0,0.0,0.0,0.0,0.0,0.0,0.0,0.0,0.0,0.0,0.0,0.0,0.0,0.0,0.0,0.0,0.0,0.0,0.0,0.0,0.0,0.0,0.0,0.0,0.0,0.0,0.0,0.0,0.0,0.0,0.0,0.0,0.0,0.0,0.0,0.0,0.0,0.0,0.0,0.0,0.0,0.0,0.0,0.0,0.0,0.0,0.0,0.0,0.0,0.0,0.0,0.0,0.0,0.0,0.0,0.0,0.0,0.0,0.0,0.0,0.0,0.0,0.0,0.0,0.0,0.0,0.0,0.0,0.0,0.0,0.0,0.0,0.0,0.0,0.0,0.0,0.0,0.0,0.0,0.0,0.0,0.0,0.0,0.0,0.0,0.0,0.0,0.0,0.0,0.0,0.0,0.0,0.0,0.0,0.0,0.0,0.0,0.0,0.0,0.0,0.0,0.0,0.0,0.0,0.0,0.0,0.0,0.0,0.0,0.0,0.0,0.0,0.0,0.0,0.0,0.0,0.0,0.0,0.0,0.0,0.0,0.0,0.0,0.0,0.0,0.0,0.0,0.0,0.0,0.0,0.0,0.0,0.0,0.0,0.0,0.0,0.0,0.0,0.0,0.0,0.0,0.0,0.0,0.0,0.0,0.0,0.0,0.0,0.0,0.0,0.0,0.0,0.0,0.0,0.0,0.0,0.0,0.0,0.0,0.0,0.0,0.0,0.0,0.0,0.0,0.0,0.0,0.0,0.0,0.0,0.0,0.974,0.0,0.0,0.0,0.0,0.0,0.0,0.0,0.0,0.0,0.0,0.0,0.0,0.0,0.0,0.0,0.0,0.0,0.0,0.0,0.0,0.0,0.0,0.0,0.0,0.0,0.0,0.0,0.0,0.0,0.0,0.0,0.0,0.0,0.0,0.0,0.0,0.0,0.0,0.0,0.0,0.0,0.0,0.0,0.0,0.0,0.0,0.0,0.0,0.0,0.0,0.0,0.0,0.0,0.0,0.0,0.0,0.0,0.0,0.0,0.0,0.0,0.0,0.0,0.0,0.0,0.0,0.0,0.0,0.0,0.0,0.0,0.0,0.0,0.0,0.0,0.0,0.0,0.0,0.0,0.0,0.0,0.0,0.0,0.0,0.0,0.0,0.0,0.0,0.0,0.0,0.0,0.0,0.0,0.0,0.0,0.0,0.0,0.0,0.0,0.0,0.0,0.0,0.0,0.0,0.0,0.0,0.0,0.0,0.0,0.0,1.1633,1.1251,1.0376,0.9689,0.9195,0.0,0.0,0.0,0.0,0.0,0.0,0.0,0.0,0.0,0.0,0.0,0.0,0.0,0.0,0.0,0.0,0.0,0.0,0.0,0.0,0.0,0.0,0.0,0.0,0.0,0.0,0.0,0.0,0.0,0.0,0.0,0.0,0.0,0.0,0.0,0.0,0.0,0.0,0.0,0.0,0.0,0.0,0.0,0.0,0.0,0.0,0.0,0.0,0.0,0.0,0.0,0.0,0.0,0.0,0.0,0.0,0.0,0.0,0.0,0.0,0.0,0.0,0.0,0.0,0.0,0.0,0.0,0.0,0.0,0.0,0.0,0.0,0.0,0.0,0.0,0.0,0.0,0.0,0.0,0.0,0.0,0.0,0.0,0.0,0.0,0.0,0.0,0.0,0.0,0.0,0.0,0.0,0.0,0.0,0.0,0.0,0.0,0.0,0.0,0.0,0.0,0.0,0.0,0.0,0.0,0.0,0.0,0.0,0.0,0.0,0.0,0.0,1.0219,0.948,0.8595,0.0,0.0,0.0,0.0,0.0,0.0,0.0,0.0,0.0,0.0,0.0,0.0,0.0,0.0,0.0,0.0,0.0,0.0,0.0,0.0,0.0,0.0,0.0,0.0,0.0,0.0,0.0,0.0,0.0,0.0,0.0,0.0,0.0,0.0,0.0,0.0,0.0,0.0,0.0,0.0,0.0,0.0,0.0,0.0,0.0,0.0,0.0,0.0,0.0,0.0,0.0,0.0,0.0,0.0,0.0,0.0,0.0,0.0,0.0,0.0,0.0,0.0,0.0,0.0,0.0,0.0,0.0,0.0,0.0,0.0,0.0,0.0,0.0,0.0,0.0,0.0,0.0,0.0,0.0,0.0,0.0,0.0,0.0,0.0,0.0,0.0,0.0,0.0,0.0,0.0,0.0,0.0,0.0,0.0,0.0,0.0,0.0,0.0,0.0,0.0,0.0,0.0,0.0,0.0,0.0,0.0,0.0,0.0,0.0,0.0,1.0309,1.0775,1.0211,0.0,0.8578,0.0,0.0,0.0,0.0,0.0,0.0,0.0,0.0,0.0,0.0,0.0,0.0,0.0,0.0,0.0,0.0,0.0,0.0,0.0,0.0,0.0,0.0,0.0,0.0,0.0,0.0,0.0,0.0,0.0,0.0,0.0,0.0,0.0,0.0,0.0,0.0,0.0,0.0,0.0,0.0,0.0,0.0,0.0,0.0,0.0,0.0,0.0,0.0,0.0,0.0,0.0,0.0,0.0,0.0,0.0,0.0,0.0,0.0,0.0,0.0,0.0,0.0,0.0,0.0,0.0,0.0,0.0,0.0,0.0,0.0,0.0,0.0,0.0,0.0,0.0,0.0,0.0,0.0,0.0,0.0,0.0,0.0,0.0,0.0,0.0,0.0,0.0,0.0,0.0,0.0,0.0,0.0,0.0,0.0,0.0,0.0,0.0,0.0,0.0,0.0,0.0,0.0,0.0,0.0,0.0,0.0,0.0,0.0,0.0,0.0,1.0391,1.0271,0.9521,0.895,0.0,0.0,0.0,0.0,0.0,0.0,0.0,0.0,0.0,0.0,0.0,0.0,0.0,0.0,0.0,0.0,0.0,0.0,0.0,0.0,0.0,0.0,0.0,0.0,0.0,0.0,0.0,0.0,0.0,0.0,0.0,0.0,0.0,0.0,0.0,0.0,0.0,0.0,0.0,0.0,0.0,0.0,0.0,0.0,0.0,0.0,0.0,0.0,0.0,0.0,0.0,0.0,0.0,0.0,0.0,0.0,0.0,0.0,0.0,0.0,0.0,0.0,0.0,0.0,0.0,0.0,0.0,0.0,0.0,0.0,0.0,0.0,0.0,0.0,0.0,0.0,0.0,0.0,0.0,0.0,0.0,0.0,0.0,0.0,0.0,0.0,0.0,0.0,0.0,0.0,0.0,0.0,0.0,0.0,0.0,0.0,0.0,0.0,0.0,0.0,0.0,0.0,0.0,0.0,0.0,0.0,0.0,0.0,0.0,0.0,1.0249,1.0152,0.9897,0.9294,0.8845,0.8595,0.0,0.0,0.0,0.0,0.0,0.0,0.0,0.0,0.0,0.0,0.0,0.0,0.0,0.0,0.0,0.0,0.0,0.0,0.0,0.0,0.0,0.0,0.0,0.0,0.0,0.0,0.0,0.0,0.0,0.0,0.0,0.0,0.0,0.0,0.0,0.0,0.0,0.0,0.0,0.0,0.0,0.0,0.0,0.0,0.0,0.0,0.0,0.0,0.0,0.0,0.0,0.0,0.0,0.0,0.0,0.0,0.0,0.0,0.0,0.0,0.0,0.0,0.0,0.0,0.0,0.0,0.0,0.0,0.0,0.0,0.0,0.0,0.0,0.0,0.0,0.0,0.0,0.0,0.0,0.0,0.0,0.0,0.0,0.0,0.0,0.0,0.0,0.0,0.0,0.0,0.0,0.0,0.0,0.0,0.0,0.0,0.0,0.0,0.0,0.0,0.0,0.0,0.0,0.0,0.0,0.0,0.0,0.0,1.0626,0.9583,0.9295,0.9897,0.986,0.9425,0.0,0.0,0.0,0.0,0.0,0.0,0.0,0.0,0.0,0.0,0.0,0.0,0.0,0.0,0.0,0.0,0.0,0.0,0.0,0.0,0.0,0.0,0.0,0.0,0.0,0.0,0.0,0.0,0.0,0.0,0.0,0.0,0.0,0.0,0.0,0.0,0.0,0.0,0.0,0.0,0.0,0.0,0.0,0.0,0.0,0.0,0.0,0.0,0.0,0.0,0.0,0.0,0.0,0.0,0.0,0.0,0.0,0.0,0.0,0.0,0.0,0.0,0.0,0.0,0.0,0.0,0.0,0.0,0.0,0.0,0.0,0.0,0.0,0.0,0.0,0.0,0.0,0.0,0.0,0.0,0.0,0.0,0.0,0.0,0.0,0.0,0.0,0.0,0.0,0.0,0.0,0.0,0.0,0.0,0.0,0.0,0.0,0.0,0.0,0.0,0.0,0.0,0.0,0.0,0.0,0.0,0.0,0.0,0.0,0.894,0.8896,0.9618,1.0997,0.9923,0.9304,0.0,0.0,0.0,0.0,0.0,0.0,0.0,0.0,0.0,0.0,0.0,0.0,0.0,0.0,0.0,0.0,0.0,0.0,0.0,0.0,0.0,0.0,0.0,0.0,0.0,0.0,0.0,0.0,0.0,0.0,0.0,0.0,0.0,0.0,0.0,0.0,0.0,0.0,0.0,0.0,0.0,0.0,0.0,0.0,0.0,0.0,0.0,0.0,0.0,0.0,0.0,0.0,0.0,0.0,0.0,0.0,0.0,0.0,0.0,0.0,0.0,0.0,0.0,0.0,0.0,0.0,0.0,0.0,0.0,0.0,0.0,0.0,0.0,0.0,0.0,0.0,0.0,0.0,0.0,0.0,0.0,0.0,0.0,0.0,0.0,0.0,0.0,0.0,0.0,0.0,0.0,0.0,0.0,0.0,0.0,0.0,0.0,0.0,0.0,0.0,0.0,0.0,0.0,0.0,0.0,0.0,0.0,0.0,0.0,0.8566,0.0,1.0021,1.0933,0.9802,0.9102,0.0,0.0,0.0,0.0,0.0,0.0,0.0,0.0,0.0,0.0,0.0,0.0,0.0,0.0,0.0,0.0,0.0,0.0,0.0,0.0,0.0,0.0,0.0,0.0,0.0,0.0,0.0,0.0,0.0,0.0,0.0,0.0,0.0,0.0,0.0,0.0,0.0,0.0,0.0,0.0,0.0,0.0,0.0,0.0,0.0,0.0,0.0,0.0,0.0,0.0,0.0,0.0,0.0,0.0,0.0,0.0,0.0,0.0,0.0,0.0,0.0,0.0,0.0,0.0,0.0,0.0,0.0,0.0,0.0,0.0,0.0,0.0,0.0,0.0,0.0,0.0,0.0,0.0,0.0,0.0,0.0,0.0,0.0,0.0,0.0,0.0,0.0,0.0,0.0,0.0,0.0,0.0,0.0,0.0,0.0,0.0,0.0,0.0,0.0,0.0,0.0,0.0,0.0,0.0,0.0,0.0,0.0,0.0,0.8566,0.9837,1.0443,1.0357,0.9587,0.9503,0.8877,0.0,0.0,0.0,0.0,0.0,0.0,0.0,0.0,0.0,0.0,0.0,0.0,0.0,0.0,0.0,0.0,0.0,0.0,0.0,0.0,0.0,0.0,0.0,0.0,0.0,0.0,0.0,0.0,0.0,0.0,0.0,0.0,0.0,0.0,0.0,0.0,0.0,0.0,0.0,0.0,0.0,0.0,0.0,0.0,0.0,0.0,0.0,0.0,0.0,0.0,0.0,0.0,0.0,0.0,0.0,0.0,0.0,0.0,0.0,0.0,0.0,0.0,0.0,0.0,0.0,0.0,0.0,0.0,0.0,0.0,0.0,0.0,0.0,0.0,0.0,0.0,0.0,0.0,0.0,0.0,0.0,0.0,0.0,0.0,0.0,0.0,0.0,0.0,0.0,0.0,0.0,0.0,0.0,0.0,0.0,0.0,0.0,0.0,0.0,0.0,0.0,0.0,0.0,0.0,0.0,0.0,0.0,0.0,0.0,0.9893,1.0032,1.0316,1.0677,0.9296,0.8576,0.0,0.0,0.0,0.0,0.0,0.0,0.0,0.0,0.0,0.0,0.0,0.0,0.0,0.0,0.0,0.0,0.0,0.0,0.0,0.0,0.0,0.0,0.0,0.0,0.0,0.0,0.0,0.0,0.0,0.0,0.0,0.0,0.0,0.0,0.0,0.0,0.0,0.0,0.0,0.0,0.0,0.0,0.0,0.0,0.0,0.0,0.0,0.0,0.0,0.0,0.0,0.0,0.0,0.0,0.0,0.0,0.0,0.0,0.0,0.0,0.0,0.0,0.0,0.0,0.0,0.0,0.0,0.0,0.0,0.0,0.0,0.0,0.0,0.0,0.0,0.0,0.0,0.0,0.0,0.0,0.0,0.0,0.0,0.0,0.0,0.0,0.0,0.0,0.0,0.0,0.0,0.0,0.0,0.0,0.0,0.0,0.0,0.0,0.0,0.0,0.0,0.0,0.0,0.0,0.0,0.0,0.0,0.0,0.0,1.0275,1.0531,1.0723,1.0812,0.9507,0.874,0.8594,0.0,0.0,0.0,0.0,0.0,0.0,0.0,0.0,0.0,0.0,0.0,0.0,0.0,0.0,0.0,0.0,0.0,0.0,0.0,0.0,0.0,0.0,0.0,0.0,0.0,0.0,0.0,0.0,0.0,0.0,0.0,0.0,0.0,0.0,0.0,0.0,0.0,0.0,0.0,0.0,0.0,0.0,0.0,0.0,0.0,0.0,0.0,0.0,0.0,0.0,0.0,0.0,0.0,0.0,0.0,0.0,0.0,0.0,0.0,0.0,0.0,0.0,0.0,0.0,0.0,0.0,0.0,0.0,0.0,0.0,0.0,0.0,0.0,0.0,0.0,0.0,0.0,0.0,0.0,0.0,0.0,0.0,0.0,0.0,0.0,0.0,0.0,0.0,0.0,0.0,0.0,0.0,0.0,0.0,0.0,0.0,0.0,0.0,0.0,0.0,0.0,0.0,0.0,0.0,0.0,0.0,0.0,0.0,1.083,1.1754,1.154,1.0128,1.0015,0.9316,0.0,0.0,0.0,0.0,0.0,0.0,0.0,0.0,0.0,0.0,0.0,0.0,0.0,0.0,0.0,0.0,0.0,0.0,0.0,0.0,0.0,0.0,0.0,0.0,0.0,0.0,0.0,0.0,0.0,0.0,0.0,0.0,0.0,0.0,0.0,0.0,0.0,0.0,0.0,0.0,0.0,0.0,0.0,0.0,0.0,0.0,0.0,0.0,0.0,0.0,0.0,0.0,0.0,0.0,0.0,0.0,0.0,0.0,0.0,0.0,0.0,0.0,0.0,0.0,0.0,0.0,0.0,0.0,0.0,0.0,0.0,0.0,0.0,0.0,0.0,0.0,0.0,0.0,0.0,0.0,0.0,0.0,0.0,0.0,0.0,0.0,0.0,0.0,0.0,0.0,0.0,0.0,0.0,0.0,0.0,0.0,0.0,0.0,0.0,0.0,0.0,0.0,0.0,0.0,0.0,0.0,0.0,0.0,0.0,1.1242,1.2318,1.2216,1.0708,1.004,0.9269,0.0,0.0,0.0,0.0,0.0,0.0,0.0,0.0,0.0,0.0,0.0,0.0,0.0,0.0,0.0,0.0,0.0,0.0,0.0,0.0,0.0,0.0,0.0,0.0,0.0,0.0,0.0,0.0,0.0,0.0,0.0,0.0,0.0,0.0,0.0,0.0,0.0,0.0,0.0,0.0,0.0,0.0,0.0,0.0,0.0,0.0,0.0,0.0,0.0,0.0,0.0,0.0,0.0,0.0,0.0,0.0,0.0,0.0,0.0,0.0,0.0,0.0,0.0,0.0,0.0,0.0,0.0,0.0,0.0,0.0,0.0,0.0,0.0,0.0,0.0,0.0,0.0,0.0,0.0,0.0,0.0,0.0,0.0,0.0,0.0,0.0,0.0,0.0,0.0,0.0,0.0,0.0,0.0,0.0,0.0,0.0,0.0,0.0,0.0,0.0,0.0,0.0,0.0,0.0,0.0,0.0,0.0,0.0,1.1495,1.1477,1.2201,1.1977,1.0715,1.018,0.9469,0.0,0.0,0.0,0.0,0.0,0.0,0.0,0.0,0.0,0.0,0.0,0.0,0.0,0.0,0.0,0.0,0.0,0.0,0.0,0.0,0.0,0.0,0.0,0.0,0.0,0.0,0.0,0.0,0.0,0.0,0.0,0.0,0.0,0.0,0.0,0.0,0.0,0.0,0.0,0.0,0.0,0.0,0.0,0.0,0.0,0.0,0.0,0.0,0.0,0.0,0.0,0.0,0.0,0.0,0.0,0.0,0.0,0.0,0.0,0.0,0.0,0.0,0.0,0.0,0.0,0.0,0.0,0.0,0.0,0.0,0.0,0.0,0.0,0.0,0.0,0.0,0.0,0.0,0.0,0.0,0.0,0.0,0.0,0.0,0.0,0.0,0.0,0.0,0.0,0.0,0.0,0.0,0.0,0.0,0.0,0.0,0.0,0.0,0.0,0.0,0.0,0.0,0.0,0.0,0.0,0.0,0.0,0.0,1.1404,1.1651,1.1687,1.1287,1.0445,1.037,0.9784,0.0,0.0,0.0,0.0,0.0,0.0,0.0,0.0,0.0,0.0,0.0,0.0,0.0,0.0,0.0,0.0,0.0,0.0,0.0,0.0,0.0,0.0,0.0,0.0,0.0,0.0,0.0,0.0,0.0,0.0,0.0,0.0,0.0,0.0,0.0,0.0,0.0,0.0,0.0,0.0,0.0,0.0,0.0,0.0,0.0,0.0,0.0,0.0,0.0,0.0,0.0,0.0,0.0,0.0,0.0,0.0,0.0,0.0,0.0,0.0,0.0,0.0,0.0,0.0,0.0,0.0,0.0,0.0,0.0,0.0,0.0,0.0,0.0,0.0,0.0,0.0,0.0,0.0,0.0,0.0,0.0,0.0,0.0,0.0,0.0,0.0,0.0,0.0,0.0,0.0,0.0,0.0,0.0,0.0,0.0,0.0,0.0,0.0,0.0,0.0,0.0,0.0,0.0,0.0,0.0,0.0,0.0,0.0,1.136,1.1316,1.1661,1.1402,1.0434,1.066,1.0132,0.0,0.0,0.0,0.0,0.0,0.0,0.0,0.0,0.0,0.0,0.0,0.0,0.0,0.0,0.0,0.0,0.0,0.0,0.0,0.0,0.0,0.0,0.0,0.0,0.0,0.0,0.0,0.0,0.0,0.0,0.0,0.0,0.0,0.0,0.0,0.0,0.0,0.0,0.0,0.0,0.0,0.0,0.0,0.0,0.0,0.0,0.0,0.0,0.4406,0.0,0.0,0.0,0.0,0.0,0.0,0.0,0.0,0.0,0.0,0.0,0.0,0.0,0.0,0.0,0.0,0.0,0.0,0.0,0.0,0.0,0.0,0.0,0.0,0.0,0.0,0.0,0.0,0.0,0.0,0.0,0.0,0.0,0.0,0.0,0.0,0.0,0.0,0.0,0.0,0.0,0.0,0.0,0.0,0.0,0.0,0.0,0.0,0.0,0.0,0.0,0.0,0.0,0.0,0.0,0.0,0.0,0.0,0.0,1.078,1.0972,1.1115,1.0853,1.0205,1.0297,0.99,0.0,0.0,0.0,0.0,0.0,0.0,0.0,0.0,0.0,0.0,0.0,0.0,0.0,0.0,0.0,0.0,0.0,0.0,0.0,0.0,0.0,0.0,0.0,0.0,0.0,0.0,0.0,0.0,0.0,0.0,0.0,0.0,0.0,0.0,0.0,0.0,0.0,0.0,0.0,0.0,0.0,0.0,0.0,0.0,0.0,0.0,0.0,0.0,0.0,0.0,0.0,0.0,0.0,0.0,0.0,0.0,0.0,0.0,0.0,0.0,0.0,0.0,0.0,0.0,0.0,0.0,0.0,0.0,0.0,0.0,0.0,0.0,0.0,0.0,0.0,0.0,0.0,0.0,0.0,0.0,0.0,0.0,0.0,0.0,0.0,0.0,0.0,0.0,0.0,0.0,0.0,0.0,0.0,0.0,0.0,0.0,0.0,0.0,0.0,0.0,0.0,0.0,0.0,0.0,0.0,0.0,0.0,1.0155,1.0216,1.0678,1.0457,1.0185,0.9899,0.974,0.9357,0.875,0.0,0.0,0.0,0.0,0.0,0.0,0.0,0.0,0.0,0.0,0.0,0.0,0.0,0.0,0.0,0.0,0.0,0.0,0.0,0.0,0.0,0.0,0.0,0.0,0.0,0.0,0.0,0.0,0.0,0.0,0.0,0.0,0.0,0.0,0.0,0.0,0.0,0.0,0.5295,0.4976,0.0,0.0,0.0,0.0,0.0,0.0,0.0,0.0,0.4281,0.0,0.0,0.0,0.0,0.0,0.0,0.0,0.0,0.0,0.0,0.0,0.0,0.0,0.0,0.0,0.0,0.0,0.0,0.0,0.0,0.0,0.0,0.0,0.0,0.0,0.0,0.0,0.0,0.0,0.0,0.0,0.0,0.0,0.0,0.0,0.0,0.0,0.0,0.0,0.0,0.0,0.0,0.0,0.0,0.0,0.0,0.0,0.0,0.0,0.0,0.0,0.0,0.0,0.0,0.0,0.0,1.1038,1.0578,1.0431,1.0675,1.0234,0.997,0.9899,0.9286,0.8832,0.8503,0.0,0.0,0.0,0.0,0.0,0.0,0.0,0.0,0.0,0.0,0.0,0.0,0.0,0.0,0.0,0.0,0.0,0.0,0.0,0.0,0.0,0.0,0.0,0.0,0.0,0.0,0.0,0.0,0.0,0.0,0.0,0.0,0.0,0.0,0.0,0.0,0.0,0.0,0.0,0.5443,0.4948,0.0,0.0,0.0,0.0,0.0,0.0,0.0,0.0,0.3359,0.0,0.0,0.0,0.0,0.0,0.0,0.0,0.0,0.0,0.0,0.0,0.0,0.0,0.0,0.0,0.0,0.0,0.0,0.0,0.0,0.0,0.0,0.0,0.0,0.0,0.0,0.0,0.0,0.0,0.0,0.0,0.0,0.0,0.0,0.0,0.0,0.0,0.0,0.0,0.0,0.0,0.0,0.0,0.0,0.0,0.0,0.0,0.0,0.0,0.0,0.0,0.0,0.0,0.0,0.0,1.0449,1.0272,1.0174,1.0276,0.9847,0.9716,0.9863,0.879,0.8139,0.0,0.0,0.0,0.0,0.0,0.0,0.0,0.0,0.0,0.0,0.0,0.0,0.0,0.0,0.0,0.0,0.0,0.0,0.0,0.0,0.0,0.0,0.0,0.0,0.0,0.0,0.0,0.0,0.0,0.0,0.0,0.0,0.0,0.0,0.0,0.0,0.0,0.0,0.0,0.0,0.6001,0.563,0.4938,0.0,0.0,0.0,0.0,0.0,0.0,0.3163,0.2954,0.0,0.0,0.0,0.0,0.0,0.0,0.0,0.0,0.0,0.0,0.0,0.0,0.0,0.0,0.0,0.0,0.0,0.0,0.0,0.0,0.0,0.0,0.0,0.0,0.0,0.0,0.0,0.0,0.0,0.0,0.0,0.0,0.0,0.0,0.0,0.0,0.0,0.0,0.0,0.0,0.0,0.0,0.0,0.0,0.0,0.0,0.0,0.0,0.0,0.0,0.0,0.0,0.0,0.0,0.0,0.9804,1.0004,1.0034,0.9899,0.9587,0.9452,0.9586,0.839,0.764,0.0,0.0,0.0,0.0,0.0,0.0,0.0,0.0,0.0,0.0,0.0,0.0,0.0,0.0,0.0,0.0,0.0,0.0,0.0,0.0,0.0,0.0,0.0,0.0,0.0,0.0,0.0,0.0,0.0,0.0,0.0,0.0,0.0,0.0,0.0,0.0,0.0,0.0,0.0,0.0,0.0,0.6559,0.5499,0.5439,0.0,0.0,0.0,0.0,0.322,0.2911,0.0,0.0,0.0,0.0,0.0,0.0,0.0,0.0,0.0,0.0,0.0,0.0,0.0,0.0,0.0,0.0,0.0,0.0,0.0,0.0,0.0,0.0,0.0,0.0,0.0,0.0,0.0,0.0,0.0,0.0,0.0,0.0,0.0,0.0,0.0,0.0,0.0,0.0,0.0,0.0,0.0,0.0,0.0,0.0,0.0,0.0,0.0,0.0,0.0,0.0,0.0,0.0,0.0,0.0,0.0,0.0,0.966,1.0406,1.0503,0.9931,0.9587,0.9159,0.8673,0.8365,0.7845,0.0,0.0,0.0,0.0,0.0,0.0,0.0,0.0,0.0,0.0,0.0,0.0,0.0,0.0,0.0,0.0,0.0,0.0,0.0,0.0,0.0,0.0,0.0,0.0,0.0,0.0,0.0,0.0,0.0,0.0,0.0,0.0,0.0,0.0,0.0,0.0,0.0,0.0,0.0,0.0,0.0,0.7787,0.6656,0.598,0.5181,0.0,0.0,0.3076,0.2296,0.248,0.0,0.0,0.0,0.0,0.0,0.0,0.0,0.0,0.0,0.0,0.0,0.0,0.0,0.0,0.0,0.0,0.0,0.0,0.0,0.0,0.0,0.0,0.0,0.0,0.0,0.0,0.0,0.0,0.0,0.0,0.0,0.0,0.0,0.0,0.0,0.0,0.0,0.0,0.0,0.0,0.0,0.0,0.0,0.0,0.0,0.0,0.0,0.0,0.0,0.0,0.0,0.0,0.0,0.0,0.0,0.8885,0.9065,0.9888,1.0091,0.9633,0.9256,0.8882,0.8524,0.7935,0.7158,0.0,0.0,0.0,0.0,0.0,0.0,0.0,0.0,0.0,0.0,0.0,0.0,0.0,0.0,0.0,0.0,0.0,0.0,0.0,0.0,0.0,0.0,0.0,0.0,0.0,0.0,0.0,0.0,0.0,0.0,0.0,0.0,0.0,0.0,0.0,0.0,0.0,0.0,0.0,0.0,0.0,0.0,0.7985,0.7329,0.0,0.0,0.0,0.3074,0.2504,0.0,0.0,0.0,0.0,0.0,0.0,0.0,0.0,0.0,0.0,0.0,0.0,0.0,0.0,0.0,0.0,0.0,0.0,0.0,0.0,0.0,0.0,0.0,0.0,0.0,0.0,0.0,0.0,0.0,0.0,0.0,0.0,0.0,0.0,0.0,0.0,0.0,0.0,0.0,0.0,0.0,0.0,0.0,0.0,0.0,0.0,0.0,0.0,0.0,0.0,0.0,0.0,0.0,0.0,0.0,0.0,0.0,0.8543,0.9503,0.9809,0.9402,0.9019,0.8667,0.8436,0.7584,0.0,0.0,0.0,0.0,0.0,0.0,0.0,0.0,0.0,0.0,0.0,0.0,0.0,0.0,0.0,0.0,0.0,0.0,0.0,0.0,0.0,0.0,0.0,0.0,0.0,0.0,0.0,0.5093,0.0,0.0,0.0,0.0,0.0,0.0,0.0,0.0,0.0,0.0,0.0,0.0,0.0,0.0,1.0031,0.8941,0.8282,0.7213,0.0,0.0,0.3166,0.2618,0.2253,0.1711,0.0,0.0,0.0,0.0,0.0,0.0,0.0,0.0,0.0,0.0,0.0,0.0,0.0,0.0,0.0,0.0,0.0,0.0,0.0,0.0,0.0,0.0,0.0,0.0,0.0,0.0,0.0,0.0,0.0,0.0,0.0,0.0,0.0,0.0,0.0,0.0,0.0,0.0,0.0,0.0,0.0,0.0,0.0,0.0,0.0,0.0,0.0,0.0,0.0,0.0,0.0,0.0,0.0,0.0,0.8551,0.8373,0.967,1.0027,0.9396,0.9013,0.8656,0.8313,0.754,0.6739,0.0,0.0,0.0,0.0,0.0,0.0,0.0,0.0,0.0,0.0,0.0,0.0,0.0,0.0,0.0,0.0,0.0,0.0,0.0,0.0,0.0,0.0,0.0,0.0,0.0,0.0,0.0,0.0,0.0,0.0,0.0,0.0,0.0,0.0,0.0,0.0,0.0,0.0,0.0,0.0,0.0,1.0403,0.915,0.8215,0.703,0.0,0.4211,0.316,0.2197,0.194,0.1339,-0.0,0.0,0.0,0.0,0.0,0.0,0.0,0.0,0.0,0.0,0.0,0.0,0.0,0.0,0.0,0.0,0.0,0.0,0.0,0.0,0.0,0.0,0.0,0.0,0.0,0.0,0.0,0.0,0.0,0.0,0.0,0.0,0.0,0.0,0.0,0.0,0.0,0.0,0.0,0.0,0.0,0.0,0.0,0.0,0.0,0.0,0.0,0.0,0.0,0.0,0.0,0.0,0.0,0.0,0.8333,0.8782,0.9186,0.9292,0.9041,0.869,0.8207,0.7564,0.7262,0.6545,0.0,0.0,0.0,0.0,0.0,0.0,0.0,0.0,0.0,0.0,0.0,0.0,0.0,0.0,0.0,0.0,0.0,0.0,0.0,0.0,0.0,0.0,0.0,0.0,0.0,0.0,0.0,0.0,0.4451,0.4191,0.4211,0.0,0.0,0.0,0.0,0.0,0.0,0.0,0.0,0.0,0.0,0.9134,0.8359,0.7787,0.0,0.0,0.4384,0.3499,0.256,0.238,0.2193,0.1651,0.1956,0.0,0.0,0.0,0.0,0.0,0.0,0.0,0.0,0.0,0.0,0.0,0.0,0.0,0.0,0.0,0.0,0.0,0.0,0.0,0.0,0.0,0.0,0.0,0.0,0.0,0.0,0.0,0.0,0.0,0.0,0.0,0.0,0.0,0.0,0.0,0.0,0.0,0.0,0.0,0.0,0.0,0.0,0.0,0.0,0.0,0.0,0.0,0.0,0.0,0.0,0.0,0.0,0.7865,0.8772,0.868,0.8557,0.8473,0.8236,0.7744,0.6965,0.6815,0.6224,0.0,0.0,0.0,0.0,0.0,0.0,0.0,0.0,0.0,0.0,0.0,0.0,0.0,0.0,0.0,0.0,0.0,0.0,0.0,0.0,0.0,0.0,0.0,0.0,0.0,0.0,0.0,0.0,0.4232,0.3945,0.3811,0.0,0.0,0.0,0.0,0.0,0.0,0.0,0.0,0.0,0.0,0.7446,0.7256,0.6908,0.6181,0.4937,0.421,0.3536,0.2823,0.2734,0.2726,0.2656,0.0,0.0,0.0,0.0,0.0,0.0,0.0,0.0,0.0,0.0,0.0,0.0,0.0,0.0,0.0,0.0,0.0,0.0,0.0,0.0,0.0,0.0,0.0,0.0,0.0,0.0,0.0,0.9498,0.0,0.0,0.8493,0.0,0.0,0.0,0.0,0.0,0.0,0.0,0.0,0.0,0.0,0.0,0.0,0.0,0.0,0.0,0.0,0.0,0.0,0.0,0.0,0.0,0.0,0.7156,0.8013,0.8111,0.8029,0.7753,0.7719,0.7325,0.654,0.6121,0.5755,0.5385,0.0,0.0,0.0,0.0,0.0,0.0,0.0,0.0,0.0,0.0,0.0,0.0,0.0,0.0,0.0,0.0,0.0,0.0,0.0,0.0,0.0,0.0,0.0,0.0,0.0,0.0,0.4289,0.4293,0.4068,0.0,0.0,0.0,0.0,0.0,0.0,0.0,0.0,0.0,0.6804,0.5846,0.5395,0.593,0.5517,0.4897,0.4071,0.3609,0.3173,0.2791,0.2808,0.2803,0.0,0.0,0.0,0.0,0.0,0.0,0.0,0.0,0.0,0.0,0.0,0.0,0.0,0.0,0.0,0.0,0.0,0.0,0.0,0.0,0.0,0.0,0.0,0.0,0.0,0.0,0.0,1.1713,1.0834,0.0,0.0,0.0,0.0,0.0,0.0,0.0,0.0,0.0,0.0,0.0,1.0503,1.0362,0.0,0.0,0.0,0.0,0.0,0.0,0.0,0.0,0.0,0.0,0.0,0.0,0.663,0.7901,0.7089,0.692,0.7547,0.7119,0.6635,0.6125,0.5971,0.5615,0.5013,0.0,0.0,0.0,0.0,0.0,0.0,0.0,0.0,0.0,0.0,0.0,0.0,0.0,0.0,0.0,0.0,0.0,0.0,0.0,0.0,0.0,0.0,0.0,0.0,0.0,0.3898,0.0,0.0,0.0,0.0,0.0,0.0,0.0,0.0,0.0,0.0,0.0,0.4769,0.4207,0.3624,0.33,0.3447,0.3908,0.412,0.0,0.0,0.0,0.0,0.0,0.0,0.0,0.0,0.0,0.0,0.0,0.0,0.0,0.0,0.2362,0.0792,-0.0298,-0.129,-0.2197,0.0,0.0,0.0,0.0,0.0,0.0,0.0,0.0,0.0,0.0,0.0,0.0,0.0,0.0,1.1497,1.0887,1.0547,0.0,0.0,0.0,0.0,0.0,0.0,0.0,0.0,1.128,1.1233,1.1104,1.0942,1.0632,0.0,0.9626,0.8643,0.0,0.0,0.0,0.0,0.0,0.0,0.0,0.0,0.5872,0.7273,0.6123,0.5845,0.6639,0.6246,0.5836,0.5477,0.5609,0.5406,0.4814,0.4476,0.425,0.0,0.0,0.0,0.0,0.0,0.0,0.0,0.0,0.0,0.0,0.0,0.0,0.0,0.0,0.0,0.0,0.0,0.0,0.0,0.0,0.0,0.0,0.0,0.3546,0.0,0.0,0.0,0.0,0.0,0.0,0.0,0.0,0.0,0.5033,0.4645,0.4167,0.3727,0.2463,0.1728,0.2036,0.0,0.0,0.0,0.0,0.0,0.0,0.0,0.3631,0.3722,0.3744,0.365,0.3319,0.3214,0.2805,0.161,0.0,0.0,-0.0648,-0.163,-0.238,-0.3384,-0.4651,-0.5554,-0.5582,-0.558,-0.5531,0.0,0.0,0.0,0.0,0.0,0.0,0.0,0.0,1.1036,1.0441,0.0,0.9872,0.0,0.0,0.0,0.0,1.1143,1.224,0.0,0.0,1.2099,1.2206,1.1654,1.1191,1.0783,1.0339,0.9739,0.8728,0.7308,0.7203,0.0,0.0,0.0,0.0,0.0,0.0,0.4884,0.6152,0.526,0.4888,0.5198,0.5186,0.5008,0.4634,0.5049,0.5147,0.4841,0.4804,0.4671,0.4422,0.4163,0.0,0.0,0.0,0.0,0.0,0.0,0.0,0.0,0.0,0.0,0.0,0.0,0.0,0.0,0.0,0.0,0.0,0.0,0.0,0.0,0.3797,0.0,0.0,0.0,0.0,0.0,0.0,0.0,0.0,0.0,0.0,0.4311,0.495,0.5435,0.5136,0.0,0.0,0.0,0.0,0.313,0.3141,0.3135,0.337,0.3908,0.3652,0.3698,0.4714,0.0,0.0,0.3696,0.3659,0.3213,0.1872,0.1709,0.0618,-0.222,-0.2751,-0.3093,-0.3611,-0.4101,-0.4425,-0.444,-0.4615,-0.4564,1.1288,0.0,0.0,0.0,0.0,1.0952,1.114,1.174,1.1168,1.0696,1.0366,1.0177,0.0,0.0,0.0,0.0,0.0,0.0,1.1988,1.2075,1.2016,1.1696,1.1193,1.1063,1.0568,0.9733,0.9182,0.8303,0.7114,0.682,0.6261,0.5416,0.0,0.0,0.0,0.0,0.4548,0.4882,0.4148,0.4005,0.4619,0.4544,0.4538,0.4605,0.4727,0.4887,0.5154,0.492,0.4768,0.4685,0.4436,0.0,0.0,0.0,0.0,0.0,0.0,0.0,0.0,0.0,0.0,0.0,0.0,0.0,0.0,0.0,0.0,0.0,0.0,0.0,0.3505,0.3382,0.3322,0.0,0.0,0.0,0.0,0.0,0.0,0.0,0.0,0.0,0.3168,0.3343,0.3289,0.0,0.0,-0.1672,0.0494,0.2343,0.3459,0.3434,0.3779,0.0,0.4234,0.4454,0.4594,0.4554,0.4326,0.4467,0.5325,0.4883,0.4269,0.3806,0.3372,0.2518,0.1064,-0.0765,-0.1959,-0.2489,-0.3532,-0.4538,-0.4937,-0.5025,-0.4978,1.1323,1.1389,1.0318,1.028,1.0882,1.046,1.0626,1.1147,1.0541,1.0231,1.0141,1.0008,0.9625,0.9163,0.959,0.0,0.0,0.0,1.1834,1.1978,1.1604,1.1276,1.0911,1.0356,0.9781,0.9155,0.8415,0.7533,0.6642,0.6041,0.5359,0.4597,0.0,0.0,0.3661,0.3323,0.3495,0.4009,0.3317,0.3284,0.3953,0.4205,0.4473,0.472,0.4916,0.5135,0.5284,0.5107,0.4983,0.5007,0.4729,0.4378,0.0,0.0,0.0,0.0,0.0,0.0,0.0,0.0,0.0,0.0,0.0,0.516,0.4992,0.0,0.0,0.0,0.4433,0.3822,0.3225,0.3473,0.0,0.0,0.0,0.0,0.0,0.0,0.0,0.3252,0.2786,0.2486,0.2371,0.2321,0.2319,0.2505,0.0644,-0.0171,0.146,0.0,0.3618,0.3612,0.388,0.4134,0.4389,0.4635,0.4808,0.4801,0.4957,0.5216,0.5698,0.5303,0.4949,0.4908,0.4565,0.4119,0.3571,0.2098,0.0408,-0.0925,-0.1991,-0.2744,-0.3128,-0.3185,-0.3276,1.1819,1.1639,1.0028,0.9884,1.0629,0.9588,0.9513,1.0039,0.9418,0.923,0.943,0.9453,0.9461,0.9457,1.0022,0.0,0.9592,1.1125,1.1586,1.1217,1.0888,1.0789,1.0728,0.9319,0.8647,0.8598,0.7503,0.6595,0.5973,0.5154,0.4199,0.3209,0.377,0.3184,0.1516,0.1481,0.2157,0.3439,0.2836,0.2773,0.3306,0.4069,0.4589,0.4797,0.5324,0.5504,0.5295,0.5317,0.5336,0.5302,0.502,0.4834,0.4762,0.0,0.0,0.0,0.0,0.0,0.0,0.0,0.0,0.0,0.0,0.0,0.0,0.0,0.0,0.0,0.443,0.0,0.3407,0.3923,0.0,0.0,0.0,0.4735,0.4178,0.4,0.3708,0.3094,0.0,0.0,0.2008,0.1963,0.2326,0.3471,0.3595,0.358,0.358,0.3621,0.3668,0.3757,0.3755,0.3924,0.4565,0.4682,0.4897,0.5427,0.5876,0.5964,0.561,0.5521,0.5478,0.5602,0.5435,0.5392,0.543,0.4921,0.3881,0.1011,0.0485,0.0442,0.0442,0.0309,-0.0,1.1819,1.1702,1.0822,1.0296,0.9961,0.9234,0.8954,0.9103,0.8958,0.8786,0.8669,0.8842,0.894,0.8991,0.9625,0.9865,0.9761,1.036,1.0552,1.045,1.0042,0.9828,0.9758,0.8814,0.8136,0.7815,0.6918,0.6029,0.5234,0.5182,0.4111,0.2349,0.3632,0.3794,0.2747,0.2926,0.2752,0.2233,0.2966,0.3294,0.3309,0.3515,0.3735,0.4056,0.4562,0.4887,0.4999,0.5403,0.5508,0.5326,0.5245,0.4948,0.4519,0.4388,0.0,0.0,0.0,0.0,0.0,0.0,0.0,0.0,0.0,0.6252,0.5465,0.0,0.5828,0.0,0.5025,0.4423,0.4178,0.4731,0.0,0.0,0.5356,0.536,0.503,0.4096,0.3455,0.3462,0.3382,0.3274,0.3184,0.3179,0.3265,0.3542,0.359,0.3593,0.3593,0.412,0.442,0.4464,0.4668,0.5094,0.5612,0.5784,0.5956,0.651,0.6386,0.6304,0.6553,0.6595,0.6761,0.7101,0.6553,0.6212,0.6534,0.5805,0.5034,0.419,0.4025,0.4035,0.4037,0.3326,0.2663,1.229,1.2241,1.1521,1.1015,1.061,0.9662,0.9263,0.9208,0.8959,0.8867,0.9017,0.9489,0.971,0.9718,0.9766,0.9817,0.9803,0.9604,0.9507,0.9489,0.8814,0.8472,0.8461,0.755,0.6993,0.6763,0.6063,0.5412,0.4902,0.4832,0.3907,0.2265,0.305,0.3503,0.3607,0.3725,0.3444,0.2882,0.343,0.3604,0.3459,0.3657,0.3952,0.4301,0.4795,0.5218,0.5478,0.5602,0.5645,0.559,0.539,0.5141,0.4822,0.4664,0.4438,0.0,0.0,0.0,0.0,0.0,0.0,0.0,0.0,0.0,0.0,0.0,0.5881,0.5566,0.5394,0.5257,0.5252,0.5911,0.6399,0.6457,0.6343,0.6111,0.5689,0.4789,0.4144,0.3951,0.397,0.3847,0.3633,0.3583,0.3709,0.3921,0.3972,0.3978,0.4018,0.4543,0.498,0.4975,0.5142,0.5607,0.6419,0.655,0.6758,0.7234,0.6943,0.6686,0.6979,0.7238,0.7538,0.7791,0.7569,0.7429,0.7668,0.7283,0.6823,0.6823,0.68,0.6431,0.5504,0.4792,0.4301,1.2886,1.2832,1.2236,1.1922,1.1873,1.0568,1.0012,0.9862,0.9309,0.9361,0.9965,1.0517,1.0762,1.0618,1.0068,0.9707,0.9499,0.8856,0.8531,0.8403,0.7538,0.7129,0.7067,0.6154,0.5778,0.5752,0.5095,0.4807,0.4829,0.4444,0.3791,0.2933,0.2667,0.3098,0.4179,0.4118,0.4085,0.4189,0.3925,0.3779,0.3742,0.419,0.457,0.4948,0.5476,0.5882,0.611,0.5926,0.5843,0.5882,0.5604,0.5374,0.5299,0.5053,0.4904,0.0,0.4653,0.0,0.0,0.0,0.0,0.0,0.0,0.0,0.0,0.6006,0.5847,0.5396,0.581,0.6244,0.6611,0.7396,0.7819,0.7675,0.7503,0.7096,0.6334,0.58,0.5257,0.4476,0.4387,0.4222,0.3665,0.3668,0.3924,0.4303,0.4565,0.47,0.4696,0.5089,0.5435,0.5516,0.5642,0.6319,0.7078,0.7241,0.7373,0.7742,0.7447,0.7147,0.7143,0.7534,0.7957,0.8122,0.8394,0.8639,0.876,0.8716,0.863,0.8545,0.8508,0.7919,0.6283,0.5647,0.5386,1.2886,1.2881,1.2769,1.2666,1.2613,1.1778,1.1116,1.0614,1.0466,1.0513,1.0614,1.0716,1.0513,1.0012,0.9865,0.918,0.809,0.7925,0.7545,0.7007,0.6804,0.6732,0.6663,0.5826,0.5453,0.5473,0.4724,0.4421,0.4595,0.4499,0.4353,0.4155,0.41,0.4213,0.4438,0.0,0.0,0.0,0.387,0.4058,0.4481,0.4426,0.4676,0.5202,0.5803,0.0,0.5814,0.622,0.6265,0.592,0.5973,0.0,0.0,0.0,0.0,0.0,0.0,0.0,0.0,0.0,0.0,0.0,0.4179,0.4668,0.5778,0.6538,0.6878,0.669,0.6933,0.7502,0.8382,0.9041,0.9296,0.9067,0.9361,0.8877,0.7099,0.6735,0.6095,0.4604,0.4387,0.4176,0.3751,0.3966,0.4262,0.4434,0.5221,0.5787,0.587,0.5962,0.6212,0.6612,0.7363,0.8043,0.8341,0.8378,0.8215,0.7991,0.7829,0.7742,0.7746,0.7787,0.8279,0.8963,0.8914,0.8878,0.9275,0.8994,0.8756,0.8712,0.8712,0.8427,0.7603,0.7007,0.6534,1.2886,1.2886,1.2886,1.2886,0.0,1.2505,1.2147,1.1787,1.1124,1.0965,1.1312,1.1312,1.1111,1.0716,0.9736,0.8856,0.8125,0.7111,0.6414,0.6034,0.5716,0.555,0.5548,0.5137,0.4923,0.4997,0.4548,0.4389,0.4458,0.4467,0.4472,0.4472,0.447,0.4472,0.447,0.4467,0.4355,0.4085,0.411,0.4336,0.468,0.4625,0.4932,0.5707,0.605,0.0,0.0,0.0,0.0,0.0,0.0,0.0,0.0,0.0,0.0,0.5756,0.5749,0.5609,0.5318,0.5076,0.4796,0.4472,0.4589,0.4983,0.5729,0.6476,0.7047,0.7405,0.7995,0.8738,0.9512,1.0311,1.0746,1.0601,1.0364,0.9612,0.8407,0.7739,0.6875,0.5556,0.5002,0.4611,0.4092,0.3965,0.4266,0.4739,0.5351,0.6084,0.6859,0.7031,0.7227,0.7754,0.8492,0.9079,0.9083,0.9083,0.9039,0.872,0.8476,0.8312,0.832,0.8517,0.8873,0.9399,0.9474,0.9597,0.9795,0.9686,0.9478,0.9478,0.9478,0.9319,0.8797,0.8256,0.7795,1.2886,1.2886,1.2886,1.2886,1.2886,1.2886,1.2886,1.2827,0.0,0.0,0.0,1.1819,1.1665,1.1308,0.9504,0.8574,0.8205,0.6342,0.5433,0.5273,0.4732,0.4462,0.4462,0.4462,0.4462,0.4462,0.4462,0.4462,0.4462,0.4462,0.4462,0.4462,0.4462,0.4568,0.4679,0.4732,0.4723,0.4603,0.4632,0.484,0.5162,0.5078,0.5465,0.6425,0.637,0.6562,0.6972,0.6794,0.6797,0.6977,0.6688,0.6611,0.6873,0.6648,0.644,0.6277,0.632,0.6306,0.6196,0.5847,0.5431,0.5022,0.5286,0.5572,0.5754,0.634,0.705,0.7972,0.8808,0.9609,1.0507,1.1298,1.185,1.1886,1.1078,1.021,0.935,0.8582,0.7569,0.6431,0.5655,0.5087,0.448,0.4138,0.423,0.5089,0.5567,0.6161,0.7607,0.8115,0.8312,0.8748,0.9279,0.9642,0.9642,0.9642,0.9602,0.9439,0.9079,0.8837,0.8918,0.9199,0.9478,0.9637,1.0,1.0201,1.0283,1.0244,1.0322,1.0322,1.0322,1.0162,0.9721,0.9319,0.8914,1.2886,1.2886,1.2886,1.2886,1.2886,1.2886,1.2886,1.2881,1.2681,1.2295,1.1819,1.1819,1.1162,1.0012,0.91,0.8053,0.6848,0.5923,0.522,0.4624,0.4515,0.4462,0.4462,0.4462,0.4462,0.4462,0.4462,0.4462,0.4462,0.4517,0.4462,0.4517,0.4462,0.4789,0.5324,0.5584,0.5898,0.6215,0.5571,0.577,0.6873,0.6557,0.6678,0.7265,0.7026,0.6898,0.6975,0.6945,0.6964,0.7006,0.743,0.7327,0.6638,0.7302,0.7327,0.6645,0.676,0.6693,0.6235,0.616,0.5871,0.534,0.5765,0.6076,0.6132,0.6626,0.739,0.8472,0.8732,0.9752,1.1859,1.1968,1.203,1.235,1.1908,1.0847,0.9145,0.8716,0.798,0.6471,0.5653,0.5096,0.4668,0.4792,0.5053,0.5394,0.6245,0.7234,0.8254,0.8999,0.9284,0.9434,0.9834,1.0157,1.0123,1.0201,1.0005,0.9562,0.9474,0.9399,0.9399,0.9474,0.9681,1.0079,1.0249,1.0283,1.0322,1.0322,1.0322,1.0322,1.0322,1.0239,1.0118,1.0035,0.9765,1.2886,1.2886,1.2886,1.2886,1.2886,1.2886,1.2676,1.2318,1.23,1.2129,1.1715,1.1061,1.0143,0.9162,0.8062,0.6996,0.5982,0.5273,0.4785,0.4517,0.4462,0.4462,0.4462,0.4462,0.4462,0.4462,0.4462,0.4462,0.4517,0.4838,0.5058,0.5056,0.5443,0.5821,0.6091,0.6246,0.6573,0.7182,0.6719,0.6712,0.7294,0.7109,0.7208,0.7679,0.7425,0.751,0.8024,0.7914,0.7874,0.807,0.8438,0.8705,0.8867,0.876,0.8472,0.8112,0.8192,0.8152,0.7888,0.7477,0.6941,0.6356,0.6374,0.6431,0.6431,0.6772,0.7423,0.8396,0.9031,1.0077,1.1737,1.2227,1.2563,1.2775,1.2061,1.1032,0.9862,0.9036,0.8301,0.7273,0.6469,0.5891,0.5616,0.5425,0.554,0.5985,0.7198,0.8323,0.8872,0.9533,0.9927,0.9961,1.0123,1.0283,1.0322,1.0322,1.0205,0.9966,0.9927,0.9922,0.9917,0.9917,1.004,1.0239,1.0322,1.0322,1.0322,1.0322,1.0322,1.0322,1.0322,1.0322,1.0322,1.0322,1.0118,1.2886,1.2886,1.2886,1.2886,1.2881,1.2715,1.2309,1.1796,1.1475,1.1258,1.0944,0.9997,0.9061,0.8159,0.6897,0.6034,0.5433,0.4785,0.4517,0.4462,0.4462,0.4572,0.4732,0.4736,0.4842,0.4954,0.4952,0.4954,0.5009,0.5492,0.576,0.5814,0.6475,0.6858,0.6856,0.702,0.7399,0.7889,0.7809,0.7712,0.7647,0.7584,0.77,0.7988,0.791,0.8172,0.8847,0.8859,0.8931,0.9182,0.9475,0.9987,1.0606,1.0022,0.9588,0.9454,0.9462,0.9458,0.9427,0.8879,0.8195,0.7557,0.7273,0.7058,0.6909,0.7096,0.7496,0.8282,0.9288,1.0304,1.1427,1.2256,1.2831,1.2744,1.1918,1.0957,1.015,0.9228,0.8472,0.7943,0.7195,0.6694,0.6567,0.6113,0.6082,0.6923,0.8264,0.9152,0.9294,0.9999,1.0551,1.0572,1.0425,1.0327,1.0322,1.0322,1.0244,1.0162,1.0196,1.0157,1.0118,1.0157,1.0278,1.0322,1.0428,1.0505,1.0472,1.0621,1.0692,1.0764,1.0764,1.0649,1.0505,1.0505,1.039,1.2949,1.2886,1.2969,1.2886,1.2808,1.2206,1.1886,1.1629,1.0513,0.9577,0.9041,0.8839,0.8056,0.6794,0.5977,0.5592,0.5431,0.4787,0.4517,0.4572,0.4517,0.4787,0.5378,0.5433,0.5762,0.6261,0.6317,0.6263,0.6263,0.6421,0.6475,0.6583,0.7238,0.7613,0.767,0.8215,0.859,0.8699,0.8702,0.8692,0.8649,0.8402,0.8307,0.833,0.8645,0.8797,0.9008,0.9442,0.9794,0.9851,1.0392,1.0436,1.017,1.0401,1.0419,0.9917,0.9925,0.9921,0.9871,0.981,0.9444,0.8827,0.8676,0.8425,0.7879,0.7812,0.796,0.8371,0.9167,1.0362,1.1786,1.2209,1.231,1.2238,1.1629,1.0699,0.9325,0.8788,0.8472,0.7977,0.7491,0.7059,0.7098,0.6967,0.7162,0.7718,0.8829,0.9695,0.9818,1.0625,1.1351,1.1283,1.0876,1.0381,1.0371,1.0332,1.0195,0.9823,1.0005,1.0083,0.9961,1.0079,1.0322,1.0356,1.0654,1.084,1.0986,1.1282,1.1584,1.1431,1.1431,1.1425,1.1057,1.0791,1.0644,1.3855,1.42,1.3767,1.3355,1.285,1.2404,1.1722,1.087,1.0096,0.9183,0.8184,0.8128,0.7326,0.5977,0.5594,0.5485,0.5485,0.5218,0.5332,0.5716,0.5773,0.588,0.6147,0.6145,0.6312,0.6588,0.6591,0.6591,0.6696,0.7023,0.7453,0.7883,0.8209,0.8371,0.8371,0.8646,0.8808,0.8808,0.8808,0.8808,0.8847,0.9089,0.9227,0.9296,0.9587,1.0086,1.0584,1.0754,1.1064,1.1611,1.1662,1.1648,1.1686,1.1667,1.153,1.1297,1.1297,1.1108,1.0712,1.0871,1.0706,1.0091,0.9891,0.9505,0.8848,0.8803,0.8697,0.8523,0.9055,1.0011,1.1129,1.1399,1.1529,1.17,1.1015,1.0116,0.9456,0.8973,0.8642,0.8437,0.8091,0.7885,0.7888,0.7888,0.8131,0.8706,0.9498,1.0062,1.0522,1.1174,1.1519,1.1562,1.1278,1.0993,1.0723,1.0654,1.0427,1.0165,1.0162,1.0157,1.0098,1.0123,1.0317,1.0332,1.0799,1.1056,1.0976,1.1431,1.1811,1.1774,1.1431,1.1159,1.0608,1.0317,0.9947,1.4678,1.5034,1.4155,1.3422,1.2836,1.2238,1.1415,1.0415,0.9976,0.9028,0.7886,0.7829,0.7071,0.5928,0.5817,0.5817,0.5814,0.5817,0.6088,0.6588,0.6591,0.6699,0.6858,0.6912,0.702,0.7182,0.7238,0.7238,0.7292,0.772,0.8265,0.8755,0.8808,0.8808,0.8808,0.8808,0.8808,0.8808,0.8808,0.8854,0.9159,0.971,0.9898,0.9655,1.0355,1.1097,1.1648,1.176,1.2139,1.2847,1.2573,1.2554,1.2842,1.2578,1.2402,1.2412,1.2412,1.2205,1.1704,1.1914,1.1823,1.1149,1.0861,1.0474,0.9897,0.9612,0.932,0.8926,0.9073,0.9625,1.0359,1.0661,1.1015,1.1412,1.0466,0.9817,0.9751,0.9211,0.8784,0.8784,0.8546,0.8487,0.849,0.849,0.8683,0.9077,0.9848,1.0478,1.1085,1.1556,1.2003,1.1964,1.1969,1.1729,1.1226,1.1089,1.0889,1.0445,1.032,1.0449,1.0331,1.0331,1.0612,1.0889,1.1173,1.1512,1.1808,1.2092,1.2196,1.196,1.1641,1.1115,1.0572,0.996,0.9314,1.5179,1.4987,1.3624,1.2967,1.2813,1.1455,1.0774,1.0607,1.0018,0.9124,0.8279,0.8205,0.7621,0.666,0.666,0.6593,0.6532,0.6532,0.6637,0.675,0.6694,0.702,0.7616,0.7667,0.7993,0.8583,0.8685,0.8692,0.8692,0.8748,0.8752,0.8801,0.8804,0.8808,0.8808,0.8808,0.8808,0.8808,0.8857,0.911,0.9718,1.0364,1.016,0.9277,1.0735,1.167,1.1675,1.2365,1.2861,1.2886,1.2847,1.2852,1.2881,1.2856,1.2827,1.2832,1.2837,1.2832,1.2779,1.2759,1.2505,1.1922,1.1729,1.1423,1.0789,1.0246,0.9893,0.9729,0.93,0.9332,0.9902,1.0316,1.0716,1.0918,1.0265,0.9817,0.9817,0.9208,0.8857,0.8808,0.8771,0.8734,0.8764,0.8788,0.8856,0.9207,1.0026,1.0864,1.1185,1.2041,1.2614,1.2801,1.2762,1.2557,1.1797,1.1582,1.1166,1.0784,1.0755,1.0833,1.058,1.0497,1.1079,1.1539,1.1985,1.2398,1.2816,1.2994,1.3007,1.2727,1.225,1.1678,1.0697,0.9818,0.9043,1.5754,1.5208,1.4188,1.3437,1.2823,1.16,1.0817,1.029,0.9873,0.951,0.9189,0.9176,0.8843,0.8242,0.8248,0.7927,0.7351,0.7292,0.756,0.794,0.7993,0.8159,0.8421,0.883,0.9141,0.9454,0.9858,1.0064,1.0016,0.9662,0.9462,0.9364,0.9008,0.8808,0.8808,0.8808,0.8808,0.8857,0.9215,0.9562,0.9917,1.0884,1.0973,1.0248,1.1621,1.2496,1.2379,1.2764,1.2886,1.2886,1.2886,1.2886,1.2886,1.2886,1.2886,1.2886,1.2886,1.2886,1.2886,1.2886,1.2774,1.2559,1.2505,1.2192,1.157,1.1208,1.091,1.0513,1.0265,1.0265,1.0218,0.9917,1.0068,1.0969,1.0115,0.9409,0.9562,0.9208,0.8808,0.8808,0.8808,0.8808,0.8699,0.8808,0.9162,0.9965,1.0513,1.112,1.1994,1.2618,1.3065,1.3377,1.3457,1.3496,1.3686,1.2574,1.1815,1.1562,1.1484,1.1775,1.1723,1.2006,1.256,1.275,1.3066,1.3436,1.3928,1.4653,1.4472,1.3797,1.3244,1.2005,1.0779,0.9843,0.8723,1.6312,1.5284,1.4264,1.3489,1.2854,1.1601,1.0794,1.0299,1.034,1.0311,1.0289,1.0508,1.0447,1.0183,1.0143,0.9811,0.9031,0.8451,0.8315,0.8804,0.9005,0.911,0.9208,0.9814,1.0119,1.0167,1.0564,1.0813,1.0762,1.0364,1.0115,1.0119,0.9662,0.9316,0.9211,0.9312,0.9361,0.9305,0.9762,1.0214,1.0513,1.1329,1.1751,1.1675,1.2404,1.2886,1.2886,1.2886,1.2886,1.2886,1.2886,1.2886,1.2886,1.2886,1.2886,1.2886,1.2886,1.2886,1.2886,1.2886,1.2886,1.2886,1.2886,1.2662,1.2183,1.1922,1.1566,1.1212,1.0864,1.0864,1.0868,1.0119,1.0115,1.1312,1.0368,0.9662,0.9961,0.9291,0.862,0.8096,0.799,0.8049,0.8159,0.8315,0.8778,0.9736,1.0305,1.1225,1.1999,1.2847,1.3286,1.3726,1.3732,1.4003,1.4147,1.3463,1.3003,1.2748,1.2397,1.27,1.3091,1.3471,1.3823,1.4011,1.4301,1.4611,1.5181,1.6025,1.5818,1.5114,1.3859,1.2579,1.1186,0.977,0.8926,1.6743,1.5284,1.3674,1.313,1.2879,1.1447,1.0661,1.0825,1.148,1.1586,1.1416,1.2117,1.2163,1.2045,1.182,1.1911,1.1391,0.985,0.9034,0.9109,0.9577,0.9817,0.9858,1.0517,1.0864,1.0922,1.0868,1.0918,1.0969,1.0864,1.0817,1.0817,1.0669,1.0312,0.9814,1.0312,1.0364,1.0064,1.0466,1.1116,1.1715,1.1814,1.2183,1.271,1.2881,1.2929,1.2983,1.2978,1.2968,1.2905,1.2973,1.2925,1.2978,1.2934,1.2886,1.2886,1.2886,1.2886,1.2886,1.2886,1.2886,1.2886,1.2886,1.2881,1.272,1.2241,1.1877,1.1774,1.1371,1.1166,1.1616,1.1225,1.1124,1.1607,1.1015,1.0517,1.0352,0.9467,0.8162,0.7066,0.6858,0.6645,0.6807,0.7233,0.7765,0.8396,0.9577,1.0809,1.1371,1.2648,1.3627,1.3862,1.4091,1.4509,1.4422,1.425,1.4154,1.3983,1.3613,1.3559,1.4008,1.4407,1.4935,1.5219,1.5798,1.6106,1.6574,1.7249,1.7089,1.6324,1.4797,1.3477,1.2293,1.1066,0.9703,1.6743,1.5289,1.3666,1.3368,1.3606,1.2077,1.1714,1.2212,1.2573,1.2566,1.2542,1.2783,1.2705,1.248,1.2414,1.2341,1.2031,1.1343,1.0918,1.0678,1.0589,1.0474,1.0618,1.1166,1.1724,1.2147,1.2255,1.226,1.2103,1.1733,1.1516,1.1412,1.1015,1.0712,1.0517,1.0669,1.0665,1.0618,1.117,1.1616,1.1864,1.229,1.2671,1.2881,1.2886,1.3118,1.3699,1.3573,1.3316,1.2977,1.3679,1.3972,1.3557,1.3109,1.2934,1.2886,1.2886,1.2886,1.2886,1.2886,1.2886,1.2886,1.2886,1.2886,1.2886,1.2671,1.2515,1.2559,1.2358,1.2358,1.2461,1.2412,1.2309,1.2501,1.1128,1.0143,0.9872,0.8652,0.7574,0.6817,0.6603,0.6606,0.6487,0.6632,0.6827,0.8075,0.9304,1.0273,1.1395,1.2682,1.3951,1.4329,1.4692,1.5096,1.5242,1.5197,1.5008,1.4934,1.47,1.4467,1.4871,1.5366,1.5927,1.6546,1.7122,1.7653,1.8105,1.8554,1.8608,1.7772,1.6481,1.5205,1.3932,1.2627,1.1376,1.6743,1.5284,1.3965,1.373,1.403,1.281,1.2512,1.3005,1.3312,1.3433,1.3485,1.379,1.3786,1.3646,1.3611,1.3535,1.3304,1.3222,1.2948,1.2613,1.193,1.1516,1.1326,1.1882,1.2497,1.3002,1.2954,1.2886,1.2881,1.2456,1.2187,1.2138,1.1783,1.1429,1.1271,1.1434,1.1484,1.1321,1.1828,1.2187,1.2295,1.2666,1.2886,1.2886,1.2886,1.3263,1.391,1.4071,1.395,1.3855,1.4725,1.4775,1.3669,1.3288,1.3157,1.2929,1.2886,1.2886,1.2886,1.2886,1.2886,1.2886,1.2886,1.2886,1.2886,1.2886,1.2886,1.2886,1.2886,1.2886,1.2886,1.2886,1.2886,1.2881,1.1538,1.0254,0.937,0.7489,0.5934,0.5109,0.4829,0.4995,0.488,0.4801,0.5281,0.6847,0.8456,0.9647,1.1069,1.2604,1.3674,1.4589,1.509,1.5594,1.6244,1.6151,1.587,1.5784,1.5704,1.5612,1.5749,1.6291,1.6802,1.7654,1.8321,1.8882,1.9426,2.0676,2.1074,1.9692,1.8211,1.7258,1.6059,1.4641,1.341,1.6743,1.5342,1.4506,1.4209,1.4209,1.3425,1.3187,1.3364,1.3965,1.4323,1.4506,1.5045,1.5449,1.5502,1.5428,1.5399,1.5428,1.5135,1.4843,1.4479,1.3794,1.3005,1.2264,1.2586,1.2972,1.335,1.3066,1.2895,1.2886,1.2827,1.2886,1.2779,1.272,1.2505,1.208,1.2559,1.2452,1.203,1.251,1.2827,1.2827,1.2881,1.2886,1.2886,1.2934,1.3243,1.392,1.456,1.4835,1.4926,1.5733,1.5246,1.3669,1.3549,1.3515,1.2978,1.2886,1.2886,1.2886,1.2886,1.2886,1.2886,1.2886,1.2934,1.3022,1.306,1.3065,1.3065,1.3012,1.2978,1.2929,1.2886,1.2837,1.2622,1.1562,1.0348,0.8487,0.5921,0.3998,0.2617,0.2118,0.2118,0.2284,0.2215,0.2981,0.4513,0.6788,0.8482,1.0191,1.1916,1.3648,1.4613,1.527,1.587,1.6436,1.6618,1.6379,1.6508,1.6508,1.6587,1.6629,1.7085,1.7585,1.845,1.9204,1.9877,2.0807,2.1894,2.2214,2.1036,1.9981,1.9283,1.8154,1.6725,1.555,1.6743,1.5347,1.451,1.451,1.4932,1.4213,1.4204,1.4751,1.4991,1.5386,1.5848,1.6088,1.6472,1.6968,1.6962,1.7018,1.6863,1.6833,1.6339,1.5701,1.567,1.478,1.3608,1.3055,1.312,1.3418,1.3135,1.2891,1.2886,1.2886,1.2886,1.2886,1.2886,1.2827,1.2666,1.2774,1.2822,1.2662,1.2774,1.2886,1.2886,1.2886,1.2886,1.2886,1.2886,1.343,1.4422,1.5466,1.602,1.5964,1.568,1.5437,1.4656,1.416,1.3647,1.3157,1.2983,1.2934,1.2934,1.2929,1.2934,1.2886,1.2978,1.3109,1.3557,1.3552,1.3552,1.3552,1.3552,1.3377,1.3022,1.2881,1.2466,1.1375,1.041,0.8677,0.6161,0.394,0.2231,0.0895,-0.0,0.0727,0.1006,0.1059,0.1552,0.3087,0.5251,0.76,0.9479,1.1804,1.3788,1.4716,1.5472,1.6064,1.6552,1.6824,1.6973,1.714,1.7299,1.749,1.7565,1.788,1.8327,1.8864,1.9446,2.008,2.1376,2.2591,2.2265,2.2053,2.1458,2.0643,1.9929,1.8773,1.7782,1.6743,1.5352,1.4874,1.4991,1.5347,1.4874,1.4986,1.5405,1.5753,1.6088,1.6487,1.6866,1.7196,1.7572,1.7584,1.7584,1.7584,1.7584,1.7197,1.6667,1.6287,1.5568,1.4651,1.3828,1.354,1.3686,1.3335,1.3061,1.2915,1.2886,1.2886,1.2886,1.2886,1.2886,1.2881,1.2886,1.2886,1.2886,1.2886,1.2886,1.2886,1.2886,1.2886,1.2886,1.2934,1.3478,1.4658,1.5838,1.6479,1.6374,1.6071,1.5812,1.5718,1.5034,1.4288,1.37,1.3663,1.3652,1.3615,1.3472,1.3291,1.3291,1.3286,1.3467,1.3784,1.4009,1.419,1.4195,1.3962,1.3637,1.3271,1.2788,1.1819,1.0578,0.9379,0.7685,0.5247,0.2883,0.1116,-0.0,-0.0,0.0617,0.157,0.1792,0.2286,0.3382,0.535,0.7315,0.9082,1.163,1.3736,1.4664,1.5808,1.6563,1.6993,1.7271,1.7578,1.774,1.8111,1.8313,1.8562,1.8752,1.9096,1.9503,1.9855,2.0478,2.1811,2.2867,2.3065,2.2821,2.247,2.1985,2.1215,2.052,1.9611,1.6743,1.5415,1.5415,1.5459,1.5526,1.5522,1.5637,1.5801,1.6363,1.6708,1.6984,1.7468,1.7846,1.7846,1.8118,1.7895,1.7907,1.8076,1.7846,1.7405,1.6781,1.6003,1.5659,1.4483,1.4106,1.4106,1.374,1.332,1.3061,1.2949,1.2886,1.2886,1.2886,1.2886,1.2886,1.2886,1.2886,1.2886,1.2886,1.2886,1.2886,1.2886,1.2886,1.2934,1.3253,1.3795,1.4835,1.5882,1.6528,1.6528,1.6528,1.6362,1.6272,1.5748,1.5242,1.4698,1.452,1.4566,1.4566,1.4107,1.3915,1.3915,1.3873,1.3956,1.4185,1.4549,1.4784,1.4795,1.4236,1.3868,1.3404,1.2555,1.149,1.041,0.9441,0.8022,0.6086,0.2814,0.039,-0.0,-0.0,-0.0,0.3258,0.4397,0.4388,0.3901,0.5706,0.7354,0.9144,1.1273,1.3182,1.4595,1.584,1.714,1.747,1.7794,1.8099,1.8412,1.8842,1.917,1.9519,1.9733,2.002,2.0311,2.0525,2.1139,2.2164,2.294,2.3412,2.3535,2.3118,2.2785,2.2399,2.1765,2.0978,1.6743,1.5415,1.5415,1.5748,1.6197,1.626,1.659,1.7085,1.7246,1.7633,1.8172,1.84,1.8768,1.9261,1.9254,1.9307,1.9254,1.9202,1.9032,1.8365,1.7658,1.7236,1.6679,1.5265,1.4434,1.4483,1.3905,1.3472,1.3366,1.3155,1.2934,1.2929,1.307,1.2934,1.2929,1.2949,1.2886,1.2886,1.2929,1.292,1.2886,1.2886,1.2934,1.3022,1.3795,1.4601,1.5365,1.6095,1.6472,1.6528,1.6485,1.6262,1.5832,1.5682,1.541,1.5022,1.4795,1.4749,1.4703,1.4652,1.4514,1.4509,1.4509,1.4692,1.5174,1.527,1.541,1.532,1.4835,1.4113,1.3233,1.233,1.1657,1.1036,1.0203,0.932,0.8407,0.5634,0.3152,0.2112,0.1839,0.201,0.2852,0.4265,0.4598,0.4755,0.5998,0.7554,0.9316,1.1174,1.2819,1.4498,1.6207,1.7463,1.7747,1.8145,1.8696,1.8984,1.9419,1.9869,2.0215,2.0703,2.0941,2.104,2.1081,2.1845,2.2707,2.3026,2.3504,2.3622,2.3662,2.3203,2.2754,2.2484,2.2068,1.7462,1.6466,1.641,1.6641,1.6973,1.7029,1.7246,1.7633,1.8015,1.834,1.8715,1.9044,1.9417,1.9805,2.0112,2.0258,2.0258,2.0245,2.008,1.949,1.8691,1.8112,1.791,1.6662,1.5813,1.5755,1.5034,1.4495,1.4018,1.3765,1.3542,1.3387,1.3583,1.3605,1.3283,1.3065,1.2916,1.2929,1.2928,1.2918,1.2915,1.2886,1.3109,1.3377,1.4195,1.4966,1.5588,1.6188,1.6436,1.6528,1.6479,1.6318,1.5959,1.5934,1.582,1.5605,1.5561,1.5567,1.5522,1.5281,1.5096,1.5096,1.5101,1.5276,1.5594,1.582,1.6008,1.5826,1.5203,1.4212,1.3055,1.2236,1.1868,1.1611,1.0885,1.0257,0.9639,0.7209,0.4934,0.4181,0.42,0.4489,0.495,0.5242,0.5352,0.5839,0.6376,0.7925,0.9423,1.1236,1.2924,1.4665,1.6517,1.7693,1.794,1.8458,1.9207,1.9529,1.9793,2.0238,2.0634,2.1236,2.1846,2.1868,2.1891,2.2397,2.3126,2.3365,2.3498,2.3604,2.3566,2.3245,2.2939,2.26,2.2175,1.8336,1.7518,1.7611,1.7677,1.7743,1.7797,1.7846,1.807,1.8608,1.8933,1.8992,1.954,1.9792,2.0112,2.0503,2.0795,2.093,2.093,2.0818,2.0657,1.9825,1.9401,1.9105,1.8542,1.7908,1.7496,1.6457,1.5646,1.5145,1.4765,1.4552,1.4286,1.4675,1.4542,1.3967,1.3424,1.3237,1.3346,1.3475,1.3402,1.3271,1.3248,1.3372,1.3962,1.4549,1.5197,1.5776,1.6244,1.6528,1.6528,1.6528,1.6528,1.6528,1.6528,1.6528,1.6479,1.6337,1.63,1.6201,1.5958,1.5726,1.5714,1.5726,1.5732,1.5876,1.6151,1.6343,1.6058,1.5377,1.4206,1.306,1.2452,1.208,1.1972,1.1516,1.1273,1.0735,0.8666,0.7613,0.6554,0.6582,0.6775,0.6776,0.6869,0.6866,0.6918,0.7453,0.8227,0.972,1.1204,1.2844,1.4442,1.6219,1.7793,1.821,1.8412,1.9244,1.9609,1.9914,2.0416,2.0951,2.1804,2.24,2.264,2.2836,2.3263,2.34,2.3485,2.3595,2.364,2.3491,2.3212,2.2963,2.2712,2.2233,1.8606,1.7265,1.7528,1.7955,1.8442,1.8501,1.8827,1.9371,1.9469,1.9637,1.9637,1.9753,2.0099,2.0553,2.0703,2.1071,2.1527,2.1622,2.1582,2.1527,2.1059,2.0955,2.0759,2.0275,2.0066,1.9573,1.8243,1.6984,1.6489,1.6277,1.5758,1.5451,1.5813,1.564,1.4813,1.4161,1.4145,1.4287,1.4581,1.4627,1.4206,1.3925,1.3967,1.4509,1.505,1.5644,1.6157,1.6436,1.6528,1.6528,1.6528,1.6528,1.6528,1.6528,1.6565,1.6528,1.6528,1.6528,1.6479,1.6429,1.6331,1.6337,1.6293,1.6293,1.6343,1.638,1.6436,1.607,1.5332,1.4201,1.307,1.2759,1.2764,1.2754,1.2962,1.3168,1.3027,1.2344,1.1074,0.9714,0.9311,0.8851,0.8596,0.8277,0.7909,0.7753,0.7925,0.8646,0.9845,1.118,1.2566,1.4139,1.5772,1.7274,1.8514,1.8643,1.9043,1.9303,1.9687,2.0257,2.098,2.222,2.2877,2.3074,2.3421,2.3827,2.3882,2.3767,2.3762,2.3883,2.3552,2.3194,2.2939,2.2695,2.2231,1.9744,1.9018,1.8827,1.8933,1.9261,1.9254,1.9482,1.9747,1.9798,1.9798,1.9798,1.985,2.0144,2.0739,2.1168,2.1771,2.2423,2.2339,2.2246,2.2193,2.1892,2.1697,2.1744,2.139,2.1293,2.0964,1.9952,1.858,1.764,1.7299,1.6892,1.667,1.7043,1.6859,1.6114,1.5614,1.5265,1.5377,1.5584,1.5501,1.4812,1.4376,1.4646,1.509,1.5454,1.5908,1.6386,1.6528,1.6528,1.6565,1.6752,1.6723,1.6693,1.6723,1.6752,1.6565,1.6528,1.6528,1.6528,1.6528,1.6479,1.6485,1.6528,1.6528,1.6528,1.6436,1.6287,1.5656,1.5248,1.4201,1.3065,1.3195,1.3324,1.3457,1.3915,1.4365,1.463,1.4699,1.3745,1.2421,1.1487,1.0723,1.0156,0.968,0.903,0.8741,0.8606,0.9266,1.012,1.1056,1.2289,1.419,1.5746,1.7011,1.8242,1.8605,1.8727,1.8991,1.9543,2.0078,2.0886,2.2064,2.2923,2.3428,2.3859,2.4344,2.4321,2.4217,2.4174,2.4051,2.3687,2.3302,2.2994,2.2626,2.2211,2.0767,2.0542,2.0029,1.9798,1.9798,1.9798,1.9798,1.9798,1.9798,1.9798,1.9798,1.985,2.0156,2.0888,2.1629,2.2508,2.3516,2.3061,2.292,2.2815,2.2423,2.2125,2.2079,2.1946,2.1913,2.1845,2.1445,2.0631,1.9146,1.8663,1.8201,1.7946,1.8231,1.8138,1.7472,1.7046,1.6538,1.6242,1.6164,1.5894,1.5142,1.5017,1.5192,1.5588,1.5732,1.6045,1.6479,1.6528,1.6528,1.6601,1.6795,1.6976,1.6835,1.7067,1.7028,1.6595,1.6528,1.6528,1.6528,1.6528,1.6528,1.6528,1.6595,1.6637,1.668,1.6667,1.6306,1.5326,1.4926,1.4566,1.3747,1.3732,1.3909,1.4097,1.4509,1.5045,1.5525,1.5778,1.5909,1.4767,1.3533,1.2537,1.1755,1.1197,1.06,0.9622,0.9488,0.9891,1.0645,1.083,1.2094,1.4207,1.5796,1.6912,1.782,1.8334,1.8489,1.8605,1.9317,2.0066,2.0886,2.1818,2.2654,2.3504,2.4339,2.4747,2.471,2.4564,2.4344,2.408,2.3753,2.344,2.3106,2.2738,2.2351,2.0976,2.0226,1.9914,1.9798,1.9817,1.9817,1.9798,1.9798,1.9798,1.9798,1.9798,1.985,2.0201,2.0979,2.2121,2.2957,2.3377,2.3516,2.337,2.3319,2.3223,2.3165,2.3216,2.277,2.2634,2.2529,2.2086,2.1315,2.0535,2.0338,1.984,1.9193,1.9276,1.9139,1.8436,1.8298,1.7993,1.7264,1.6722,1.6182,1.5688,1.5932,1.5914,1.5864,1.6051,1.638,1.6479,1.6528,1.6528,1.6515,1.6601,1.6905,1.7335,1.7352,1.7025,1.668,1.6528,1.6528,1.6528,1.6528,1.6565,1.668,1.6915,1.7111,1.7188,1.714,1.6918,1.6299,1.579,1.5141,1.4468,1.4514,1.4612,1.4824,1.5264,1.5784,1.6262,1.6725,1.6864,1.6689,1.5401,1.4152,1.3182,1.2686,1.2127,1.1099,1.0415,1.0817,1.1308,1.1634,1.2275,1.4431,1.577,1.6847,1.7544,1.8059,1.8295,1.8334,1.917,2.0012,2.0807,2.1652,2.2628,2.3509,2.4364,2.4905,2.479,2.4601,2.4399,2.4201,2.3995,2.3623,2.3227,2.288,2.2591,2.1716,2.1311,2.0584,2.0288,2.0244,1.9955,1.9798,1.9798,1.9798,1.9798,1.9798,1.9798,2.0333,2.139,2.2665,2.3334,2.3551,2.3595,2.3595,2.3595,2.3595,2.3595,2.3501,2.3319,2.3194,2.3098,2.2898,2.256,2.1967,2.1431,2.0925,2.0625,2.0653,2.0529,1.9577,1.9422,1.8753,1.785,1.7017,1.6417,1.6244,1.6331,1.6374,1.6145,1.638,1.6479,1.6528,1.6528,1.6528,1.6558,1.6716,1.7086,1.7435,1.7597,1.7626,1.7504,1.7429,1.716,1.665,1.6571,1.6723,1.6909,1.7188,1.7388,1.7626,1.7733,1.7354,1.6464,1.6213,1.5696,1.5096,1.5056,1.5353,1.5696,1.6089,1.667,1.7142,1.745,1.7666,1.7497,1.7203,1.5886,1.4682,1.3887,1.3233,1.2274,1.1539,1.1449,1.2181,1.2898,1.3726,1.4886,1.5922,1.6704,1.7305,1.782,1.8185,1.8419,1.9162,1.9977,2.066,2.152,2.2475,2.3344,2.4137,2.451,2.4689,2.4737,2.4623,2.4448,2.4257,2.3874,2.3517,2.3414,2.3076,2.251,2.241,2.1324,2.085,2.068,2.0188,1.9936,1.9798,1.9798,1.9798,1.985,1.9997,2.0713,2.1703,2.2749,2.337,2.3595,2.3595,2.3595,2.3595,2.3595,2.3595,2.3595,2.3551,2.3551,2.3595,2.3457,2.3223,2.286,2.2469,2.2072,2.1744,2.1472,2.1335,2.098,2.0368,1.9575,1.8364,1.7281,1.6718,1.6509,1.6485,1.6485,1.6485,1.6528,1.6528,1.6522,1.6674,1.6723,1.6924,1.7236,1.7578,1.7754,1.8082,1.8145,1.8059,1.8059,1.786,1.7312,1.707,1.7111,1.7422,1.788,1.8299,1.8653,1.8584,1.8299,1.7484,1.6796,1.6244,1.5696,1.584,1.6139,1.6604,1.7079,1.7693,1.8138,1.8263,1.8302,1.8178,1.7894,1.7409,1.6255,1.5184,1.4321,1.3433,1.2812,1.2327,1.2898,1.381,1.471,1.5654,1.6572,1.7181,1.7544,1.794,1.8145,1.8496,1.9281,1.9949,2.0676,2.1442,2.2367,2.3169,2.386,2.4293,2.457,2.4733,2.4845,2.4498,2.421,2.4058,2.3851,2.3747,2.3437,2.3075,2.2921,2.1882,2.1197,2.0737,2.068,2.0334,2.0003,1.9895,1.9907,1.9997,2.044,2.1015,2.1758,2.2476,2.3143,2.3595,2.3595,2.3595,2.3595,2.3595,2.3595,2.3595,2.3595,2.3595,2.3595,2.3595,2.3559,2.3516,2.3275,2.2599,2.1885,2.2032,2.1791,2.143,2.0918,2.0146,1.8979,1.7833,1.7083,1.684,1.6712,1.6637,1.6595,1.6558,1.6515,1.6571,1.6993,1.729,1.7446,1.774,1.8101,1.8314,1.8584,1.8535,1.8489,1.8688,1.8489,1.8138,1.782,1.798,1.8288,1.8805,1.9411,1.9791,1.9649,1.9411,1.903,1.803,1.7348,1.7107,1.7168,1.712,1.745,1.782,1.8249,1.865,1.881,1.8848,1.8848,1.8528,1.8013,1.749,1.636,1.5297,1.4413,1.3773,1.329,1.3736,1.4534,1.5422,1.6347,1.7321,1.7894,1.8099,1.8412,1.8705,1.8977,1.9485,2.0116,2.074,2.151,2.1914,2.2768,2.3419,2.3943,2.4379,2.4379,2.4353,2.4284,2.4113,2.389,2.3819,2.3735,2.3414,2.3132,2.305,2.2738,2.225,2.1708,2.1412,2.1171,2.1006,2.0939,2.0713,2.0446,2.0696,2.1113,2.1758,2.2392,2.3009,2.3551,2.3595,2.3595,2.3595,2.3595,2.3595,2.3595,2.3595,2.3595,2.3595,2.3595,2.3595,2.3595,2.3595,2.3406,2.298,2.2741,2.2613,2.2224,2.1251,2.0392,1.9809,1.8584,1.7613,1.8069,1.7651,1.7463,1.7463,1.7463,1.7463,1.7551,1.7666,1.7807,1.7935,1.8073,1.839,1.875,1.8876,1.8975,1.8968,1.9251,1.9169,1.893,1.8566,1.8359,1.9104,1.9656,2.0223,2.0674,2.0534,2.0112,1.9606,1.9089,1.8401,1.7854,1.7773,1.7854,1.8224,1.8542,1.8916,1.911,1.9303,1.9376,1.9332,1.9029,1.8612,1.8085,1.7477,1.6421,1.5392,1.4801,1.4383,1.4818,1.5283,1.6163,1.7014,1.7978,1.8677,1.888,1.9111,1.9332,1.9528,1.973,2.0078,2.0477,2.0601,2.1105,2.2042,2.2746,2.3052,2.3373,2.3744,2.3855,2.3794,2.3705,2.3588,2.3597,2.3649,2.3423,2.3245,2.3414,2.3369,2.2948,2.2371,2.2008,2.1792,2.1711,2.1649,2.1479,2.1064,2.1071,2.139,2.2,2.2445,2.3009,2.3457,2.3595,2.3595,2.3595,2.3595,2.3595,2.3595,2.3595,2.3595,2.3595,2.3595,2.3595,2.3595,2.3595,2.3501,2.3501,2.3551,2.3231,2.2761,2.1609,2.0803,2.0403,1.9705,1.8385,1.8842,1.8294,1.802,1.802,1.798,1.798,1.8059,1.8178,1.8334,1.8419,1.8574,1.8824,1.902,1.9169,1.9361,1.9566,1.9697,1.9697,1.9493,1.9332,1.9059,1.97,2.0369,2.083,2.1078,2.1181,2.0822,2.041,1.9908,1.931,1.8545,1.8475,1.8419,1.8664,1.9229,1.96,1.9679,1.9836,1.9844,1.9808,1.9485,1.9088,1.8412,1.7814,1.696,1.5983,1.5398,1.5291,1.5897,1.6353,1.6889,1.7719,1.8576,1.9178,1.9692,1.9728,1.9763,1.9919,2.0024,1.9761,1.999,2.0012,2.0008,2.0564,2.1221,2.1861,2.2306,2.2573,2.2944,2.3307,2.315,2.2964,2.3287,2.3342,2.3468,2.3543,2.4149,2.3556,2.2971,2.2578,2.2553,2.229,2.1934,2.1798,2.1758,2.1656,2.1656,2.196,2.2498,2.2701,2.3054,2.3465,2.3595,2.3595,2.3595,2.3595,2.3595,2.3595,2.3595,2.3595,2.3595,2.3595,2.3595,2.3595,2.3595,2.3595,2.3595,2.3595,2.3544,2.3492,2.2713,2.1799,2.1041,2.09,1.9814,1.911,1.8654,1.8394,1.8534,1.8408,1.8419,1.8496,1.8734,1.8885,1.8923,1.9207,1.945,1.9537,1.9574,1.9654,1.9697,1.9697,1.9697,1.969,2.0,2.0212,2.0333,2.0894,2.1399,2.156,2.159,2.1491,2.1046,2.0495,1.9846,1.9433,1.9229,1.9103,1.9155,1.9687,2.0031,2.0108,2.0288,2.0296,2.0124,1.9831,1.9442,1.8772,1.8059,1.7264,1.6557,1.5946,1.6108,1.6708,1.7307,1.774,1.8239,1.9037,1.9549,1.9981,2.0162,2.0238,2.039,2.012,1.9647,1.9344,1.925,1.9265,1.9296,1.9741,2.0455,2.0939,2.1337,2.1479,2.1608,2.221,2.2323,2.2708,2.2882,2.2798,2.3603,2.4264,2.3594,2.3526,2.3682,2.335,2.3069,2.2911,2.2575,2.2346,2.2246,2.1946,2.2093,2.2551,2.2754,2.3016,2.3508,2.3595,2.3595,2.3595,2.3595,2.3595,2.3595,2.3595,2.3595,2.3595,2.3595,2.3595,2.3595,2.3595,2.3595,2.3595,2.3595,2.3595,2.3565,2.323,2.2909,2.2512,2.1761,2.0903,2.0903,1.989,1.9322,1.964,1.9328,1.9065,1.9065,1.9288,1.9332,1.9369,1.9646,1.969,1.9697,1.9697,1.9697,1.9697,1.9697,1.9697,1.9925,2.0235,2.0739,2.0951,2.1267,2.1764,2.1995,2.2069,2.1928,2.1658,2.1149,2.0577,2.0154,1.9981,1.9856,1.9609,1.9929,2.0143,2.0306,2.0624,2.0698,2.0382,2.0081,1.9594,1.8991,1.8451,1.77,1.7305,1.6822,1.6708,1.7175,1.7966,1.8552,1.8835,1.9376,1.9884,2.0238,2.0272,2.0306,2.0348,1.9756,1.9015,1.874,1.8607,1.8247,1.8137,1.8555,1.9014,1.9672,2.01,1.9691,1.9808,2.0241,2.0643,2.0819,2.123,2.1667,2.3708,2.4567,2.3973,2.4195,2.466,2.3909,2.3562,2.3538,2.3194,2.3016,2.2875,2.2324,2.2423,2.283,2.2837,2.3016,2.3551,2.3595,2.3595,2.3595,2.3595,2.3595,2.3595,2.3595,2.3595,2.3595,2.3595,2.3595,2.3595,2.3595,2.3595,2.3595,2.3595,2.3595,2.358,2.3542,2.3378,2.2785,2.1839,2.1346,2.1315,2.0833,2.0027,2.0273,2.0117,1.9661,1.9697,1.9697,1.9697,1.9697,1.9697,1.9697,1.9697,1.9697,1.9697,1.9697,1.9697,1.979,2.007,2.054,2.1015,2.1411,2.168,2.2007,2.2287,2.2296,2.2126,2.1928,2.1726,2.1329,2.0838,2.0707,2.039,2.0174,2.0356,2.0601,2.0583,2.0902,2.0902,2.0583,2.0116,1.9622,1.9259,1.8758,1.8178,1.794,1.774,1.7673,1.7639,1.838,1.9006,1.9303,1.9543,1.9872,2.0151,2.0272,2.0306,2.0306,1.9641,1.8835,1.8324,1.8229,1.7572,1.7109,1.7678,1.8198,1.8695,1.886,1.8503,1.8089,1.7967,1.8357,1.8782,1.9444,2.0123,2.3989,2.519,2.466,2.4817,2.5295,2.4223,2.3653,2.3595,2.361,2.3566,2.3508,2.292,2.3016,2.3377,2.3024,2.3106,2.3501,2.3595,2.3595,2.3595,2.3595,2.3595,2.3595,2.3595,2.3595,2.3595,2.3595,2.3595,2.3595,2.3595,2.3595,2.3595,2.3595,2.3595,2.3595,2.3557,2.337,2.282,2.2111,2.1843,2.1949,2.0857,2.0677,2.076,2.0468,1.9907,1.9766,1.9698,1.9705,1.9697,1.9697,1.9697,1.9697,1.9697,1.9697,1.9762,1.9762,1.9965,2.0348,2.0854,2.1445,2.1981,2.2277,2.2501,2.251,2.2482,2.2307,2.2118,2.1928,2.1726,2.1491,2.1142,2.0821,2.0878,2.107,2.111,2.0967,2.1007,2.0999,2.0665,2.0077,1.9667,1.9515,1.9088,1.8574,1.8419,1.8263,1.8256,1.8302,1.8619,1.9207,1.9493,1.9703,1.9795,1.9957,1.9954,1.9919,1.9778,1.9641,1.9008,1.8457,1.7625,1.6841,1.653,1.6947,1.7361,1.7558,1.7565,1.7335,1.6918,1.6619,1.6705,1.7283,1.7824,1.8469,2.3975,2.5273,2.4667,2.4831,2.5403,2.4569,2.3948,2.3645,2.3595,2.3595,2.3595,2.3421,2.3428,2.3551,2.3406,2.3465,2.3508,2.3595,2.3595,2.3595,2.3595,2.3595,2.3595,2.3595,2.3595,2.3595,2.3595,2.3595,2.3595,2.3595,2.3595,2.3595,2.3595,2.3595,2.3595,2.3595,2.343,2.3168,2.2476,2.2469,2.242,2.1582,2.156,2.1502,2.0902,2.0325,1.9834,1.981,1.9787,1.9697,1.9697,1.9697,1.9697,1.9733,1.9754,2.0089,2.0185,2.0314,2.0805,2.1411,2.2018,2.2555,2.2937,2.2861,2.2821,2.266,2.2527,2.2279,2.2126,2.1966,2.1794,2.1499,2.1173,2.1173,2.136,2.1407,2.1291,2.1221,2.1158,2.0565,2.0015,1.9762,1.961,1.9325,1.8885,1.8779,1.8741,1.8772,1.8909,1.9185,1.9325,1.9646,1.9782,1.9866,1.9413,1.9281,1.9281,1.9236,1.9178,1.8844,1.797,1.709,1.6133,1.6028,1.6525,1.6446,1.6219,1.6403,1.7002,1.6114,1.57,1.57,1.5831,1.6557,1.7293,2.3989,2.526,2.466,2.471,2.5052,2.4618,2.4199,2.3956,2.3914,2.3921,2.3879,2.3681,2.3595,2.3595,2.3551,2.3595,2.3595,2.3595,2.3595,2.3595,2.3595,2.3595,2.3595,2.3595,2.3595,2.3595,2.3595,2.3595,2.3638,2.3595,2.3595,2.3595,2.3595,2.3595,2.36,2.3588,2.3596,2.3441,2.3268,2.32,2.2855,2.2379,2.2281,2.2433,2.1655,2.0733,1.9943,1.9953,2.0055,1.9808,1.9697,1.9697,1.9697,1.9733,1.9882,2.0185,2.0272,2.0641,2.1165,2.1732,2.2418,2.3008,2.3467,2.3478,2.3253,2.3038,2.2678,2.2371,2.2285,2.218,2.2032,2.1823,2.156,2.1298,2.1499,2.1675,2.1606,2.1507,2.1047,2.0457,2.007,1.9826,1.9574,1.9325,1.9132,1.902,1.905,1.9229,1.939,1.9643,1.9637,1.9711,1.9803,1.9859,1.9332,1.8848,1.8841,1.8909,1.8871,1.8408,1.7518,1.6889,1.6298,1.6114,1.6232,1.6188,1.6262,1.6695,1.7037,1.6188,1.5704,1.591,1.5966,1.5917,1.6721,2.3871,2.5094,2.4569,2.4504,2.4642,2.4582,2.4511,2.4552,2.4584,2.4511,2.4389,2.3948,2.3794,2.3794,2.3802,2.3681,2.3638,2.3595,2.3595,2.3595,2.3595,2.3595,2.3595,2.3595,2.3595,2.3595,2.3716,2.3879,2.3837,2.3914,2.3991,2.3716,2.3837,2.3956,2.3994,2.3889,2.3953,2.4032,2.3909,2.3805,2.3073,2.2531,2.2354,2.3105,2.2372,2.1262,2.047,2.0362,2.0595,2.0025,1.9697,1.9697,1.9697,1.9733,1.9945,2.0261,2.0449,2.0935,2.1505,2.2037,2.2625,2.3245,2.3797,2.3855,2.3656,2.3307,2.2926,2.25,2.2379,2.2396,2.2287,2.2245,2.2062,2.198,2.2074,2.2005,2.1803,2.1557,2.1007,2.0457,2.0166,1.9917,1.9697,1.9486,1.9529,1.9317,1.9383,1.9666,1.9969,2.0204,2.0081,1.9937,1.9929,1.9872,1.9185,1.8772,1.8612,1.8566,1.8574,1.8412,1.7826,1.7192,1.6547,1.596,1.5407,1.6378,1.6773,1.7227,1.7432,1.7018,1.6663,1.6579,1.6456,1.638,1.6853,2.2807,2.3313,2.3687,2.4347,2.5116,2.5051,2.5213,2.5615,2.5615,2.5373,2.5028,2.4824,2.4544,2.415,2.415,2.3998,2.3645,2.3595,2.3595,2.3595,2.3595,2.3595,2.3595,2.3595,2.3595,2.3759,2.3956,2.4397,2.4592,2.4704,2.4784,2.4792,2.4712,2.4672,2.4649,2.4508,2.4508,2.4617,2.4918,2.465,2.4041,2.3848,2.3866,2.3519,2.2639,2.2056,2.1371,2.0946,2.0565,1.9898,1.9771,1.9697,1.9697,1.9697,2.012,2.0665,2.0804,2.1252,2.1828,2.2341,2.2835,2.339,2.3848,2.3998,2.3914,2.3569,2.3181,2.2754,2.2544,2.2553,2.2588,2.2599,2.2617,2.2626,2.2643,2.2334,2.202,2.1502,2.0999,2.0649,2.0322,2.0042,1.9826,1.9754,1.9831,1.9879,2.0012,2.0246,2.0641,2.0902,2.0667,2.0483,2.0254,1.9962,1.92,1.8727,1.8574,1.8373,1.8334,1.8217,1.8052,1.717,1.6188,1.5015,1.4574,1.5972,1.7173,1.7817,1.788,1.7611,1.7652,1.7639,1.7977,1.8032,1.8275,2.2579,2.3105,2.3801,2.4261,2.4644,2.5021,2.5259,2.5411,2.5988,2.6016,2.5524,2.5289,2.4894,2.4471,2.4389,2.415,2.3716,2.3595,2.3595,2.3595,2.3595,2.3595,2.3595,2.3638,2.3829,2.3991,2.4463,2.4902,2.5259,2.519,2.5144,2.5259,2.5259,2.5259,2.5235,2.5137,2.5142,2.5221,2.5758,2.5642,2.5027,2.4847,2.3887,2.3253,2.3021,2.2627,2.1929,2.1345,2.0707,2.0055,1.9712,1.9697,1.9697,1.9697,2.0139,2.0698,2.1063,2.1354,2.2064,2.2563,2.2919,2.346,2.398,2.4135,2.4398,2.4035,2.3408,2.3008,2.289,2.2891,2.279,2.2764,2.2906,2.2972,2.2914,2.2746,2.2298,2.1807,2.1428,2.1165,2.074,2.0227,2.0007,1.9782,1.9859,2.0074,2.028,2.0699,2.1126,2.1505,2.1274,2.1054,2.0814,2.0043,1.9096,1.8727,1.8574,1.8373,1.8249,1.8118,1.8018,1.688,1.5822,1.5283,1.5319,1.6338,1.7407,1.8235,1.8537,1.8397,1.8559,1.876,1.9133,1.9419,1.9662,2.2541,2.34,2.4043,2.4082,2.3812,2.4672,2.491,2.4816,2.5972,2.6401,2.6068,2.5635,2.5097,2.4752,2.46,2.4233,2.3948,2.3914,2.3794,2.3716,2.3645,2.3595,2.3638,2.3716,2.4142,2.4617,2.5097,2.5365,2.559,2.5598,2.5598,2.5403,2.5403,2.5403,2.5491,2.5575,2.5724,2.5647,2.5911,2.6223,2.5942,2.5582,2.4392,2.3694,2.3394,2.3375,2.2309,2.144,2.0864,2.0258,1.9697,1.9697,1.9697,1.9733,2.0147,2.0632,2.0967,2.1393,2.2015,2.2419,2.2903,2.3413,2.3925,2.4282,2.4498,2.4355,2.3739,2.3422,2.3307,2.3165,2.3069,2.3085,2.3227,2.3314,2.3259,2.3093,2.2565,2.2122,2.1903,2.1655,2.1126,2.0542,2.0193,1.9929,2.0027,2.028,2.0593,2.1038,2.145,2.1799,2.1869,2.1657,2.1461,2.0498,1.9462,1.9014,1.8925,1.8812,1.8722,1.8394,1.7951,1.7068,1.6524,1.6437,1.6735,1.6833,1.7818,1.8843,1.8982,1.9056,1.9288,1.9498,1.9748,2.0131,2.0692,2.1388,2.2104,2.2765,2.3253,2.3681,2.43,2.4752,2.5144,2.5791,2.6262,2.6436,2.6436,2.6131,2.5697,2.5697,2.5335,2.4657,2.443,2.4266,2.4225,2.3964,2.3759,2.3837,2.4274,2.4855,2.5335,2.577,2.6024,2.6087,2.6237,2.6385,2.6315,2.6308,2.6317,2.636,2.6311,2.6034,2.5932,2.6041,2.632,2.6,2.5824,2.6051,2.5433,2.4808,2.3585,2.2294,2.1457,2.0654,2.0034,1.9697,1.9697,1.9697,1.9726,2.0042,2.0424,2.0764,2.1221,2.1731,2.2133,2.2583,2.3159,2.3626,2.4008,2.4314,2.4687,2.4181,2.3884,2.3742,2.3543,2.3455,2.3565,2.369,2.3768,2.3756,2.3314,2.283,2.2548,2.2334,2.198,2.1527,2.0951,2.0442,2.0348,2.0424,2.0674,2.0894,2.1389,2.2105,2.2298,2.2442,2.2264,2.2082,2.1516,2.0741,1.9826,1.9534,1.9382,1.9163,1.8806,1.8296,1.7464,1.7077,1.7227,1.6654,1.6366,1.7584,1.9208,1.9472,1.956,1.9914,2.0154,2.04,2.0765,2.1306]},{"header":{"parameterUnit":"m.s-1","parameterCategory":1,"la1":31.0,"la2":29.5877,"lo1":-88.7671,"lo2":-86.6584,"dy":0.0162,"dx":0.0185,"nx":115,"ny":88,"refTime":"2024-07-30T12:00:00:Z","depth":0,"parameterNumber":3,"parameterNumberName":"V-component_of_WINDS"},"data":[0.0,0.0,0.0,0.0,0.0,0.0,0.0,0.0,0.0,0.0,0.0,0.0,0.0,0.0,0.0,0.0,0.0,0.0,0.0,0.0,0.0,0.0,0.0,0.0,0.0,0.0,0.0,0.0,0.0,0.0,0.0,0.0,0.0,0.0,0.0,0.0,0.0,0.0,0.0,0.0,0.0,0.0,0.0,0.0,0.0,0.0,0.0,0.0,0.0,0.0,0.0,0.0,0.0,0.0,0.0,0.0,0.0,0.0,0.0,0.0,0.0,0.0,0.0,0.0,0.0,0.0,0.0,0.0,0.0,0.0,0.0,0.0,0.0,0.0,0.0,0.0,0.0,0.0,0.0,0.0,0.0,0.0,0.0,0.0,0.0,0.0,0.0,0.0,0.0,0.0,0.0,0.0,0.0,0.0,0.0,0.0,0.0,0.0,0.0,0.0,0.0,0.0,0.0,0.0,0.0,0.0,0.0,0.0,0.0,0.0,0.0,0.0,0.0,0.0,0.0,0.0,0.0,0.0,0.0,0.0,0.0,0.0,0.0,0.0,0.0,0.0,0.0,0.0,0.0,0.0,0.0,0.0,0.0,0.0,0.0,0.0,0.0,0.0,0.0,0.0,0.0,0.0,0.0,0.0,0.0,0.0,0.0,0.0,0.0,0.0,0.0,0.0,0.0,0.0,0.0,0.0,0.0,0.0,0.0,0.0,0.0,0.0,0.0,0.0,0.0,0.0,0.0,0.0,0.0,0.0,0.0,0.0,0.0,0.0,0.0,0.0,0.0,0.0,0.0,0.0,0.0,0.0,0.0,0.0,0.0,0.0,0.0,0.0,0.0,0.0,0.0,0.0,0.0,0.0,0.0,0.0,0.0,0.0,0.0,0.0,0.0,0.0,0.0,0.0,0.0,0.0,0.0,0.0,0.0,0.0,0.0,0.0,0.0,0.0,0.0,0.0,0.0,0.0,0.0,0.0,0.0,0.0,0.0,0.0,0.0,0.0,0.0,0.0,0.0,0.0,0.0,0.0,0.0,0.0,0.0,0.0,0.0,0.0,0.0,0.0,0.0,0.0,0.0,0.0,0.0,0.0,0.0,0.0,0.0,0.0,0.0,0.0,0.0,0.0,0.0,0.0,0.0,0.0,0.0,0.0,0.0,0.0,0.0,0.0,0.0,0.0,0.0,0.0,0.0,0.0,0.0,0.0,0.0,0.0,0.0,0.0,0.0,0.0,0.0,0.0,0.0,0.0,0.0,0.0,0.0,0.0,0.0,0.0,0.0,0.0,0.0,0.0,0.0,0.0,0.0,0.0,0.0,0.0,0.0,0.0,0.0,0.0,0.0,0.0,0.0,0.0,0.0,0.0,0.0,0.0,0.0,0.0,0.0,0.0,0.0,0.0,0.0,0.0,0.0,0.0,0.0,0.0,0.0,0.0,0.0,0.0,0.0,0.0,0.0,0.0,0.0,0.0,0.0,0.0,0.0,0.0,0.0,0.0,0.0,0.0,0.0,0.0,0.0,0.0,0.0,0.0,0.0,0.0,0.0,0.0,0.0,0.0,0.0,0.0,0.0,0.0,0.0,0.0,0.0,0.0,0.0,0.0,0.0,0.0,0.0,0.0,0.0,0.0,0.0,0.0,0.0,0.0,0.0,0.0,0.0,0.0,0.0,0.0,0.0,0.0,0.0,0.0,0.0,0.0,0.0,0.0,0.0,0.0,0.0,0.0,0.0,0.0,0.0,0.0,0.0,0.0,0.0,0.0,0.0,0.0,0.0,0.0,0.0,0.0,0.0,0.0,0.0,0.0,0.0,0.0,0.0,0.0,0.0,0.0,0.0,0.0,0.0,0.0,0.0,0.0,0.0,0.0,0.0,0.0,0.0,0.0,0.0,0.0,0.0,0.0,0.0,0.0,0.0,0.0,0.0,0.0,0.0,0.0,0.0,0.0,0.0,0.0,0.0,0.0,0.0,0.0,0.0,0.0,0.0,0.0,0.0,0.0,0.0,0.0,0.0,0.0,0.0,0.0,0.0,0.0,0.0,0.0,0.0,0.0,0.0,0.0,0.0,0.0,0.0,0.0,0.0,0.0,0.0,0.0,0.0,0.0,0.0,0.0,0.0,0.0,0.0,0.0,0.0,0.0,0.0,0.0,0.0,0.0,0.0,0.0,0.0,0.0,0.0,0.0,0.0,0.0,0.0,0.0,0.0,0.0,0.0,0.0,0.0,0.0,0.0,0.0,0.0,0.0,0.0,0.0,0.0,0.0,0.0,0.0,0.0,0.0,0.0,0.0,0.0,0.0,0.0,0.0,0.0,0.0,0.0,0.0,0.0,0.0,0.0,0.0,0.0,0.0,0.0,0.0,0.0,0.0,0.0,0.0,0.0,0.0,0.0,0.0,0.0,0.0,0.0,0.0,0.0,0.0,0.0,0.0,0.0,0.0,0.0,0.0,0.0,0.0,0.0,0.0,0.0,0.0,0.0,0.0,0.0,0.0,0.0,0.0,0.0,0.0,0.0,0.0,0.0,0.0,0.0,0.0,0.0,0.0,0.0,0.0,0.0,0.0,0.0,0.0,0.0,0.0,0.0,0.0,0.0,0.0,0.0,0.0,0.0,0.0,0.0,0.0,0.0,0.0,0.0,0.0,0.0,0.0,0.0,0.0,0.0,0.0,0.0,0.0,0.0,0.0,0.0,0.0,0.0,0.0,0.0,0.0,0.0,0.0,0.0,0.0,0.0,0.0,0.0,0.0,0.0,0.0,0.0,0.0,0.0,0.0,0.0,0.0,0.0,0.0,0.0,0.0,0.0,0.0,0.0,0.0,0.0,0.0,0.0,0.0,0.0,0.0,0.0,0.0,0.0,0.0,0.0,0.0,0.0,0.0,0.0,0.0,0.0,0.0,0.0,0.0,0.0,0.0,0.0,0.0,0.0,0.0,0.0,0.0,0.0,0.0,0.0,0.0,0.0,0.0,0.0,0.0,0.0,0.0,0.0,0.0,0.0,0.0,0.0,0.0,0.0,0.0,0.0,0.0,0.0,0.0,0.0,0.0,0.0,0.0,0.0,0.0,0.0,0.0,0.0,0.0,0.0,0.0,0.0,0.0,0.0,0.0,0.0,0.0,0.0,0.0,0.0,0.0,0.0,0.0,0.0,0.0,0.0,0.0,0.0,0.0,0.0,0.0,0.0,0.0,0.0,0.0,0.0,0.0,0.0,0.0,0.0,0.0,0.0,0.0,0.0,0.0,0.0,0.0,0.0,0.0,0.0,0.0,0.0,0.0,0.0,0.0,0.0,0.0,0.0,0.0,0.0,0.0,0.0,0.0,0.0,0.0,0.0,0.0,0.0,0.0,0.0,0.0,0.0,0.0,0.0,0.0,0.0,0.0,0.0,0.0,0.0,0.0,0.0,0.0,0.0,0.0,0.0,0.0,0.0,0.0,0.0,0.0,0.0,0.0,0.0,0.0,0.0,0.0,0.0,0.0,0.0,0.0,0.0,0.0,0.0,0.0,0.0,0.0,0.0,0.0,0.0,0.0,0.0,0.0,0.0,0.0,0.0,0.0,0.0,0.0,0.0,0.0,0.0,0.0,0.0,0.0,0.0,0.0,0.0,0.0,0.0,0.0,0.0,0.0,0.0,0.0,0.0,0.0,0.0,0.0,0.0,0.0,0.0,0.0,0.0,0.0,0.0,0.0,0.0,0.0,0.0,0.0,0.0,0.0,0.0,0.0,0.0,0.0,0.0,0.0,0.0,0.0,0.0,0.0,0.0,0.0,0.0,0.0,0.0,0.0,0.0,0.0,0.0,0.0,0.0,0.0,0.0,0.0,0.0,0.0,0.0,0.0,0.0,0.0,0.0,0.0,0.0,0.0,0.0,0.0,0.0,0.0,0.0,0.0,0.0,0.0,0.0,0.0,0.0,0.0,0.0,0.0,0.0,0.0,0.0,0.0,0.0,0.0,0.0,0.0,0.0,0.0,0.0,0.0,0.0,0.0,0.0,0.0,0.0,0.0,0.0,0.0,0.0,0.0,0.0,0.0,0.0,0.0,0.0,0.0,0.0,0.0,0.0,0.0,0.0,0.0,0.0,0.0,0.0,0.0,0.0,0.0,0.0,0.0,0.0,0.0,0.0,0.0,0.0,0.0,0.0,0.0,0.0,0.0,0.0,0.0,0.0,0.0,0.0,0.0,0.0,0.0,0.0,0.0,0.0,0.0,0.0,0.0,0.0,0.0,0.0,0.0,0.0,0.0,0.0,0.0,0.0,0.0,-0.8173,0.0,0.0,0.0,0.0,0.0,0.0,0.0,0.0,0.0,0.0,0.0,0.0,0.0,0.0,0.0,0.0,0.0,0.0,0.0,0.0,0.0,0.0,0.0,0.0,0.0,0.0,0.0,0.0,0.0,0.0,0.0,0.0,0.0,0.0,0.0,0.0,0.0,0.0,0.0,0.0,0.0,0.0,0.0,0.0,0.0,0.0,0.0,0.0,0.0,0.0,0.0,0.0,0.0,0.0,0.0,0.0,0.0,0.0,0.0,0.0,0.0,0.0,0.0,0.0,0.0,0.0,0.0,0.0,0.0,0.0,0.0,0.0,0.0,0.0,0.0,0.0,0.0,0.0,0.0,0.0,0.0,0.0,0.0,0.0,0.0,0.0,0.0,0.0,0.0,0.0,0.0,0.0,0.0,0.0,0.0,0.0,0.0,0.0,0.0,0.0,0.0,0.0,0.0,0.0,0.0,0.0,0.0,0.0,0.0,0.0,-0.9761,-0.9441,-0.8706,-0.8203,-0.8029,0.0,0.0,0.0,0.0,0.0,0.0,0.0,0.0,0.0,0.0,0.0,0.0,0.0,0.0,0.0,0.0,0.0,0.0,0.0,0.0,0.0,0.0,0.0,0.0,0.0,0.0,0.0,0.0,0.0,0.0,0.0,0.0,0.0,0.0,0.0,0.0,0.0,0.0,0.0,0.0,0.0,0.0,0.0,0.0,0.0,0.0,0.0,0.0,0.0,0.0,0.0,0.0,0.0,0.0,0.0,0.0,0.0,0.0,0.0,0.0,0.0,0.0,0.0,0.0,0.0,0.0,0.0,0.0,0.0,0.0,0.0,0.0,0.0,0.0,0.0,0.0,0.0,0.0,0.0,0.0,0.0,0.0,0.0,0.0,0.0,0.0,0.0,0.0,0.0,0.0,0.0,0.0,0.0,0.0,0.0,0.0,0.0,0.0,0.0,0.0,0.0,0.0,0.0,0.0,0.0,0.0,0.0,0.0,0.0,0.0,0.0,0.0,-0.8575,-0.8132,-0.7807,0.0,0.0,0.0,0.0,0.0,0.0,0.0,0.0,0.0,0.0,0.0,0.0,0.0,0.0,0.0,0.0,0.0,0.0,0.0,0.0,0.0,0.0,0.0,0.0,0.0,0.0,0.0,0.0,0.0,0.0,0.0,0.0,0.0,0.0,0.0,0.0,0.0,0.0,0.0,0.0,0.0,0.0,0.0,0.0,0.0,0.0,0.0,0.0,0.0,0.0,0.0,0.0,0.0,0.0,0.0,0.0,0.0,0.0,0.0,0.0,0.0,0.0,0.0,0.0,0.0,0.0,0.0,0.0,0.0,0.0,0.0,0.0,0.0,0.0,0.0,0.0,0.0,0.0,0.0,0.0,0.0,0.0,0.0,0.0,0.0,0.0,0.0,0.0,0.0,0.0,0.0,0.0,0.0,0.0,0.0,0.0,0.0,0.0,0.0,0.0,0.0,0.0,0.0,0.0,0.0,0.0,0.0,0.0,0.0,0.0,-0.865,-0.9082,-0.8568,0.0,-0.7826,0.0,0.0,0.0,0.0,0.0,0.0,0.0,0.0,0.0,0.0,0.0,0.0,0.0,0.0,0.0,0.0,0.0,0.0,0.0,0.0,0.0,0.0,0.0,0.0,0.0,0.0,0.0,0.0,0.0,0.0,0.0,0.0,0.0,0.0,0.0,0.0,0.0,0.0,0.0,0.0,0.0,0.0,0.0,0.0,0.0,0.0,0.0,0.0,0.0,0.0,0.0,0.0,0.0,0.0,0.0,0.0,0.0,0.0,0.0,0.0,0.0,0.0,0.0,0.0,0.0,0.0,0.0,0.0,0.0,0.0,0.0,0.0,0.0,0.0,0.0,0.0,0.0,0.0,0.0,0.0,0.0,0.0,0.0,0.0,0.0,0.0,0.0,0.0,0.0,0.0,0.0,0.0,0.0,0.0,0.0,0.0,0.0,0.0,0.0,0.0,0.0,0.0,0.0,0.0,0.0,0.0,0.0,0.0,0.0,0.0,-0.8719,-0.8619,-0.8204,-0.7953,0.0,0.0,0.0,0.0,0.0,0.0,0.0,0.0,0.0,0.0,0.0,0.0,0.0,0.0,0.0,0.0,0.0,0.0,0.0,0.0,0.0,0.0,0.0,0.0,0.0,0.0,0.0,0.0,0.0,0.0,0.0,0.0,0.0,0.0,0.0,0.0,0.0,0.0,0.0,0.0,0.0,0.0,0.0,0.0,0.0,0.0,0.0,0.0,0.0,0.0,0.0,0.0,0.0,0.0,0.0,0.0,0.0,0.0,0.0,0.0,0.0,0.0,0.0,0.0,0.0,0.0,0.0,0.0,0.0,0.0,0.0,0.0,0.0,0.0,0.0,0.0,0.0,0.0,0.0,0.0,0.0,0.0,0.0,0.0,0.0,0.0,0.0,0.0,0.0,0.0,0.0,0.0,0.0,0.0,0.0,0.0,0.0,0.0,0.0,0.0,0.0,0.0,0.0,0.0,0.0,0.0,0.0,0.0,0.0,0.0,-0.86,-0.8518,-0.8305,-0.8079,-0.7894,-0.7807,0.0,0.0,0.0,0.0,0.0,0.0,0.0,0.0,0.0,0.0,0.0,0.0,0.0,0.0,0.0,0.0,0.0,0.0,0.0,0.0,0.0,0.0,0.0,0.0,0.0,0.0,0.0,0.0,0.0,0.0,0.0,0.0,0.0,0.0,0.0,0.0,0.0,0.0,0.0,0.0,0.0,0.0,0.0,0.0,0.0,0.0,0.0,0.0,0.0,0.0,0.0,0.0,0.0,0.0,0.0,0.0,0.0,0.0,0.0,0.0,0.0,0.0,0.0,0.0,0.0,0.0,0.0,0.0,0.0,0.0,0.0,0.0,0.0,0.0,0.0,0.0,0.0,0.0,0.0,0.0,0.0,0.0,0.0,0.0,0.0,0.0,0.0,0.0,0.0,0.0,0.0,0.0,0.0,0.0,0.0,0.0,0.0,0.0,0.0,0.0,0.0,0.0,0.0,0.0,0.0,0.0,0.0,0.0,-0.8956,-0.8041,-0.7731,-0.8305,-0.8273,-0.8121,0.0,0.0,0.0,0.0,0.0,0.0,0.0,0.0,0.0,0.0,0.0,0.0,0.0,0.0,0.0,0.0,0.0,0.0,0.0,0.0,0.0,0.0,0.0,0.0,0.0,0.0,0.0,0.0,0.0,0.0,0.0,0.0,0.0,0.0,0.0,0.0,0.0,0.0,0.0,0.0,0.0,0.0,0.0,0.0,0.0,0.0,0.0,0.0,0.0,0.0,0.0,0.0,0.0,0.0,0.0,0.0,0.0,0.0,0.0,0.0,0.0,0.0,0.0,0.0,0.0,0.0,0.0,0.0,0.0,0.0,0.0,0.0,0.0,0.0,0.0,0.0,0.0,0.0,0.0,0.0,0.0,0.0,0.0,0.0,0.0,0.0,0.0,0.0,0.0,0.0,0.0,0.0,0.0,0.0,0.0,0.0,0.0,0.0,0.0,0.0,0.0,0.0,0.0,0.0,0.0,0.0,0.0,0.0,0.0,-0.7501,-0.7432,-0.7999,-0.9227,-0.8289,-0.7842,0.0,0.0,0.0,0.0,0.0,0.0,0.0,0.0,0.0,0.0,0.0,0.0,0.0,0.0,0.0,0.0,0.0,0.0,0.0,0.0,0.0,0.0,0.0,0.0,0.0,0.0,0.0,0.0,0.0,0.0,0.0,0.0,0.0,0.0,0.0,0.0,0.0,0.0,0.0,0.0,0.0,0.0,0.0,0.0,0.0,0.0,0.0,0.0,0.0,0.0,0.0,0.0,0.0,0.0,0.0,0.0,0.0,0.0,0.0,0.0,0.0,0.0,0.0,0.0,0.0,0.0,0.0,0.0,0.0,0.0,0.0,0.0,0.0,0.0,0.0,0.0,0.0,0.0,0.0,0.0,0.0,0.0,0.0,0.0,0.0,0.0,0.0,0.0,0.0,0.0,0.0,0.0,0.0,0.0,0.0,0.0,0.0,0.0,0.0,0.0,0.0,0.0,0.0,0.0,0.0,0.0,0.0,0.0,0.0,-0.7156,0.0,-0.8446,-0.9379,-0.8372,-0.7808,0.0,0.0,0.0,0.0,0.0,0.0,0.0,0.0,0.0,0.0,0.0,0.0,0.0,0.0,0.0,0.0,0.0,0.0,0.0,0.0,0.0,0.0,0.0,0.0,0.0,0.0,0.0,0.0,0.0,0.0,0.0,0.0,0.0,0.0,0.0,0.0,0.0,0.0,0.0,0.0,0.0,0.0,0.0,0.0,0.0,0.0,0.0,0.0,0.0,0.0,0.0,0.0,0.0,0.0,0.0,0.0,0.0,0.0,0.0,0.0,0.0,0.0,0.0,0.0,0.0,0.0,0.0,0.0,0.0,0.0,0.0,0.0,0.0,0.0,0.0,0.0,0.0,0.0,0.0,0.0,0.0,0.0,0.0,0.0,0.0,0.0,0.0,0.0,0.0,0.0,0.0,0.0,0.0,0.0,0.0,0.0,0.0,0.0,0.0,0.0,0.0,0.0,0.0,0.0,0.0,0.0,0.0,0.0,-0.7156,-0.8255,-0.8763,-0.8924,-0.8632,-0.8594,-0.8063,0.0,0.0,0.0,0.0,0.0,0.0,0.0,0.0,0.0,0.0,0.0,0.0,0.0,0.0,0.0,0.0,0.0,0.0,0.0,0.0,0.0,0.0,0.0,0.0,0.0,0.0,0.0,0.0,0.0,0.0,0.0,0.0,0.0,0.0,0.0,0.0,0.0,0.0,0.0,0.0,0.0,0.0,0.0,0.0,0.0,0.0,0.0,0.0,0.0,0.0,0.0,0.0,0.0,0.0,0.0,0.0,0.0,0.0,0.0,0.0,0.0,0.0,0.0,0.0,0.0,0.0,0.0,0.0,0.0,0.0,0.0,0.0,0.0,0.0,0.0,0.0,0.0,0.0,0.0,0.0,0.0,0.0,0.0,0.0,0.0,0.0,0.0,0.0,0.0,0.0,0.0,0.0,0.0,0.0,0.0,0.0,0.0,0.0,0.0,0.0,0.0,0.0,0.0,0.0,0.0,0.0,0.0,0.0,0.0,-0.8264,-0.8418,-0.8928,-0.9741,-0.886,-0.8354,0.0,0.0,0.0,0.0,0.0,0.0,0.0,0.0,0.0,0.0,0.0,0.0,0.0,0.0,0.0,0.0,0.0,0.0,0.0,0.0,0.0,0.0,0.0,0.0,0.0,0.0,0.0,0.0,0.0,0.0,0.0,0.0,0.0,0.0,0.0,0.0,0.0,0.0,0.0,0.0,0.0,0.0,0.0,0.0,0.0,0.0,0.0,0.0,0.0,0.0,0.0,0.0,0.0,0.0,0.0,0.0,0.0,0.0,0.0,0.0,0.0,0.0,0.0,0.0,0.0,0.0,0.0,0.0,0.0,0.0,0.0,0.0,0.0,0.0,0.0,0.0,0.0,0.0,0.0,0.0,0.0,0.0,0.0,0.0,0.0,0.0,0.0,0.0,0.0,0.0,0.0,0.0,0.0,0.0,0.0,0.0,0.0,0.0,0.0,0.0,0.0,0.0,0.0,0.0,0.0,0.0,0.0,0.0,0.0,-0.8584,-0.8642,-0.9158,-1.0171,-0.9302,-0.8855,-0.8861,0.0,0.0,0.0,0.0,0.0,0.0,0.0,0.0,0.0,0.0,0.0,0.0,0.0,0.0,0.0,0.0,0.0,0.0,0.0,0.0,0.0,0.0,0.0,0.0,0.0,0.0,0.0,0.0,0.0,0.0,0.0,0.0,0.0,0.0,0.0,0.0,0.0,0.0,0.0,0.0,0.0,0.0,0.0,0.0,0.0,0.0,0.0,0.0,0.0,0.0,0.0,0.0,0.0,0.0,0.0,0.0,0.0,0.0,0.0,0.0,0.0,0.0,0.0,0.0,0.0,0.0,0.0,0.0,0.0,0.0,0.0,0.0,0.0,0.0,0.0,0.0,0.0,0.0,0.0,0.0,0.0,0.0,0.0,0.0,0.0,0.0,0.0,0.0,0.0,0.0,0.0,0.0,0.0,0.0,0.0,0.0,0.0,0.0,0.0,0.0,0.0,0.0,0.0,0.0,0.0,0.0,0.0,0.0,-0.9168,-0.935,-0.9598,-0.9952,-0.9928,-0.9521,0.0,0.0,0.0,0.0,0.0,0.0,0.0,0.0,0.0,0.0,0.0,0.0,0.0,0.0,0.0,0.0,0.0,0.0,0.0,0.0,0.0,0.0,0.0,0.0,0.0,0.0,0.0,0.0,0.0,0.0,0.0,0.0,0.0,0.0,0.0,0.0,0.0,0.0,0.0,0.0,0.0,0.0,0.0,0.0,0.0,0.0,0.0,0.0,0.0,0.0,0.0,0.0,0.0,0.0,0.0,0.0,0.0,0.0,0.0,0.0,0.0,0.0,0.0,0.0,0.0,0.0,0.0,0.0,0.0,0.0,0.0,0.0,0.0,0.0,0.0,0.0,0.0,0.0,0.0,0.0,0.0,0.0,0.0,0.0,0.0,0.0,0.0,0.0,0.0,0.0,0.0,0.0,0.0,0.0,0.0,0.0,0.0,0.0,0.0,0.0,0.0,0.0,0.0,0.0,0.0,0.0,0.0,0.0,0.0,-1.0034,-1.002,-1.0205,-1.0615,-1.0397,-1.034,0.0,0.0,0.0,0.0,0.0,0.0,0.0,0.0,0.0,0.0,0.0,0.0,0.0,0.0,0.0,0.0,0.0,0.0,0.0,0.0,0.0,0.0,0.0,0.0,0.0,0.0,0.0,0.0,0.0,0.0,0.0,0.0,0.0,0.0,0.0,0.0,0.0,0.0,0.0,0.0,0.0,0.0,0.0,0.0,0.0,0.0,0.0,0.0,0.0,0.0,0.0,0.0,0.0,0.0,0.0,0.0,0.0,0.0,0.0,0.0,0.0,0.0,0.0,0.0,0.0,0.0,0.0,0.0,0.0,0.0,0.0,0.0,0.0,0.0,0.0,0.0,0.0,0.0,0.0,0.0,0.0,0.0,0.0,0.0,0.0,0.0,0.0,0.0,0.0,0.0,0.0,0.0,0.0,0.0,0.0,0.0,0.0,0.0,0.0,0.0,0.0,0.0,0.0,0.0,0.0,0.0,0.0,0.0,-1.0351,-1.0987,-1.0375,-1.0366,-1.1048,-1.087,-1.0893,0.0,0.0,0.0,0.0,0.0,0.0,0.0,0.0,0.0,0.0,0.0,0.0,0.0,0.0,0.0,0.0,0.0,0.0,0.0,0.0,0.0,0.0,0.0,0.0,0.0,0.0,0.0,0.0,0.0,0.0,0.0,0.0,0.0,0.0,0.0,0.0,0.0,0.0,0.0,0.0,0.0,0.0,0.0,0.0,0.0,0.0,0.0,0.0,0.0,0.0,0.0,0.0,0.0,0.0,0.0,0.0,0.0,0.0,0.0,0.0,0.0,0.0,0.0,0.0,0.0,0.0,0.0,0.0,0.0,0.0,0.0,0.0,0.0,0.0,0.0,0.0,0.0,0.0,0.0,0.0,0.0,0.0,0.0,0.0,0.0,0.0,0.0,0.0,0.0,0.0,0.0,0.0,0.0,0.0,0.0,0.0,0.0,0.0,0.0,0.0,0.0,0.0,0.0,0.0,0.0,0.0,0.0,0.0,-1.0965,-1.1908,-1.0663,-1.0434,-1.125,-1.1267,-1.1305,0.0,0.0,0.0,0.0,0.0,0.0,0.0,0.0,0.0,0.0,0.0,0.0,0.0,0.0,0.0,0.0,0.0,0.0,0.0,0.0,0.0,0.0,0.0,0.0,0.0,0.0,0.0,0.0,0.0,0.0,0.0,0.0,0.0,0.0,0.0,0.0,0.0,0.0,0.0,0.0,0.0,0.0,0.0,0.0,0.0,0.0,0.0,0.0,0.0,0.0,0.0,0.0,0.0,0.0,0.0,0.0,0.0,0.0,0.0,0.0,0.0,0.0,0.0,0.0,0.0,0.0,0.0,0.0,0.0,0.0,0.0,0.0,0.0,0.0,0.0,0.0,0.0,0.0,0.0,0.0,0.0,0.0,0.0,0.0,0.0,0.0,0.0,0.0,0.0,0.0,0.0,0.0,0.0,0.0,0.0,0.0,0.0,0.0,0.0,0.0,0.0,0.0,0.0,0.0,0.0,0.0,0.0,0.0,-1.1918,-1.2188,-1.161,-1.1303,-1.1287,-1.1087,-1.1402,0.0,0.0,0.0,0.0,0.0,0.0,0.0,0.0,0.0,0.0,0.0,0.0,0.0,0.0,0.0,0.0,0.0,0.0,0.0,0.0,0.0,0.0,0.0,0.0,0.0,0.0,0.0,0.0,0.0,0.0,0.0,0.0,0.0,0.0,0.0,0.0,0.0,0.0,0.0,0.0,0.0,0.0,0.0,0.0,0.0,0.0,0.0,0.0,-0.9237,0.0,0.0,0.0,0.0,0.0,0.0,0.0,0.0,0.0,0.0,0.0,0.0,0.0,0.0,0.0,0.0,0.0,0.0,0.0,0.0,0.0,0.0,0.0,0.0,0.0,0.0,0.0,0.0,0.0,0.0,0.0,0.0,0.0,0.0,0.0,0.0,0.0,0.0,0.0,0.0,0.0,0.0,0.0,0.0,0.0,0.0,0.0,0.0,0.0,0.0,0.0,0.0,0.0,0.0,0.0,0.0,0.0,0.0,0.0,-1.2185,-1.2511,-1.1867,-1.1537,-1.1534,-1.1386,-1.1694,0.0,0.0,0.0,0.0,0.0,0.0,0.0,0.0,0.0,0.0,0.0,0.0,0.0,0.0,0.0,0.0,0.0,0.0,0.0,0.0,0.0,0.0,0.0,0.0,0.0,0.0,0.0,0.0,0.0,0.0,0.0,0.0,0.0,0.0,0.0,0.0,0.0,0.0,0.0,0.0,0.0,0.0,0.0,0.0,0.0,0.0,0.0,0.0,0.0,0.0,0.0,0.0,0.0,0.0,0.0,0.0,0.0,0.0,0.0,0.0,0.0,0.0,0.0,0.0,0.0,0.0,0.0,0.0,0.0,0.0,0.0,0.0,0.0,0.0,0.0,0.0,0.0,0.0,0.0,0.0,0.0,0.0,0.0,0.0,0.0,0.0,0.0,0.0,0.0,0.0,0.0,0.0,0.0,0.0,0.0,0.0,0.0,0.0,0.0,0.0,0.0,0.0,0.0,0.0,0.0,0.0,0.0,-1.163,-1.2067,-1.2725,-1.1872,-1.1512,-1.1797,-1.1815,-1.2084,-1.2554,0.0,0.0,0.0,0.0,0.0,0.0,0.0,0.0,0.0,0.0,0.0,0.0,0.0,0.0,0.0,0.0,0.0,0.0,0.0,0.0,0.0,0.0,0.0,0.0,0.0,0.0,0.0,0.0,0.0,0.0,0.0,0.0,0.0,0.0,0.0,0.0,0.0,0.0,-0.8769,-0.8932,0.0,0.0,0.0,0.0,0.0,0.0,0.0,0.0,-0.9285,0.0,0.0,0.0,0.0,0.0,0.0,0.0,0.0,0.0,0.0,0.0,0.0,0.0,0.0,0.0,0.0,0.0,0.0,0.0,0.0,0.0,0.0,0.0,0.0,0.0,0.0,0.0,0.0,0.0,0.0,0.0,0.0,0.0,0.0,0.0,0.0,0.0,0.0,0.0,0.0,0.0,0.0,0.0,0.0,0.0,0.0,0.0,0.0,0.0,0.0,0.0,0.0,0.0,0.0,0.0,0.0,-1.2098,-1.1645,-1.1842,-1.2778,-1.2089,-1.1725,-1.1797,-1.2212,-1.2497,-1.2547,0.0,0.0,0.0,0.0,0.0,0.0,0.0,0.0,0.0,0.0,0.0,0.0,0.0,0.0,0.0,0.0,0.0,0.0,0.0,0.0,0.0,0.0,0.0,0.0,0.0,0.0,0.0,0.0,0.0,0.0,0.0,0.0,0.0,0.0,0.0,0.0,0.0,0.0,0.0,-0.8586,-0.8881,0.0,0.0,0.0,0.0,0.0,0.0,0.0,0.0,-0.9967,0.0,0.0,0.0,0.0,0.0,0.0,0.0,0.0,0.0,0.0,0.0,0.0,0.0,0.0,0.0,0.0,0.0,0.0,0.0,0.0,0.0,0.0,0.0,0.0,0.0,0.0,0.0,0.0,0.0,0.0,0.0,0.0,0.0,0.0,0.0,0.0,0.0,0.0,0.0,0.0,0.0,0.0,0.0,0.0,0.0,0.0,0.0,0.0,0.0,0.0,0.0,0.0,0.0,0.0,0.0,-1.1059,-1.1408,-1.1807,-1.2246,-1.2106,-1.1999,-1.2018,-1.2154,-1.2238,0.0,0.0,0.0,0.0,0.0,0.0,0.0,0.0,0.0,0.0,0.0,0.0,0.0,0.0,0.0,0.0,0.0,0.0,0.0,0.0,0.0,0.0,0.0,0.0,0.0,0.0,0.0,0.0,0.0,0.0,0.0,0.0,0.0,0.0,0.0,0.0,0.0,0.0,0.0,0.0,-0.865,-0.901,-0.8864,0.0,0.0,0.0,0.0,0.0,0.0,-0.9733,-1.0135,0.0,0.0,0.0,0.0,0.0,0.0,0.0,0.0,0.0,0.0,0.0,0.0,0.0,0.0,0.0,0.0,0.0,0.0,0.0,0.0,0.0,0.0,0.0,0.0,0.0,0.0,0.0,0.0,0.0,0.0,0.0,0.0,0.0,0.0,0.0,0.0,0.0,0.0,0.0,0.0,0.0,0.0,0.0,0.0,0.0,0.0,0.0,0.0,0.0,0.0,0.0,0.0,0.0,0.0,0.0,-1.0108,-1.1111,-1.1696,-1.1797,-1.2052,-1.2208,-1.2215,-1.215,-1.205,0.0,0.0,0.0,0.0,0.0,0.0,0.0,0.0,0.0,0.0,0.0,0.0,0.0,0.0,0.0,0.0,0.0,0.0,0.0,0.0,0.0,0.0,0.0,0.0,0.0,0.0,0.0,0.0,0.0,0.0,0.0,0.0,0.0,0.0,0.0,0.0,0.0,0.0,0.0,0.0,0.0,-0.9152,-0.8758,-0.9421,0.0,0.0,0.0,0.0,-1.0136,-1.032,0.0,0.0,0.0,0.0,0.0,0.0,0.0,0.0,0.0,0.0,0.0,0.0,0.0,0.0,0.0,0.0,0.0,0.0,0.0,0.0,0.0,0.0,0.0,0.0,0.0,0.0,0.0,0.0,0.0,0.0,0.0,0.0,0.0,0.0,0.0,0.0,0.0,0.0,0.0,0.0,0.0,0.0,0.0,0.0,0.0,0.0,0.0,0.0,0.0,0.0,0.0,0.0,0.0,0.0,0.0,0.0,-1.0314,-1.0776,-1.1263,-1.1783,-1.2052,-1.221,-1.2215,-1.2639,-1.2555,0.0,0.0,0.0,0.0,0.0,0.0,0.0,0.0,0.0,0.0,0.0,0.0,0.0,0.0,0.0,0.0,0.0,0.0,0.0,0.0,0.0,0.0,0.0,0.0,0.0,0.0,0.0,0.0,0.0,0.0,0.0,0.0,0.0,0.0,0.0,0.0,0.0,0.0,0.0,0.0,0.0,-0.9158,-0.8753,-0.9297,-0.9953,0.0,0.0,-1.1186,-1.1949,-1.2192,0.0,0.0,0.0,0.0,0.0,0.0,0.0,0.0,0.0,0.0,0.0,0.0,0.0,0.0,0.0,0.0,0.0,0.0,0.0,0.0,0.0,0.0,0.0,0.0,0.0,0.0,0.0,0.0,0.0,0.0,0.0,0.0,0.0,0.0,0.0,0.0,0.0,0.0,0.0,0.0,0.0,0.0,0.0,0.0,0.0,0.0,0.0,0.0,0.0,0.0,0.0,0.0,0.0,0.0,0.0,-0.9528,-0.9893,-1.0886,-1.1608,-1.2003,-1.2284,-1.2509,-1.2638,-1.2637,-1.2274,0.0,0.0,0.0,0.0,0.0,0.0,0.0,0.0,0.0,0.0,0.0,0.0,0.0,0.0,0.0,0.0,0.0,0.0,0.0,0.0,0.0,0.0,0.0,0.0,0.0,0.0,0.0,0.0,0.0,0.0,0.0,0.0,0.0,0.0,0.0,0.0,0.0,0.0,0.0,0.0,0.0,0.0,-0.8908,-0.9726,0.0,0.0,0.0,-1.1995,-1.2446,0.0,0.0,0.0,0.0,0.0,0.0,0.0,0.0,0.0,0.0,0.0,0.0,0.0,0.0,0.0,0.0,0.0,0.0,0.0,0.0,0.0,0.0,0.0,0.0,0.0,0.0,0.0,0.0,0.0,0.0,0.0,0.0,0.0,0.0,0.0,0.0,0.0,0.0,0.0,0.0,0.0,0.0,0.0,0.0,0.0,0.0,0.0,0.0,0.0,0.0,0.0,0.0,0.0,0.0,0.0,0.0,0.0,-0.9614,-1.098,-1.1847,-1.2197,-1.2471,-1.273,-1.299,-1.2748,0.0,0.0,0.0,0.0,0.0,0.0,0.0,0.0,0.0,0.0,0.0,0.0,0.0,0.0,0.0,0.0,0.0,0.0,0.0,0.0,0.0,0.0,0.0,0.0,0.0,0.0,0.0,-0.8911,0.0,0.0,0.0,0.0,0.0,0.0,0.0,0.0,0.0,0.0,0.0,0.0,0.0,0.0,-0.9729,-0.9421,-1.032,-1.1268,0.0,0.0,-1.2818,-1.316,-1.3287,-1.322,0.0,0.0,0.0,0.0,0.0,0.0,0.0,0.0,0.0,0.0,0.0,0.0,0.0,0.0,0.0,0.0,0.0,0.0,0.0,0.0,0.0,0.0,0.0,0.0,0.0,0.0,0.0,0.0,0.0,0.0,0.0,0.0,0.0,0.0,0.0,0.0,0.0,0.0,0.0,0.0,0.0,0.0,0.0,0.0,0.0,0.0,0.0,0.0,0.0,0.0,0.0,0.0,0.0,0.0,-0.9581,-0.9891,-1.0834,-1.1637,-1.219,-1.2463,-1.2714,-1.2987,-1.3327,-1.2808,0.0,0.0,0.0,0.0,0.0,0.0,0.0,0.0,0.0,0.0,0.0,0.0,0.0,0.0,0.0,0.0,0.0,0.0,0.0,0.0,0.0,0.0,0.0,0.0,0.0,0.0,0.0,0.0,0.0,0.0,0.0,0.0,0.0,0.0,0.0,0.0,0.0,0.0,0.0,0.0,0.0,-1.0725,-1.0433,-1.1002,-1.1817,0.0,-1.3253,-1.3823,-1.47,-1.4992,-1.4577,-1.2969,0.0,0.0,0.0,0.0,0.0,0.0,0.0,0.0,0.0,0.0,0.0,0.0,0.0,0.0,0.0,0.0,0.0,0.0,0.0,0.0,0.0,0.0,0.0,0.0,0.0,0.0,0.0,0.0,0.0,0.0,0.0,0.0,0.0,0.0,0.0,0.0,0.0,0.0,0.0,0.0,0.0,0.0,0.0,0.0,0.0,0.0,0.0,0.0,0.0,0.0,0.0,0.0,0.0,-1.0064,-1.0466,-1.1548,-1.222,-1.2443,-1.2703,-1.3008,-1.337,-1.3514,-1.2985,0.0,0.0,0.0,0.0,0.0,0.0,0.0,0.0,0.0,0.0,0.0,0.0,0.0,0.0,0.0,0.0,0.0,0.0,0.0,0.0,0.0,0.0,0.0,0.0,0.0,0.0,0.0,0.0,-0.9227,-0.9358,-0.9349,0.0,0.0,0.0,0.0,0.0,0.0,0.0,0.0,0.0,0.0,-1.1639,-1.1611,-1.199,0.0,0.0,-1.412,-1.4576,-1.5097,-1.5245,-1.4898,-1.369,-1.3492,0.0,0.0,0.0,0.0,0.0,0.0,0.0,0.0,0.0,0.0,0.0,0.0,0.0,0.0,0.0,0.0,0.0,0.0,0.0,0.0,0.0,0.0,0.0,0.0,0.0,0.0,0.0,0.0,0.0,0.0,0.0,0.0,0.0,0.0,0.0,0.0,0.0,0.0,0.0,0.0,0.0,0.0,0.0,0.0,0.0,0.0,0.0,0.0,0.0,0.0,0.0,0.0,-1.0581,-1.1028,-1.2113,-1.2746,-1.2801,-1.299,-1.3278,-1.367,-1.3745,-1.3271,0.0,0.0,0.0,0.0,0.0,0.0,0.0,0.0,0.0,0.0,0.0,0.0,0.0,0.0,0.0,0.0,0.0,0.0,0.0,0.0,0.0,0.0,0.0,0.0,0.0,0.0,0.0,0.0,-0.934,-0.9465,-0.9551,0.0,0.0,0.0,0.0,0.0,0.0,0.0,0.0,0.0,0.0,-1.2897,-1.2826,-1.3061,-1.3485,-1.4237,-1.4682,-1.5019,-1.5229,-1.5503,-1.5266,-1.4157,0.0,0.0,0.0,0.0,0.0,0.0,0.0,0.0,0.0,0.0,0.0,0.0,0.0,0.0,0.0,0.0,0.0,0.0,0.0,0.0,0.0,0.0,0.0,0.0,0.0,0.0,0.0,-0.8628,0.0,0.0,-0.7817,0.0,0.0,0.0,0.0,0.0,0.0,0.0,0.0,0.0,0.0,0.0,0.0,0.0,0.0,0.0,0.0,0.0,0.0,0.0,0.0,0.0,0.0,-1.1072,-1.1604,-1.249,-1.3039,-1.3295,-1.3303,-1.3491,-1.3867,-1.4078,-1.381,-1.3001,0.0,0.0,0.0,0.0,0.0,0.0,0.0,0.0,0.0,0.0,0.0,0.0,0.0,0.0,0.0,0.0,0.0,0.0,0.0,0.0,0.0,0.0,0.0,0.0,0.0,0.0,-0.9303,-0.9312,-0.9412,0.0,0.0,0.0,0.0,0.0,0.0,0.0,0.0,0.0,-1.2796,-1.3941,-1.4623,-1.4054,-1.4096,-1.4323,-1.468,-1.4891,-1.509,-1.5245,-1.5926,-1.5897,0.0,0.0,0.0,0.0,0.0,0.0,0.0,0.0,0.0,0.0,0.0,0.0,0.0,0.0,0.0,0.0,0.0,0.0,0.0,0.0,0.0,0.0,0.0,0.0,0.0,0.0,0.0,-1.146,-1.0834,0.0,0.0,0.0,0.0,0.0,0.0,0.0,0.0,0.0,0.0,0.0,-1.3444,-1.3565,0.0,0.0,0.0,0.0,0.0,0.0,0.0,0.0,0.0,0.0,0.0,0.0,-1.2534,-1.3412,-1.3617,-1.3878,-1.427,-1.3898,-1.3833,-1.4087,-1.4153,-1.3899,-1.3232,0.0,0.0,0.0,0.0,0.0,0.0,0.0,0.0,0.0,0.0,0.0,0.0,0.0,0.0,0.0,0.0,0.0,0.0,0.0,0.0,0.0,0.0,0.0,0.0,0.0,-0.941,0.0,0.0,0.0,0.0,0.0,0.0,0.0,0.0,0.0,0.0,0.0,-1.5013,-1.4916,-1.539,-1.5692,-1.555,-1.5531,-1.579,0.0,0.0,0.0,0.0,0.0,0.0,0.0,0.0,0.0,0.0,0.0,0.0,0.0,0.0,-1.5347,-1.2945,-1.2428,-1.2541,-1.3128,0.0,0.0,0.0,0.0,0.0,0.0,0.0,0.0,0.0,0.0,0.0,0.0,0.0,0.0,-1.3284,-1.2469,-1.2026,0.0,0.0,0.0,0.0,0.0,0.0,0.0,0.0,-1.3684,-1.4249,-1.4669,-1.513,-1.5326,0.0,-1.5942,-1.4969,0.0,0.0,0.0,0.0,0.0,0.0,0.0,0.0,-1.4004,-1.5162,-1.4873,-1.4838,-1.5088,-1.445,-1.4178,-1.4362,-1.4332,-1.3992,-1.3317,-1.2297,-1.1599,0.0,0.0,0.0,0.0,0.0,0.0,0.0,0.0,0.0,0.0,0.0,0.0,0.0,0.0,0.0,0.0,0.0,0.0,0.0,0.0,0.0,0.0,0.0,-0.9611,0.0,0.0,0.0,0.0,0.0,0.0,0.0,0.0,0.0,-1.4513,-1.5806,-1.6715,-1.6638,-1.699,-1.7159,-1.6889,0.0,0.0,0.0,0.0,0.0,0.0,0.0,-1.7269,-1.7509,-1.7614,-1.7744,-1.8126,-1.8463,-1.849,-1.7955,0.0,0.0,-1.4849,-1.4302,-1.4414,-1.4954,-1.4978,-1.5261,-1.6328,-1.6091,-1.5839,0.0,0.0,0.0,0.0,0.0,0.0,0.0,0.0,-1.5543,-1.4911,0.0,-1.365,0.0,0.0,0.0,0.0,-1.4072,-1.4268,0.0,0.0,-1.5556,-1.5979,-1.5466,-1.667,-1.6925,-1.6386,-1.7569,-1.7505,-1.6223,-1.4447,0.0,0.0,0.0,0.0,0.0,0.0,-1.5489,-1.6789,-1.6188,-1.5865,-1.588,-1.4956,-1.4543,-1.4697,-1.456,-1.4141,-1.339,-1.3289,-1.2922,-1.215,-1.1361,0.0,0.0,0.0,0.0,0.0,0.0,0.0,0.0,0.0,0.0,0.0,0.0,0.0,0.0,0.0,0.0,0.0,0.0,0.0,0.0,-0.9578,0.0,0.0,0.0,0.0,0.0,0.0,0.0,0.0,0.0,0.0,-1.5161,-1.7121,-1.8495,-1.7911,0.0,0.0,0.0,0.0,-1.7753,-1.7811,-1.7782,-1.7749,-1.7629,-1.8361,-1.8591,-1.7592,0.0,0.0,-1.9238,-1.9742,-1.973,-1.8195,-1.8594,-1.8877,-1.8077,-1.7618,-1.7542,-1.7552,-1.7414,-1.7425,-1.7482,-1.7528,-1.749,-2.1007,0.0,0.0,0.0,0.0,-1.897,-1.9007,-1.9252,-1.8866,-1.8158,-1.7252,-1.7364,0.0,0.0,0.0,0.0,0.0,0.0,-1.6349,-1.6697,-1.6691,-1.6703,-1.6751,-1.7117,-1.7415,-1.765,-1.8217,-1.8431,-1.8294,-1.7424,-1.6205,-1.4781,0.0,0.0,0.0,0.0,-1.7273,-1.8063,-1.7443,-1.7346,-1.786,-1.6384,-1.5319,-1.4716,-1.4657,-1.4501,-1.416,-1.3611,-1.3188,-1.2959,-1.2187,0.0,0.0,0.0,0.0,0.0,0.0,0.0,0.0,0.0,0.0,0.0,0.0,0.0,0.0,0.0,0.0,0.0,0.0,0.0,-0.9564,-1.0257,-1.0952,0.0,0.0,0.0,0.0,0.0,0.0,0.0,0.0,0.0,-1.7965,-1.8489,-1.8895,0.0,0.0,-1.9107,-1.8861,-1.8741,-1.8895,-1.9475,-1.9441,0.0,-1.9297,-1.8916,-1.8772,-1.9153,-1.9717,-1.9945,-1.9531,-1.9767,-1.9869,-1.9356,-1.9624,-1.9792,-1.9483,-1.8441,-1.7891,-1.8288,-1.8384,-1.8545,-1.9089,-1.9257,-1.9249,-2.2223,-2.1086,-2.1272,-2.1312,-2.1242,-2.1094,-2.1197,-2.1413,-2.1141,-2.0521,-1.969,-1.9748,-1.9306,-1.8478,-1.8821,0.0,0.0,0.0,-1.8223,-1.8711,-1.7954,-1.77,-1.7893,-1.7848,-1.8014,-1.8362,-1.868,-1.9001,-1.9289,-1.9158,-1.8538,-1.7462,0.0,0.0,-1.7223,-1.7927,-1.863,-1.9275,-1.8573,-1.8391,-1.8798,-1.7349,-1.6129,-1.5202,-1.513,-1.4912,-1.4517,-1.4031,-1.3785,-1.3756,-1.2994,-1.2363,0.0,0.0,0.0,0.0,0.0,0.0,0.0,0.0,0.0,0.0,0.0,-1.0073,-0.9589,0.0,0.0,0.0,-0.9785,-1.0154,-1.0717,-1.1539,0.0,0.0,0.0,0.0,0.0,0.0,0.0,-1.7334,-1.8641,-1.954,-1.9662,-1.9609,-1.959,-1.9695,-1.9667,-1.9638,-1.9643,0.0,-1.9759,-2.0227,-2.0197,-2.0097,-2.0003,-1.9495,-1.9283,-1.9807,-1.988,-1.9813,-1.971,-1.979,-1.9851,-1.9871,-1.9973,-2.002,-1.9996,-1.9153,-1.8677,-1.9255,-1.9351,-1.9525,-2.0031,-2.0111,-2.0116,-2.2704,-2.272,-2.2655,-2.2867,-2.3188,-2.2866,-2.2548,-2.2286,-2.2598,-2.2148,-2.1179,-2.1233,-2.1251,-2.1242,-2.0894,0.0,-2.117,-2.0173,-1.9866,-2.0133,-1.9343,-1.8973,-1.8962,-1.8793,-1.8757,-1.8866,-1.917,-1.9429,-1.969,-2.0112,-2.0412,-2.0552,-1.8955,-1.8527,-1.9257,-1.9357,-1.9697,-2.0277,-1.9561,-1.9126,-1.8992,-1.7983,-1.6979,-1.6067,-1.591,-1.5435,-1.4648,-1.4609,-1.4561,-1.4469,-1.3793,-1.3372,-1.3263,0.0,0.0,0.0,0.0,0.0,0.0,0.0,0.0,0.0,0.0,0.0,0.0,0.0,0.0,0.0,-1.0828,0.0,-1.2392,-1.3138,0.0,0.0,0.0,-1.6116,-1.645,-1.7858,-1.8858,-1.8998,0.0,0.0,-2.039,-2.0384,-2.0415,-2.0469,-2.0389,-2.0302,-2.0302,-2.0275,-2.0286,-2.027,-2.026,-2.0188,-1.9973,-1.9886,-1.9824,-1.9736,-1.9679,-1.9662,-1.9726,-1.974,-1.9752,-1.9697,-1.9764,-1.9776,-1.9746,-1.9738,-1.9968,-2.0131,-2.0209,-2.0249,-2.0249,-2.0261,-2.0264,-2.2704,-2.272,-2.2947,-2.3263,-2.361,-2.3746,-2.3791,-2.3713,-2.38,-2.3343,-2.2583,-2.3186,-2.3441,-2.3422,-2.3094,-2.2961,-2.2995,-2.1967,-2.1516,-2.1545,-2.082,-2.0489,-2.0458,-1.9914,-2.0137,-2.0901,-2.0526,-2.0855,-2.1802,-2.2006,-2.2181,-2.2348,-2.1997,-2.1246,-2.0185,-2.0821,-2.0904,-2.0386,-2.0144,-1.9687,-1.9011,-1.8736,-1.8155,-1.7224,-1.7026,-1.6498,-1.5616,-1.547,-1.5132,-1.4533,-1.4313,-1.3974,-1.3409,-1.2391,0.0,0.0,0.0,0.0,0.0,0.0,0.0,0.0,0.0,-1.1396,-1.0278,0.0,-1.2151,0.0,-1.2515,-1.2844,-1.3151,-1.374,0.0,0.0,-1.6486,-1.7263,-1.8771,-1.8867,-1.9104,-1.9886,-2.0207,-2.0383,-2.0388,-2.0359,-2.0325,-2.0348,-2.036,-2.0379,-2.0379,-2.0249,-2.0146,-2.0136,-2.002,-1.9875,-1.9735,-1.9685,-1.9634,-1.9457,-1.9509,-1.9546,-1.9443,-1.9429,-1.9361,-1.9249,-1.9443,-1.9554,-1.9387,-1.9598,-1.982,-1.9926,-2.0009,-2.0057,-2.0067,-2.0147,-2.0226,-2.2519,-2.2545,-2.2856,-2.3093,-2.3282,-2.3765,-2.3976,-2.3987,-2.4122,-2.3875,-2.3338,-2.3635,-2.3735,-2.3753,-2.3723,-2.3701,-2.3665,-2.3187,-2.2953,-2.2907,-2.2233,-2.1926,-2.1899,-2.132,-2.1365,-2.195,-2.1678,-2.191,-2.2579,-2.2734,-2.304,-2.3524,-2.3563,-2.3095,-2.215,-2.2259,-2.2057,-2.1527,-2.106,-2.0437,-1.9619,-1.9494,-1.8998,-1.8089,-1.7894,-1.7337,-1.6373,-1.5929,-1.5509,-1.505,-1.4708,-1.432,-1.3904,-1.308,-1.2445,0.0,0.0,0.0,0.0,0.0,0.0,0.0,0.0,0.0,0.0,0.0,-1.3608,-1.4129,-1.4237,-1.4444,-1.483,-1.5399,-1.6141,-1.7155,-1.7665,-1.8396,-1.952,-1.9388,-1.9496,-2.0094,-2.0189,-2.0263,-2.0342,-2.0321,-2.0259,-2.0169,-2.0199,-2.0228,-2.02,-2.0078,-1.9974,-1.9955,-1.9883,-1.9716,-1.9467,-1.9434,-1.9352,-1.9221,-1.9338,-1.9418,-1.9305,-1.923,-1.9135,-1.9044,-1.9092,-1.9104,-1.8978,-1.9098,-1.9267,-1.9267,-1.9337,-1.9504,-1.9847,-1.996,-2.0022,-2.2319,-2.2338,-2.2537,-2.266,-2.2686,-2.3323,-2.3588,-2.3662,-2.3937,-2.3917,-2.3619,-2.3346,-2.3212,-2.33,-2.3575,-2.3726,-2.381,-2.4004,-2.4091,-2.4063,-2.3549,-2.3319,-2.3297,-2.2767,-2.2543,-2.265,-2.2747,-2.2859,-2.2965,-2.3132,-2.3604,-2.4326,-2.4356,-2.4354,-2.4321,-2.3658,-2.3168,-2.2881,-2.1977,-2.1159,-2.0441,-2.0145,-1.9601,-1.8793,-1.8636,-1.8102,-1.7136,-1.6393,-1.5946,-1.5837,-1.5191,-1.4765,-1.4658,-1.3978,-1.3565,0.0,-1.2783,0.0,0.0,0.0,0.0,0.0,0.0,0.0,0.0,-1.4064,-1.5036,-1.5896,-1.5854,-1.6055,-1.6677,-1.7113,-1.746,-1.7652,-1.8455,-1.9106,-1.9351,-1.9579,-1.9792,-1.9983,-1.9993,-2.0078,-2.0267,-2.0286,-2.0188,-2.0031,-1.9973,-1.9962,-1.9943,-1.9856,-1.9764,-1.9722,-1.9676,-1.9448,-1.9185,-1.9114,-1.9084,-1.9043,-1.915,-1.9243,-1.9234,-1.9126,-1.8975,-1.8905,-1.8743,-1.8632,-1.8575,-1.8585,-1.8614,-1.8643,-1.867,-1.8885,-1.9481,-1.9695,-1.9757,-2.2319,-2.231,-2.2341,-2.2388,-2.2407,-2.2747,-2.3045,-2.3291,-2.3369,-2.3337,-2.3291,-2.3245,-2.3337,-2.3588,-2.3671,-2.3914,-2.4355,-2.4389,-2.4489,-2.4638,-2.4533,-2.4482,-2.444,-2.3809,-2.3857,-2.4434,-2.4022,-2.4149,-2.4793,-2.488,-2.5005,-2.5167,-2.5176,-2.5177,-2.5168,0.0,0.0,0.0,-2.1947,-2.1376,-2.1082,-2.0384,-1.9857,-1.9585,-1.9435,0.0,-1.8164,-1.7812,-1.733,-1.6717,-1.6522,0.0,0.0,0.0,0.0,0.0,0.0,0.0,0.0,0.0,0.0,0.0,-1.5461,-1.5269,-1.5052,-1.6285,-1.6917,-1.6456,-1.6947,-1.7152,-1.6903,-1.6738,-1.7033,-1.7892,-1.7983,-1.8302,-1.9115,-1.9287,-1.9479,-1.9944,-1.9993,-2.0078,-2.0241,-2.017,-2.005,-2.0003,-1.9832,-1.9695,-1.966,-1.9653,-1.9554,-1.934,-1.9057,-1.8833,-1.8735,-1.8708,-1.878,-1.894,-1.9018,-1.9043,-1.9052,-1.9035,-1.8816,-1.8478,-1.848,-1.8508,-1.8302,-1.8441,-1.8566,-1.8576,-1.8576,-1.8707,-1.9057,-1.9253,-1.9387,-2.2319,-2.2319,-2.2319,-2.2319,0.0,-2.2445,-2.2607,-2.2764,-2.3063,-2.3117,-2.2939,-2.2939,-2.3036,-2.3245,-2.3651,-2.4004,-2.4282,-2.4598,-2.4799,-2.4894,-2.5009,-2.5037,-2.5027,-2.4696,-2.4749,-2.5123,-2.4841,-2.4889,-2.5284,-2.5332,-2.5361,-2.5361,-2.5351,-2.5361,-2.5351,-2.5332,-2.4697,-2.3465,-2.3015,-2.2307,-2.1329,-2.0861,-2.0348,-1.9738,-1.9636,0.0,0.0,0.0,0.0,0.0,0.0,0.0,0.0,0.0,0.0,-1.5707,-1.5689,-1.5729,-1.5778,-1.5858,-1.6322,-1.7292,-1.7746,-1.767,-1.7,-1.7554,-1.7891,-1.7767,-1.7852,-1.7718,-1.7338,-1.6909,-1.6868,-1.7384,-1.7594,-1.7983,-1.8555,-1.8917,-1.928,-1.97,-1.9878,-1.9973,-2.0115,-2.0161,-2.0069,-1.9933,-1.9797,-1.9595,-1.9368,-1.9317,-1.9202,-1.8954,-1.8635,-1.841,-1.8419,-1.8419,-1.843,-1.8594,-1.8706,-1.878,-1.8798,-1.8688,-1.85,-1.8249,-1.8199,-1.8146,-1.804,-1.8121,-1.8208,-1.8208,-1.8208,-1.829,-1.8547,-1.8762,-1.8937,-2.2319,-2.2319,-2.2319,-2.2319,-2.2319,-2.2319,-2.2319,-2.233,0.0,0.0,0.0,-2.2704,-2.2772,-2.293,-2.3671,-2.4044,-2.4173,-2.4747,-2.5022,-2.5077,-2.5224,-2.5303,-2.5303,-2.5303,-2.5303,-2.5303,-2.5303,-2.5303,-2.5303,-2.5303,-2.5303,-2.5303,-2.5303,-2.5264,-2.5244,-2.5224,-2.4878,-2.4245,-2.411,-2.3271,-2.1709,-2.1358,-2.0757,-1.9773,-1.9606,-1.9471,-1.9286,-1.8665,-1.83,-1.8295,-1.7652,-1.7222,-1.7119,-1.7208,-1.7224,-1.7128,-1.7248,-1.7326,-1.7376,-1.7475,-1.7905,-1.8743,-1.939,-1.9432,-1.8675,-1.8412,-1.8486,-1.8895,-1.8466,-1.8073,-1.7748,-1.715,-1.6845,-1.6975,-1.7305,-1.7684,-1.8154,-1.8615,-1.9092,-1.9504,-1.9723,-1.9847,-2.0002,-2.0116,-2.0117,-1.9856,-1.9738,-1.954,-1.9066,-1.8887,-1.878,-1.8548,-1.831,-1.8133,-1.8133,-1.8133,-1.8154,-1.8229,-1.841,-1.8528,-1.8489,-1.8351,-1.8208,-1.8125,-1.7949,-1.7847,-1.7811,-1.7833,-1.7789,-1.7789,-1.7789,-1.7869,-1.8091,-1.829,-1.848,-2.2319,-2.2319,-2.2319,-2.2319,-2.2319,-2.2319,-2.2319,-2.231,-2.2413,-2.2527,-2.2704,-2.2704,-2.3012,-2.3588,-2.3861,-2.4244,-2.4693,-2.4911,-2.5098,-2.5254,-2.5284,-2.5303,-2.5303,-2.5303,-2.5303,-2.5303,-2.5303,-2.5303,-2.5303,-2.5293,-2.5303,-2.5293,-2.5303,-2.5223,-2.5046,-2.4929,-2.4806,-2.4699,-2.4131,-2.3582,-2.3019,-2.1615,-2.0707,-2.0374,-1.9703,-1.9344,-1.9295,-1.9213,-1.9133,-1.9118,-1.8863,-1.8483,-1.7994,-1.842,-1.8483,-1.8012,-1.8574,-1.9033,-1.9188,-1.9243,-1.9354,-1.9588,-1.962,-1.9567,-1.9447,-1.9243,-1.9004,-1.8698,-1.862,-1.834,-1.7833,-1.7251,-1.7101,-1.7556,-1.7245,-1.7358,-1.8443,-1.8693,-1.9029,-1.9625,-1.9713,-1.9885,-2.002,-1.996,-1.9896,-1.9786,-1.9657,-1.9221,-1.8869,-1.845,-1.8319,-1.822,-1.8018,-1.7861,-1.7892,-1.7847,-1.7957,-1.8175,-1.8199,-1.8249,-1.8249,-1.8199,-1.8112,-1.7905,-1.7842,-1.7811,-1.7789,-1.7789,-1.7789,-1.7789,-1.7789,-1.7825,-1.7883,-1.7919,-1.8078,-2.2319,-2.2319,-2.2319,-2.2319,-2.2319,-2.2319,-2.2405,-2.257,-2.2536,-2.2573,-2.2746,-2.3061,-2.3468,-2.3868,-2.4272,-2.4601,-2.4917,-2.5077,-2.5204,-2.5293,-2.5303,-2.5303,-2.5303,-2.5303,-2.5303,-2.5303,-2.5303,-2.5303,-2.5293,-2.5184,-2.5141,-2.5131,-2.507,-2.4965,-2.4891,-2.4822,-2.4747,-2.4639,-2.4435,-2.4001,-2.3309,-2.2548,-2.186,-2.1242,-2.04,-2.0087,-2.0371,-1.9963,-1.9863,-2.0101,-1.9641,-1.9438,-1.9569,-1.9446,-1.9254,-1.8995,-1.93,-1.9561,-1.9647,-2.0266,-2.0745,-2.0952,-2.0527,-2.0243,-2.0243,-1.9667,-1.9337,-1.9425,-1.9149,-1.8952,-1.8967,-1.8386,-1.811,-1.8415,-1.8483,-1.8822,-1.946,-1.9943,-2.0291,-2.0682,-2.0518,-2.0376,-2.0424,-2.0071,-1.9978,-2.0206,-1.9911,-1.9489,-1.9245,-1.851,-1.8001,-1.7971,-1.7892,-1.7811,-1.7789,-1.7789,-1.7856,-1.7979,-1.8001,-1.7992,-1.7984,-1.7984,-1.7927,-1.7825,-1.7789,-1.7789,-1.7789,-1.7789,-1.7789,-1.7789,-1.7789,-1.7789,-1.7789,-1.7789,-1.7883,-2.2319,-2.2319,-2.2319,-2.2319,-2.231,-2.236,-2.2553,-2.2781,-2.289,-2.2954,-2.3073,-2.3552,-2.3917,-2.4209,-2.4659,-2.4894,-2.5022,-2.5204,-2.5293,-2.5303,-2.5303,-2.5283,-2.5224,-2.5243,-2.5203,-2.5191,-2.5182,-2.5191,-2.518,-2.503,-2.4949,-2.4937,-2.4814,-2.4731,-2.4721,-2.4685,-2.4584,-2.4462,-2.458,-2.4273,-2.3535,-2.334,-2.2849,-2.2097,-2.1157,-2.088,-2.1228,-2.0619,-2.0417,-2.0744,-2.0203,-2.014,-2.0703,-2.021,-1.9879,-1.9932,-1.995,-1.9941,-1.9988,-2.0791,-2.1488,-2.1793,-2.1272,-2.0942,-2.0951,-2.032,-1.9915,-2.012,-1.9805,-1.9793,-1.9992,-1.9518,-1.9203,-1.9437,-1.9737,-2.0076,-2.0582,-2.1097,-2.1507,-2.1676,-2.1349,-2.1071,-2.0989,-2.0637,-2.0534,-2.0843,-2.0454,-2.0083,-1.9932,-1.9005,-1.8367,-1.8219,-1.8056,-1.7797,-1.7789,-1.7789,-1.7833,-1.7869,-1.7839,-1.7861,-1.7883,-1.7861,-1.7803,-1.7789,-1.7704,-1.7658,-1.7689,-1.7589,-1.7534,-1.7479,-1.7479,-1.7549,-1.7658,-1.7658,-1.7726,-2.2316,-2.2319,-2.235,-2.2319,-2.2409,-2.2598,-2.2712,-2.2823,-2.3337,-2.3705,-2.3862,-2.3959,-2.4254,-2.4708,-2.4898,-2.4967,-2.5013,-2.5214,-2.5293,-2.5283,-2.5293,-2.5214,-2.5034,-2.5022,-2.4959,-2.4879,-2.4874,-2.4888,-2.4888,-2.4828,-2.4814,-2.4785,-2.4632,-2.4519,-2.4512,-2.4375,-2.4256,-2.4228,-2.4237,-2.4209,-2.409,-2.3401,-2.2978,-2.2887,-2.1806,-2.1238,-2.1351,-2.096,-2.0765,-2.077,-2.0505,-2.0483,-2.0736,-2.0523,-2.0448,-2.0674,-2.0692,-2.0683,-2.0696,-2.0801,-2.1087,-2.1311,-2.1341,-2.1389,-2.1648,-2.161,-2.1149,-2.059,-2.059,-2.0783,-2.0832,-2.012,-1.999,-2.0673,-2.045,-2.0336,-2.1193,-2.1348,-2.1507,-2.1768,-2.1909,-2.1888,-2.1845,-2.1764,-2.1721,-2.1644,-2.1183,-2.079,-2.07,-2.0088,-1.9562,-1.9444,-1.8743,-1.798,-1.7873,-1.7805,-1.7929,-1.8091,-1.7957,-1.7914,-1.7971,-1.7905,-1.7789,-1.7758,-1.7557,-1.7432,-1.7328,-1.7126,-1.6934,-1.7027,-1.7027,-1.7019,-1.7272,-1.7439,-1.7541,-2.3404,-2.3173,-2.3489,-2.3726,-2.3915,-2.3577,-2.364,-2.399,-2.3786,-2.3923,-2.4283,-2.4291,-2.4535,-2.4898,-2.4977,-2.5001,-2.5001,-2.5088,-2.5084,-2.5009,-2.5006,-2.4971,-2.4887,-2.4877,-2.4855,-2.4804,-2.4813,-2.4813,-2.4775,-2.4695,-2.4568,-2.4444,-2.4357,-2.4312,-2.4312,-2.4247,-2.4199,-2.4199,-2.4199,-2.4199,-2.4143,-2.3677,-2.3424,-2.3302,-2.2315,-2.1879,-2.2066,-2.1569,-2.1368,-2.1609,-2.1148,-2.1122,-2.1635,-2.1156,-2.0908,-2.1024,-2.1024,-2.1113,-2.1252,-2.1685,-2.2072,-2.2402,-2.1957,-2.1861,-2.2177,-2.2205,-2.2079,-2.1917,-2.1861,-2.1967,-2.2201,-2.1898,-2.1797,-2.2005,-2.2094,-2.2327,-2.2688,-2.2926,-2.3115,-2.318,-2.2848,-2.2579,-2.2588,-2.2588,-2.2491,-2.2244,-2.1843,-2.1578,-2.1336,-2.058,-2.0052,-1.9925,-1.9436,-1.8946,-1.8572,-1.8454,-1.8336,-1.8058,-1.7869,-1.7861,-1.7939,-1.7892,-1.778,-1.7805,-1.7537,-1.7354,-1.7312,-1.7027,-1.6789,-1.6815,-1.7027,-1.7183,-1.7482,-1.769,-1.7945,-2.4071,-2.3827,-2.4394,-2.4849,-2.5058,-2.4681,-2.4761,-2.5145,-2.4692,-2.4638,-2.4822,-2.483,-2.4864,-2.493,-2.4946,-2.4946,-2.4937,-2.4946,-2.4881,-2.4804,-2.4813,-2.4784,-2.4731,-2.4716,-2.4685,-2.4639,-2.4632,-2.4632,-2.4617,-2.4486,-2.4348,-2.4218,-2.4199,-2.4199,-2.4199,-2.4199,-2.4199,-2.4199,-2.4199,-2.4161,-2.4016,-2.3735,-2.3604,-2.3599,-2.2722,-2.238,-2.2737,-2.2117,-2.19,-2.2251,-2.1777,-2.1744,-2.2243,-2.1786,-2.1481,-2.1498,-2.1498,-2.1572,-2.1781,-2.2289,-2.2712,-2.2986,-2.2517,-2.2334,-2.2627,-2.2782,-2.2924,-2.3101,-2.3033,-2.3094,-2.3267,-2.3259,-2.3093,-2.2889,-2.3369,-2.3701,-2.3687,-2.3996,-2.4135,-2.4135,-2.3639,-2.3318,-2.3327,-2.3327,-2.3225,-2.3042,-2.2649,-2.2343,-2.1993,-2.1284,-2.0686,-2.0618,-2.0627,-2.0213,-1.9443,-1.9206,-1.886,-1.8461,-1.824,-1.8189,-1.8167,-1.8167,-1.8015,-1.8123,-1.7707,-1.7148,-1.6708,-1.6491,-1.6633,-1.6767,-1.7097,-1.7617,-1.8038,-1.8439,-1.8991,-2.3712,-2.3868,-2.4705,-2.5177,-2.5147,-2.5729,-2.6011,-2.609,-2.627,-2.6128,-2.5671,-2.5633,-2.5323,-2.4856,-2.4856,-2.4823,-2.4809,-2.4809,-2.4771,-2.476,-2.4766,-2.4685,-2.4528,-2.4502,-2.4418,-2.4238,-2.4191,-2.4209,-2.4209,-2.42,-2.4209,-2.4181,-2.419,-2.4199,-2.4199,-2.4199,-2.4199,-2.4199,-2.417,-2.4045,-2.3753,-2.3414,-2.3365,-2.3551,-2.3021,-2.2659,-2.2668,-2.2422,-2.2276,-2.2319,-2.2251,-2.226,-2.231,-2.2268,-2.2217,-2.2226,-2.2234,-2.2226,-2.2245,-2.2324,-2.2445,-2.266,-2.2651,-2.2785,-2.3006,-2.3285,-2.3448,-2.3632,-2.3762,-2.3844,-2.3613,-2.3446,-2.3245,-2.315,-2.3468,-2.3701,-2.3701,-2.3987,-2.417,-2.4199,-2.4098,-2.3997,-2.408,-2.4144,-2.4004,-2.383,-2.3476,-2.3035,-2.2805,-2.2409,-2.2069,-2.195,-2.1883,-2.164,-2.0331,-1.9959,-1.9736,-1.9256,-1.8914,-1.8858,-1.899,-1.9036,-1.8715,-1.8377,-1.7937,-1.7222,-1.6185,-1.5904,-1.6207,-1.6662,-1.7495,-1.8068,-1.8812,-1.9908,-2.0432,-2.5335,-2.5689,-2.6267,-2.6658,-2.6884,-2.6839,-2.6943,-2.7159,-2.6762,-2.6489,-2.6313,-2.6276,-2.5864,-2.5179,-2.5198,-2.4953,-2.4619,-2.4617,-2.4536,-2.4436,-2.4418,-2.4384,-2.4284,-2.4097,-2.397,-2.3849,-2.3653,-2.3566,-2.3597,-2.3765,-2.3867,-2.3926,-2.4094,-2.4199,-2.4199,-2.4199,-2.4199,-2.417,-2.4005,-2.3816,-2.3649,-2.3209,-2.3005,-2.3017,-2.2685,-2.2428,-2.2448,-2.2332,-2.2319,-2.2319,-2.2319,-2.2319,-2.2319,-2.2319,-2.2319,-2.2319,-2.2319,-2.2319,-2.2319,-2.2319,-2.2349,-2.2426,-2.2445,-2.2572,-2.2831,-2.2979,-2.3132,-2.3337,-2.3468,-2.3468,-2.35,-2.3649,-2.3575,-2.3126,-2.3544,-2.3887,-2.3816,-2.3987,-2.4199,-2.4199,-2.4199,-2.4199,-2.4228,-2.4199,-2.4025,-2.3619,-2.3337,-2.3054,-2.2678,-2.2415,-2.218,-2.1936,-2.1853,-2.1599,-2.0874,-2.0722,-2.0569,-1.9925,-1.9496,-1.931,-1.9319,-1.9121,-1.8797,-1.8551,-1.8149,-1.751,-1.6525,-1.6203,-1.643,-1.7038,-1.7898,-1.8844,-1.975,-2.0753,-2.1322,-2.6104,-2.6741,-2.7255,-2.7657,-2.7883,-2.7835,-2.7938,-2.8104,-2.7474,-2.7036,-2.6804,-2.6677,-2.6186,-2.5524,-2.5424,-2.523,-2.4814,-2.4543,-2.4321,-2.419,-2.4084,-2.4045,-2.3987,-2.3692,-2.3553,-2.3522,-2.3314,-2.3189,-2.3212,-2.3414,-2.3544,-2.3553,-2.3765,-2.3955,-2.3996,-2.3946,-2.3917,-2.3928,-2.3714,-2.3491,-2.3337,-2.2974,-2.2695,-2.2547,-2.2378,-2.2319,-2.2319,-2.2319,-2.2319,-2.2319,-2.2319,-2.2319,-2.2319,-2.2319,-2.2319,-2.2319,-2.2319,-2.2319,-2.2319,-2.2319,-2.2319,-2.2319,-2.2319,-2.2379,-2.2555,-2.266,-2.2822,-2.2988,-2.3165,-2.3165,-2.3174,-2.3553,-2.3544,-2.2939,-2.3423,-2.3765,-2.361,-2.3892,-2.4173,-2.4374,-2.4409,-2.441,-2.4384,-2.4321,-2.4116,-2.3651,-2.3419,-2.3014,-2.2686,-2.2251,-2.2003,-2.165,-2.1658,-2.146,-2.1073,-2.1031,-2.0709,-2.0108,-1.9936,-1.9745,-1.95,-1.9239,-1.8939,-1.8678,-1.8222,-1.7646,-1.7159,-1.674,-1.6963,-1.7464,-1.8475,-1.9463,-2.0496,-2.1562,-2.2093,-2.5783,-2.6741,-2.7577,-2.784,-2.7936,-2.8511,-2.8897,-2.8763,-2.8413,-2.7799,-2.7225,-2.6899,-2.6384,-2.5685,-2.5639,-2.5543,-2.5287,-2.469,-2.4324,-2.4202,-2.3852,-2.3701,-2.3653,-2.3346,-2.3165,-2.3159,-2.3174,-2.315,-2.3126,-2.3165,-2.3198,-2.3198,-2.3277,-2.3437,-2.3692,-2.3437,-2.3414,-2.3566,-2.3369,-2.3045,-2.2746,-2.2695,-2.2555,-2.2352,-2.231,-2.2282,-2.2262,-2.2254,-2.2237,-2.224,-2.2245,-2.2274,-2.2254,-2.2291,-2.2319,-2.2319,-2.2319,-2.2319,-2.2319,-2.2319,-2.2319,-2.2319,-2.2319,-2.231,-2.2369,-2.2545,-2.2695,-2.2738,-2.2931,-2.3021,-2.2797,-2.3014,-2.3063,-2.278,-2.3093,-2.3346,-2.3388,-2.3728,-2.4218,-2.4642,-2.4731,-2.4799,-2.4755,-2.4614,-2.4441,-2.4211,-2.3705,-2.318,-2.2931,-2.2241,-2.1702,-2.1552,-2.1391,-2.111,-2.1181,-2.1227,-2.069,-2.0251,-2.0278,-2.0197,-1.9912,-1.9649,-1.9202,-1.8877,-1.8254,-1.7653,-1.6502,-1.6226,-1.6647,-1.7277,-1.8602,-1.9793,-2.0765,-2.1718,-2.286,-2.5783,-2.675,-2.756,-2.7716,-2.7589,-2.8281,-2.8455,-2.8255,-2.8075,-2.7896,-2.7682,-2.7571,-2.7091,-2.6462,-2.6321,-2.602,-2.5508,-2.518,-2.4813,-2.4268,-2.3645,-2.3387,-2.33,-2.3021,-2.2764,-2.2607,-2.2571,-2.258,-2.2642,-2.2781,-2.2848,-2.2889,-2.3093,-2.3236,-2.3346,-2.3277,-2.3268,-2.33,-2.303,-2.2797,-2.2669,-2.2519,-2.2396,-2.231,-2.2319,-2.216,-2.1817,-2.1827,-2.1836,-2.1812,-2.1576,-2.1515,-2.1802,-2.2143,-2.2291,-2.2319,-2.2319,-2.2319,-2.2319,-2.2319,-2.2319,-2.2319,-2.2319,-2.2319,-2.2319,-2.2396,-2.2462,-2.2426,-2.2526,-2.2526,-2.248,-2.2508,-2.2553,-2.2436,-2.3072,-2.3468,-2.3541,-2.4099,-2.4582,-2.4793,-2.4861,-2.487,-2.4861,-2.4752,-2.4618,-2.4309,-2.3771,-2.3348,-2.2854,-2.2188,-2.1483,-2.1244,-2.0983,-2.0682,-2.0599,-2.0632,-2.0468,-2.0183,-2.0233,-2.0281,-2.0096,-1.9757,-1.9321,-1.8702,-1.8122,-1.7272,-1.6159,-1.5777,-1.6105,-1.6938,-1.8065,-1.9288,-2.0558,-2.1543,-2.2327,-2.5783,-2.6741,-2.7409,-2.7538,-2.7387,-2.7946,-2.8102,-2.7888,-2.7754,-2.7695,-2.7648,-2.7508,-2.7204,-2.6782,-2.6713,-2.6422,-2.597,-2.5672,-2.5275,-2.4755,-2.4191,-2.3611,-2.3095,-2.2704,-2.2661,-2.2635,-2.2437,-2.2319,-2.231,-2.2472,-2.2563,-2.259,-2.2755,-2.2924,-2.2981,-2.2933,-2.2908,-2.2956,-2.2721,-2.2563,-2.2527,-2.2388,-2.2319,-2.2319,-2.2319,-2.2074,-2.1625,-2.1462,-2.1379,-2.1335,-2.1127,-2.1199,-2.1559,-2.1899,-2.2115,-2.2282,-2.2319,-2.2319,-2.2319,-2.2319,-2.2319,-2.2319,-2.2319,-2.2319,-2.2319,-2.2319,-2.2319,-2.2319,-2.2319,-2.2319,-2.2319,-2.2319,-2.2319,-2.231,-2.2891,-2.3441,-2.3787,-2.4496,-2.4958,-2.5111,-2.5136,-2.5113,-2.5106,-2.4992,-2.4845,-2.448,-2.4045,-2.3581,-2.2948,-2.2165,-2.1568,-2.1031,-2.0674,-2.0322,-1.9882,-1.9945,-2.0131,-2.0112,-2.01,-2.0073,-1.9978,-1.9501,-1.9075,-1.8044,-1.731,-1.6414,-1.5314,-1.5022,-1.5171,-1.6305,-1.7056,-1.7871,-1.8802,-2.0059,-2.0948,-2.5783,-2.6708,-2.7138,-2.7295,-2.7295,-2.7678,-2.7803,-2.7707,-2.7409,-2.7224,-2.7138,-2.6865,-2.6624,-2.6581,-2.6455,-2.6404,-2.6455,-2.5823,-2.5451,-2.5334,-2.5013,-2.433,-2.3187,-2.259,-2.2697,-2.3122,-2.2632,-2.2336,-2.2319,-2.233,-2.2319,-2.2358,-2.2369,-2.2445,-2.2599,-2.2426,-2.2463,-2.2625,-2.2453,-2.233,-2.233,-2.231,-2.2319,-2.2319,-2.2291,-2.204,-2.1538,-2.1086,-2.0894,-2.0925,-2.0878,-2.108,-2.1455,-2.1577,-2.184,-2.2254,-2.2319,-2.2319,-2.2319,-2.2319,-2.2319,-2.2319,-2.2319,-2.2291,-2.2217,-2.2172,-2.218,-2.218,-2.22,-2.2254,-2.2282,-2.2319,-2.2347,-2.2424,-2.2814,-2.3379,-2.4303,-2.4901,-2.5242,-2.5432,-2.5488,-2.5488,-2.5464,-2.5313,-2.5185,-2.4957,-2.4477,-2.3953,-2.3298,-2.241,-2.1526,-2.0967,-2.0542,-2.0131,-1.9762,-1.9544,-1.9694,-1.9586,-1.9586,-1.9507,-1.9471,-1.9059,-1.8612,-1.7585,-1.6475,-1.553,-1.4705,-1.4286,-1.3948,-1.4323,-1.5057,-1.5896,-1.7003,-1.8252,-1.9375,-2.5783,-2.6716,-2.7147,-2.7147,-2.6939,-2.7303,-2.7286,-2.7027,-2.6906,-2.6649,-2.6376,-2.6254,-2.598,-2.5635,-2.5627,-2.559,-2.5599,-2.5432,-2.516,-2.5127,-2.5571,-2.5092,-2.3931,-2.2841,-2.2725,-2.3241,-2.275,-2.2327,-2.2319,-2.2319,-2.2319,-2.2319,-2.2319,-2.233,-2.2388,-2.2349,-2.2321,-2.2379,-2.2349,-2.2319,-2.2319,-2.2319,-2.2319,-2.2319,-2.2319,-2.1915,-2.1181,-2.0431,-2.005,-2.007,-2.0342,-2.0673,-2.1127,-2.1393,-2.1735,-2.2115,-2.2262,-2.2291,-2.2291,-2.2282,-2.2291,-2.2319,-2.2254,-2.2143,-2.1802,-2.1794,-2.1794,-2.1794,-2.1794,-2.1936,-2.2217,-2.231,-2.2489,-2.294,-2.3244,-2.3841,-2.4712,-2.5231,-2.5498,-2.5619,-2.5635,-2.5634,-2.5595,-2.5535,-2.5382,-2.5143,-2.4702,-2.4104,-2.346,-2.2436,-2.1437,-2.0919,-2.0439,-2.0015,-1.9639,-1.9354,-1.9185,-1.9036,-1.8878,-1.8674,-1.8591,-1.8274,-1.7854,-1.7286,-1.5959,-1.4926,-1.3882,-1.3175,-1.292,-1.2604,-1.3279,-1.4188,-1.5223,-1.6391,-1.7475,-2.5783,-2.6725,-2.6971,-2.6906,-2.6716,-2.6971,-2.6898,-2.6683,-2.6479,-2.6254,-2.6005,-2.5726,-2.5494,-2.5213,-2.5229,-2.5229,-2.5229,-2.5229,-2.514,-2.5062,-2.5321,-2.5404,-2.4997,-2.3951,-2.3452,-2.3706,-2.3097,-2.2623,-2.2369,-2.2319,-2.2319,-2.2319,-2.2319,-2.2319,-2.231,-2.2319,-2.2319,-2.2319,-2.2319,-2.2319,-2.2319,-2.2319,-2.2319,-2.2319,-2.2291,-2.1886,-2.1031,-2.0181,-1.9726,-1.9775,-1.9934,-2.0239,-2.067,-2.0884,-2.1283,-2.1713,-2.1759,-2.1743,-2.1789,-2.1878,-2.2011,-2.2011,-2.2003,-2.1869,-2.1637,-2.1469,-2.1337,-2.1346,-2.1499,-2.1718,-2.1978,-2.2262,-2.2704,-2.3211,-2.3658,-2.4189,-2.4952,-2.5305,-2.5552,-2.5644,-2.5674,-2.5686,-2.5665,-2.5621,-2.5493,-2.5263,-2.4901,-2.4304,-2.3659,-2.2461,-2.1458,-2.0943,-2.0143,-1.9565,-1.9207,-1.893,-1.8605,-1.8451,-1.8032,-1.784,-1.7538,-1.7335,-1.697,-1.6365,-1.5304,-1.4272,-1.317,-1.2159,-1.1563,-1.1503,-1.1885,-1.2565,-1.3646,-1.4704,-1.574,-2.5783,-2.67,-2.67,-2.6641,-2.6624,-2.6615,-2.6547,-2.6428,-2.606,-2.5852,-2.566,-2.5297,-2.502,-2.502,-2.4824,-2.4973,-2.4989,-2.4879,-2.502,-2.4973,-2.5115,-2.5364,-2.5932,-2.4835,-2.4433,-2.4433,-2.3799,-2.3071,-2.2623,-2.2429,-2.2319,-2.2319,-2.2319,-2.2319,-2.2319,-2.2319,-2.2319,-2.2319,-2.2319,-2.2319,-2.2319,-2.2319,-2.2319,-2.2291,-2.2057,-2.1653,-2.0894,-2.0147,-1.9697,-1.9697,-1.9697,-1.9937,-2.0274,-2.0339,-2.0599,-2.0991,-2.1126,-2.1095,-2.1095,-2.1415,-2.1529,-2.1529,-2.1568,-2.1491,-2.1329,-2.107,-2.0918,-2.0934,-2.1306,-2.156,-2.1874,-2.2305,-2.2795,-2.3244,-2.3665,-2.4152,-2.464,-2.5185,-2.5554,-2.5596,-2.5644,-2.5635,-2.5614,-2.5592,-2.5534,-2.5346,-2.4962,-2.4435,-2.3666,-2.2609,-2.1723,-2.1039,-2.0093,-1.9036,-1.8734,-1.8426,-1.8099,-1.778,-1.7266,-1.6886,-1.6451,-1.6194,-1.5854,-1.5236,-1.4239,-1.3273,-1.2286,-1.1375,-1.0608,-1.0356,-1.078,-1.1423,-1.2162,-1.3207,-1.4217,-2.5783,-2.67,-2.67,-2.647,-2.6175,-2.6148,-2.5916,-2.5569,-2.5449,-2.5182,-2.4784,-2.464,-2.4348,-2.3998,-2.3991,-2.3948,-2.3991,-2.4032,-2.4142,-2.4593,-2.4986,-2.5196,-2.544,-2.4788,-2.4875,-2.4835,-2.3963,-2.3334,-2.3034,-2.2558,-2.2291,-2.2282,-2.2189,-2.2291,-2.2282,-2.2203,-2.2319,-2.2319,-2.2282,-2.2265,-2.2319,-2.2319,-2.2291,-2.2217,-2.1653,-2.1047,-2.0483,-1.9965,-1.9718,-1.9697,-1.9733,-1.9904,-2.0174,-2.0254,-2.0449,-2.0772,-2.0934,-2.0967,-2.0999,-2.1023,-2.1118,-2.111,-2.111,-2.0983,-2.0601,-2.0542,-2.0449,-2.0516,-2.0894,-2.1424,-2.2023,-2.2475,-2.2754,-2.3008,-2.3325,-2.366,-2.3907,-2.4647,-2.5214,-2.542,-2.55,-2.5536,-2.5525,-2.5485,-2.5427,-2.5349,-2.4983,-2.4517,-2.3651,-2.2658,-2.1872,-2.1094,-1.9748,-1.8727,-1.8458,-1.8066,-1.751,-1.7168,-1.6659,-1.6089,-1.5652,-1.4767,-1.4392,-1.386,-1.3237,-1.2297,-1.1383,-1.086,-1.0159,-0.9906,-0.9862,-1.0758,-1.1657,-1.2272,-1.3064,-2.5289,-2.5972,-2.6008,-2.5872,-2.5644,-2.5606,-2.5449,-2.5182,-2.491,-2.4672,-2.4389,-2.4158,-2.3872,-2.3602,-2.3341,-2.3201,-2.3201,-2.3187,-2.3304,-2.3749,-2.4358,-2.4816,-2.4878,-2.4818,-2.4941,-2.485,-2.4414,-2.3771,-2.3101,-2.2683,-2.2316,-2.1953,-2.1844,-2.1773,-2.189,-2.1851,-2.1928,-2.2169,-2.2057,-2.204,-2.2257,-2.2319,-2.2143,-2.1936,-2.1346,-2.0789,-2.0314,-1.9902,-1.9762,-1.9697,-1.9726,-1.9795,-1.9974,-2.0031,-2.0158,-2.0337,-2.0371,-2.0379,-2.0413,-2.0558,-2.0682,-2.0682,-2.069,-2.055,-2.0322,-2.0158,-2.0035,-2.0166,-2.064,-2.137,-2.2163,-2.2537,-2.2678,-2.2788,-2.3079,-2.3312,-2.3416,-2.4142,-2.4807,-2.4985,-2.51,-2.5139,-2.5172,-2.5203,-2.518,-2.5041,-2.4879,-2.4389,-2.3619,-2.266,-2.1832,-2.0847,-1.9425,-1.8482,-1.8256,-1.7747,-1.6993,-1.6606,-1.6244,-1.567,-1.5129,-1.3989,-1.2804,-1.2435,-1.2134,-1.1412,-1.06,-1.016,-0.9974,-0.9898,-1.0064,-1.0716,-1.1312,-1.2016,-1.2803,-2.4894,-2.5488,-2.5269,-2.5128,-2.5105,-2.5067,-2.502,-2.4871,-2.4471,-2.4233,-2.4199,-2.3809,-2.3587,-2.3341,-2.2972,-2.2694,-2.2543,-2.2543,-2.262,-2.2741,-2.3419,-2.3746,-2.391,-2.4165,-2.4312,-2.3972,-2.4285,-2.3863,-2.3211,-2.2736,-2.2408,-2.1789,-2.1553,-2.156,-2.1507,-2.1379,-2.1495,-2.1886,-2.167,-2.1657,-2.1978,-2.2049,-2.1928,-2.1499,-2.107,-2.0632,-2.0193,-1.9882,-1.9697,-1.9697,-1.9697,-1.9697,-1.9697,-1.9697,-1.9697,-1.9726,-1.9818,-1.9861,-1.9917,-2.0062,-2.0219,-2.0204,-2.0219,-2.0227,-2.0139,-1.9945,-1.9826,-2.0007,-2.0499,-2.1362,-2.2172,-2.2463,-2.2599,-2.2634,-2.2848,-2.286,-2.2891,-2.3491,-2.3782,-2.4247,-2.4351,-2.4429,-2.4642,-2.4768,-2.4759,-2.4734,-2.4568,-2.4237,-2.3467,-2.272,-2.1914,-2.1014,-1.9675,-1.8345,-1.7973,-1.778,-1.6951,-1.6527,-1.6126,-1.5454,-1.4602,-1.278,-1.1599,-1.1473,-1.1076,-1.0296,-1.0054,-1.0029,-0.9894,-0.9913,-1.0214,-1.0762,-1.1262,-1.176,-1.2643,-2.5845,-2.6713,-2.5623,-2.4942,-2.4584,-2.4552,-2.4315,-2.3921,-2.3829,-2.3716,-2.3716,-2.3645,-2.3326,-2.2927,-2.2792,-2.2399,-2.1906,-2.1812,-2.1866,-2.1906,-2.2289,-2.2373,-2.2555,-2.3018,-2.3083,-2.3223,-2.3668,-2.3811,-2.3659,-2.3247,-2.2609,-2.2168,-2.2272,-2.2131,-2.1553,-2.1497,-2.1472,-2.1484,-2.1215,-2.1183,-2.1362,-2.1546,-2.1507,-2.111,-2.0715,-2.0296,-1.9952,-1.9762,-1.9697,-1.9697,-1.9697,-1.9697,-1.9697,-1.9697,-1.9654,-1.9697,-1.9697,-1.9697,-1.9726,-1.9754,-1.9811,-1.9818,-1.9854,-1.9854,-1.9826,-1.9782,-1.9762,-2.0023,-2.0532,-2.1354,-2.2189,-2.2324,-2.2332,-2.2315,-2.2116,-2.1915,-2.1896,-2.2042,-2.2457,-2.3025,-2.3338,-2.3673,-2.3943,-2.421,-2.4343,-2.4403,-2.4389,-2.4081,-2.3478,-2.2797,-2.2097,-2.116,-2.0097,-1.8769,-1.7646,-1.7538,-1.7146,-1.6854,-1.6373,-1.5614,-1.4284,-1.169,-1.0486,-1.0455,-0.9881,-0.8968,-0.8989,-0.9422,-0.954,-0.9287,-0.9997,-1.0754,-1.1312,-1.1814,-1.2706,-2.5272,-2.5701,-2.4758,-2.4233,-2.3998,-2.3991,-2.3844,-2.3638,-2.3595,-2.3595,-2.3595,-2.3551,-2.3275,-2.2732,-2.2307,-2.1677,-2.1002,-2.1106,-2.1203,-2.1245,-2.1513,-2.1697,-2.1649,-2.2053,-2.2146,-2.2285,-2.2651,-2.3254,-2.3623,-2.3378,-2.2828,-2.2324,-2.2312,-2.2071,-2.1678,-2.1392,-2.1499,-2.1262,-2.0965,-2.0759,-2.0958,-2.1213,-2.1015,-2.0674,-2.0416,-2.0089,-1.979,-1.9697,-1.9697,-1.9654,-1.9442,-1.9493,-1.9545,-1.9493,-1.9442,-1.9654,-1.9697,-1.9697,-1.9697,-1.9697,-1.9726,-1.9733,-1.9697,-1.9697,-1.9697,-1.9762,-1.9846,-2.0311,-2.0607,-2.1354,-2.218,-2.2069,-2.1957,-2.1853,-2.1529,-2.1197,-2.0991,-2.0895,-2.1267,-2.1842,-2.2424,-2.2864,-2.3218,-2.3515,-2.3835,-2.4015,-2.4136,-2.3828,-2.3414,-2.2922,-2.2285,-2.1137,-2.0154,-1.9059,-1.7927,-1.7578,-1.7463,-1.7175,-1.6544,-1.5828,-1.4421,-1.2042,-1.0386,-0.9585,-0.8743,-0.7617,-0.7785,-0.8103,-0.8383,-0.8813,-0.957,-1.0375,-1.1153,-1.1967,-1.2759,-2.4859,-2.4919,-2.3975,-2.3595,-2.3595,-2.3595,-2.3595,-2.3595,-2.3595,-2.3595,-2.3595,-2.3551,-2.329,-2.2596,-2.1819,-2.0897,-1.9907,-2.0403,-2.0547,-2.0633,-2.1002,-2.1273,-2.1321,-2.1472,-2.1534,-2.1561,-2.1822,-2.2221,-2.302,-2.315,-2.2882,-2.2561,-2.2116,-2.2003,-2.1965,-2.143,-2.1456,-2.1166,-2.0782,-2.0435,-2.0745,-2.0764,-2.0624,-2.0314,-2.0227,-1.9992,-1.9726,-1.9697,-1.9697,-1.961,-1.9406,-1.9273,-1.9538,-1.9206,-1.9162,-1.9603,-1.9697,-1.9697,-1.9697,-1.9697,-1.9697,-1.9697,-1.9603,-1.9566,-1.953,-1.9515,-1.978,-2.0524,-2.0829,-2.1095,-2.1683,-2.1658,-2.1521,-2.1399,-2.111,-2.0707,-2.0325,-2.0104,-2.0001,-2.0607,-2.1449,-2.2046,-2.2461,-2.2832,-2.3126,-2.3666,-2.3783,-2.3586,-2.3223,-2.3094,-2.2392,-2.1162,-2.0128,-1.92,-1.8373,-1.786,-1.77,-1.7578,-1.6792,-1.589,-1.4421,-1.266,-1.1049,-0.9318,-0.7267,-0.6342,-0.6563,-0.716,-0.7969,-0.8705,-0.9297,-1.001,-1.0897,-1.1711,-1.2453,-2.5788,-2.6122,-2.4374,-2.3595,-2.3617,-2.3617,-2.3595,-2.3595,-2.3595,-2.3595,-2.3595,-2.3551,-2.3238,-2.2498,-2.1362,-2.049,-2.0055,-1.9907,-2.0048,-2.0093,-2.0188,-2.0226,-2.0181,-2.0683,-2.0832,-2.0917,-2.1328,-2.2072,-2.2509,-2.2687,-2.2723,-2.2572,-2.277,-2.2911,-2.1971,-2.1615,-2.1349,-2.085,-2.0196,-1.9983,-2.0261,-2.012,-2.0097,-2.0124,-2.0,-1.9782,-1.9726,-1.9697,-1.9697,-1.9682,-1.961,-1.962,-1.9594,-1.9187,-1.9243,-1.953,-1.9697,-1.9697,-1.9697,-1.9697,-1.9654,-1.953,-1.9288,-1.9088,-1.9006,-1.9036,-1.9207,-1.9685,-2.012,-2.0649,-2.115,-2.1118,-2.1063,-2.0878,-2.0534,-2.0112,-1.9728,-1.9324,-1.9229,-1.9368,-2.0162,-2.1081,-2.1723,-2.2084,-2.2452,-2.301,-2.3392,-2.3198,-2.293,-2.2711,-2.226,-2.0997,-2.0185,-1.9295,-1.865,-1.8138,-1.79,-1.786,-1.696,-1.599,-1.4637,-1.3074,-1.1036,-0.9142,-0.7044,-0.5864,-0.6411,-0.7171,-0.7928,-0.8452,-0.8852,-0.9725,-1.0708,-1.1408,-1.1949,-2.6344,-2.6435,-2.486,-2.4178,-2.4126,-2.3782,-2.3595,-2.3595,-2.3595,-2.3595,-2.3595,-2.3595,-2.3084,-2.2053,-2.0769,-2.0105,-1.985,-1.9798,-1.9798,-1.9798,-1.9798,-1.9798,-1.9895,-2.0093,-2.0251,-2.0346,-2.0527,-2.0855,-2.1493,-2.2,-2.2147,-2.2214,-2.244,-2.2502,-2.2031,-2.1856,-2.1573,-2.1086,-2.037,-1.9827,-1.9882,-1.9811,-1.9775,-1.9937,-1.9782,-1.9726,-1.9697,-1.9697,-1.9697,-1.9646,-1.9486,-1.9228,-1.9111,-1.8788,-1.8574,-1.8688,-1.8772,-1.9058,-1.9581,-1.9661,-1.9493,-1.9281,-1.9006,-1.881,-1.8574,-1.8444,-1.8774,-1.9534,-1.9756,-2.0181,-2.0682,-2.0723,-2.0467,-2.0181,-1.9869,-1.9346,-1.8955,-1.8712,-1.8535,-1.8681,-1.8939,-1.9882,-2.0775,-2.1384,-2.1807,-2.2372,-2.277,-2.2838,-2.2434,-2.2006,-2.1442,-2.0678,-2.0016,-1.9471,-1.8885,-1.8373,-1.8027,-1.7787,-1.7028,-1.6033,-1.501,-1.3382,-1.1452,-0.961,-0.7784,-0.7028,-0.6789,-0.6686,-0.706,-0.7709,-0.8412,-0.9284,-1.0104,-1.0364,-1.1007,-2.6826,-2.6707,-2.5413,-2.4739,-2.4537,-2.4059,-2.3759,-2.3595,-2.3595,-2.3595,-2.3551,-2.3414,-2.2704,-2.1703,-2.0663,-2.0048,-1.9798,-1.9798,-1.9798,-1.9798,-1.9798,-1.9798,-1.9798,-1.985,-1.985,-1.9798,-1.9946,-2.0188,-2.0584,-2.0953,-2.1315,-2.1649,-2.185,-2.1997,-2.2108,-2.1746,-2.1269,-2.0848,-1.9967,-1.9574,-1.9675,-1.9733,-1.9733,-1.9733,-1.9697,-1.9697,-1.969,-1.9522,-1.9493,-1.9384,-1.8975,-1.8686,-1.8627,-1.824,-1.8066,-1.8138,-1.8138,-1.8334,-1.8893,-1.9125,-1.9088,-1.8765,-1.8274,-1.7826,-1.747,-1.7558,-1.7826,-1.8505,-1.9236,-1.9705,-2.0181,-2.0093,-1.9841,-1.9441,-1.9051,-1.8482,-1.8059,-1.7947,-1.7907,-1.802,-1.8288,-1.875,-1.9632,-2.052,-2.1132,-2.1707,-2.2079,-2.2354,-2.2006,-2.1469,-2.0815,-2.0127,-1.9404,-1.8998,-1.865,-1.8256,-1.8066,-1.7706,-1.6909,-1.6083,-1.5022,-1.3726,-1.1955,-1.0195,-0.8567,-0.7776,-0.7278,-0.6627,-0.6195,-0.7548,-0.8633,-0.8935,-0.9395,-0.9655,-1.0312,-2.75,-2.7438,-2.6078,-2.5149,-2.4604,-2.4537,-2.4126,-2.3421,-2.3501,-2.3516,-2.3414,-2.3002,-2.2438,-2.1663,-2.0959,-2.0295,-1.9798,-1.9798,-1.9798,-1.9798,-1.9798,-1.9798,-1.9798,-1.9798,-1.9798,-1.9798,-1.9798,-1.9856,-1.9907,-2.0144,-2.0799,-2.1506,-2.1369,-2.1602,-2.1618,-2.1286,-2.0771,-2.0264,-1.9461,-1.9309,-1.9457,-1.9567,-1.9566,-1.9603,-1.9646,-1.9682,-1.9661,-1.9207,-1.8952,-1.8955,-1.8532,-1.818,-1.8076,-1.7713,-1.7666,-1.77,-1.7504,-1.77,-1.8059,-1.8373,-1.8217,-1.7894,-1.7307,-1.6579,-1.617,-1.6342,-1.6579,-1.6985,-1.803,-1.8767,-1.8999,-1.8984,-1.9014,-1.8712,-1.8373,-1.7933,-1.7544,-1.7388,-1.7347,-1.7347,-1.7659,-1.8171,-1.8674,-1.9583,-2.0485,-2.1069,-2.1516,-2.1795,-2.1458,-2.095,-2.0281,-1.9568,-1.8738,-1.8288,-1.8099,-1.778,-1.7443,-1.7162,-1.6642,-1.5858,-1.5,-1.3637,-1.2844,-1.1105,-0.9581,-0.8655,-0.7862,-0.757,-0.762,-0.8302,-0.8956,-0.935,-0.9503,-0.971,-1.0364,-2.7567,-2.747,-2.6157,-2.526,-2.4644,-2.4202,-2.3409,-2.2526,-2.2455,-2.2704,-2.3009,-2.2785,-2.2346,-2.1663,-2.1064,-2.0446,-1.985,-1.9798,-1.9798,-1.9798,-1.9798,-1.9798,-1.9798,-1.9798,-1.9798,-1.9798,-1.9798,-1.9798,-1.9798,-1.9798,-1.9991,-2.0421,-2.0657,-2.0812,-2.0815,-2.0883,-2.057,-2.0158,-1.9413,-1.9054,-1.9041,-1.8845,-1.8727,-1.8727,-1.8727,-1.8727,-1.8657,-1.8535,-1.844,-1.833,-1.8152,-1.7915,-1.7638,-1.7373,-1.7236,-1.7229,-1.6957,-1.7034,-1.7271,-1.7619,-1.7807,-1.6976,-1.6348,-1.5658,-1.509,-1.5264,-1.5784,-1.6378,-1.6963,-1.7693,-1.8327,-1.8405,-1.8327,-1.7987,-1.7673,-1.7258,-1.7057,-1.6854,-1.6769,-1.6805,-1.7133,-1.7585,-1.8085,-1.866,-1.957,-2.0426,-2.0846,-2.1125,-2.0774,-2.0374,-1.9695,-1.8979,-1.8136,-1.7416,-1.7225,-1.6983,-1.6731,-1.6532,-1.6336,-1.5828,-1.5291,-1.5174,-1.4169,-1.2344,-1.0971,-1.0384,-0.9741,-0.8996,-0.8978,-0.9433,-0.9758,-1.0012,-1.0016,-0.9917,-1.0368,-2.7458,-2.7173,-2.6068,-2.5264,-2.4628,-2.3808,-2.2764,-2.1806,-2.1744,-2.1953,-2.2392,-2.2399,-2.2053,-2.1431,-2.1022,-2.0446,-1.9946,-1.9798,-1.9798,-1.9798,-1.9798,-1.9798,-1.9798,-1.9798,-1.9798,-1.9798,-1.9798,-1.9798,-1.9798,-1.9798,-1.9895,-1.9895,-1.985,-2.0194,-2.0315,-2.0328,-2.0266,-1.9963,-1.9364,-1.8709,-1.8597,-1.8374,-1.8178,-1.8178,-1.8217,-1.8217,-1.8138,-1.802,-1.786,-1.7787,-1.7626,-1.7401,-1.7201,-1.7034,-1.6831,-1.6637,-1.6528,-1.6528,-1.6723,-1.6805,-1.7011,-1.6311,-1.5419,-1.4858,-1.4555,-1.4422,-1.4852,-1.538,-1.5978,-1.6712,-1.7599,-1.7686,-1.7787,-1.7558,-1.6864,-1.6446,-1.6367,-1.6207,-1.6213,-1.6256,-1.6642,-1.7111,-1.778,-1.8366,-1.917,-2.0004,-2.0434,-2.0477,-1.9986,-1.9576,-1.909,-1.8349,-1.7552,-1.6893,-1.6305,-1.6262,-1.6219,-1.6058,-1.5928,-1.6145,-1.5829,-1.5847,-1.5632,-1.4199,-1.3068,-1.2368,-1.1736,-1.1193,-1.076,-1.0438,-1.0734,-1.1015,-1.0551,-1.0454,-1.0265,-2.7203,-2.6469,-2.582,-2.5178,-2.4425,-2.3252,-2.229,-2.1554,-2.1609,-2.1663,-2.1751,-2.1751,-2.1486,-2.0979,-2.0802,-2.0396,-1.9952,-1.9798,-1.9798,-1.9798,-1.9798,-1.9798,-1.9798,-1.9798,-1.9798,-1.9798,-1.9798,-1.9798,-1.9798,-1.9798,-1.9798,-1.9798,-1.9798,-1.9843,-1.9799,-1.9313,-1.9117,-1.9029,-1.8572,-1.8316,-1.8294,-1.8092,-1.7841,-1.7977,-1.7854,-1.7787,-1.7706,-1.747,-1.7305,-1.7264,-1.6993,-1.6759,-1.6686,-1.6644,-1.6565,-1.6528,-1.6528,-1.6528,-1.6522,-1.6051,-1.572,-1.5531,-1.4767,-1.4097,-1.3868,-1.3821,-1.3956,-1.4532,-1.5235,-1.6071,-1.6598,-1.6864,-1.705,-1.7021,-1.6373,-1.5934,-1.5852,-1.5638,-1.5644,-1.5864,-1.6275,-1.6752,-1.7429,-1.8138,-1.8923,-1.9558,-2.0047,-1.9892,-1.939,-1.8805,-1.837,-1.7846,-1.7066,-1.6476,-1.5965,-1.5752,-1.567,-1.5505,-1.579,-1.6268,-1.6522,-1.6587,-1.6237,-1.5695,-1.5148,-1.439,-1.3925,-1.3528,-1.3227,-1.2919,-1.2122,-1.1995,-1.1446,-1.116,-1.1243,-2.7152,-2.6364,-2.4972,-2.394,-2.3272,-2.2451,-2.1512,-2.0629,-2.0868,-2.1113,-2.1203,-2.1472,-2.1335,-2.0937,-2.0759,-2.0453,-1.9901,-1.9798,-1.9798,-1.9798,-1.9798,-1.9798,-1.9798,-1.9798,-1.9798,-1.9798,-1.9798,-1.9798,-1.9798,-1.9798,-1.9798,-1.9798,-1.9798,-1.9798,-1.9773,-1.9579,-1.9566,-1.9398,-1.8833,-1.8332,-1.8494,-1.7752,-1.7245,-1.7607,-1.7326,-1.7166,-1.7166,-1.6915,-1.6879,-1.6837,-1.6558,-1.6522,-1.6528,-1.6528,-1.6528,-1.6528,-1.6528,-1.6528,-1.6207,-1.5738,-1.5068,-1.4738,-1.4277,-1.36,-1.3281,-1.3195,-1.3372,-1.3732,-1.44,-1.5157,-1.5746,-1.5965,-1.6151,-1.6527,-1.6139,-1.5808,-1.5582,-1.5192,-1.5107,-1.5499,-1.5902,-1.6514,-1.7175,-1.774,-1.8489,-1.8885,-1.9266,-1.939,-1.8991,-1.8203,-1.7605,-1.7259,-1.6695,-1.6102,-1.567,-1.5626,-1.5582,-1.5543,-1.6213,-1.7046,-1.7247,-1.7276,-1.7544,-1.7362,-1.6928,-1.6456,-1.5789,-1.5354,-1.5733,-1.5476,-1.4773,-1.4188,-1.3911,-1.3331,-1.2763,-2.7034,-2.6001,-2.4609,-2.3263,-2.2204,-2.1433,-2.0572,-1.9926,-2.0251,-2.0453,-2.0597,-2.1093,-2.1002,-2.0646,-2.0653,-2.0453,-1.985,-1.9798,-1.9798,-1.9798,-1.9798,-1.9798,-1.9798,-1.9798,-1.9798,-1.9798,-1.9798,-1.9798,-1.9798,-1.9798,-1.9798,-1.9798,-1.9798,-1.9798,-1.9786,-1.9754,-1.9616,-1.9289,-1.8653,-1.8312,-1.8124,-1.7559,-1.6879,-1.7087,-1.6955,-1.6571,-1.6528,-1.6528,-1.6528,-1.6528,-1.6528,-1.6528,-1.6528,-1.6528,-1.6528,-1.6528,-1.6528,-1.6386,-1.5964,-1.5338,-1.4646,-1.3971,-1.3679,-1.3223,-1.2803,-1.2808,-1.3099,-1.3372,-1.3642,-1.4185,-1.4863,-1.5045,-1.5505,-1.5832,-1.5549,-1.5174,-1.5231,-1.4841,-1.4841,-1.5231,-1.5858,-1.6465,-1.6889,-1.7415,-1.802,-1.8256,-1.8451,-1.8542,-1.8588,-1.7827,-1.7188,-1.6854,-1.6544,-1.6164,-1.5814,-1.5626,-1.5582,-1.5582,-1.6336,-1.7259,-1.7773,-1.7758,-1.8436,-1.8919,-1.8226,-1.765,-1.7282,-1.7131,-1.733,-1.7622,-1.7579,-1.7043,-1.6544,-1.5605,-1.462,-2.6759,-2.5411,-2.4768,-2.3346,-2.1509,-2.0326,-1.9759,-1.9798,-1.9811,-1.9862,-1.9901,-2.0547,-2.0453,-2.0055,-2.0459,-2.0352,-1.9895,-1.9798,-1.9798,-1.9798,-1.9798,-1.9798,-1.9798,-1.9798,-1.9798,-1.9798,-1.9798,-1.9798,-1.9798,-1.9798,-1.9798,-1.9798,-1.9798,-1.9798,-1.9798,-1.9767,-1.961,-1.9233,-1.8801,-1.8573,-1.8417,-1.7501,-1.7274,-1.7343,-1.7098,-1.6779,-1.6659,-1.6602,-1.6534,-1.6528,-1.6528,-1.6528,-1.6528,-1.6528,-1.6528,-1.6436,-1.6436,-1.6095,-1.5543,-1.4875,-1.3794,-1.2883,-1.2604,-1.2281,-1.2286,-1.2398,-1.2749,-1.3094,-1.3372,-1.3642,-1.3956,-1.4463,-1.492,-1.4824,-1.4549,-1.4509,-1.4749,-1.4709,-1.4703,-1.5152,-1.597,-1.6503,-1.6667,-1.7111,-1.7626,-1.7787,-1.7947,-1.794,-1.7907,-1.7592,-1.6993,-1.6723,-1.646,-1.6318,-1.6089,-1.6015,-1.6058,-1.6232,-1.6336,-1.704,-1.7592,-1.8412,-1.9119,-1.944,-1.9155,-1.8781,-1.8503,-1.851,-1.8752,-1.9038,-1.9118,-1.8965,-1.8212,-1.7363,-1.6484,-2.6745,-2.5384,-2.4775,-2.3359,-2.1411,-1.9719,-1.9307,-1.9753,-1.9798,-1.9798,-1.9798,-2.0003,-2.001,-1.985,-1.9991,-1.9952,-1.9901,-1.9798,-1.9798,-1.9798,-1.9798,-1.9798,-1.9798,-1.9798,-1.9798,-1.9798,-1.9798,-1.9798,-1.9798,-1.9798,-1.9798,-1.9798,-1.9798,-1.9798,-1.9798,-1.9798,-1.966,-1.9441,-1.8943,-1.8937,-1.8813,-1.811,-1.8091,-1.7962,-1.7539,-1.7207,-1.7015,-1.6697,-1.6603,-1.6528,-1.6528,-1.6528,-1.6528,-1.6485,-1.6429,-1.5908,-1.577,-1.5588,-1.4909,-1.3971,-1.284,-1.1617,-1.1002,-1.1336,-1.1503,-1.1922,-1.2295,-1.2798,-1.3099,-1.3329,-1.3552,-1.3962,-1.4416,-1.4416,-1.4138,-1.4102,-1.4294,-1.4381,-1.4474,-1.5287,-1.6064,-1.6436,-1.6601,-1.6873,-1.7305,-1.7435,-1.7476,-1.7429,-1.7251,-1.6973,-1.6873,-1.6558,-1.638,-1.6232,-1.6727,-1.6834,-1.6834,-1.687,-1.6893,-1.7192,-1.8048,-1.8897,-1.9745,-1.9881,-1.9521,-1.96,-1.9763,-1.9636,-1.9133,-1.9811,-2.0005,-2.0005,-1.9813,-1.8797,-1.7986,-2.6759,-2.537,-2.4768,-2.3245,-2.1115,-1.9407,-1.8992,-1.9313,-1.9365,-1.9371,-1.9423,-1.9695,-1.9798,-1.9798,-1.985,-1.9798,-1.9798,-1.9798,-1.9798,-1.9798,-1.9798,-1.9798,-1.9798,-1.9798,-1.9798,-1.9798,-1.9798,-1.9798,-1.9747,-1.9798,-1.9798,-1.9798,-1.9798,-1.9798,-1.9715,-1.9531,-1.9538,-1.9495,-1.9352,-1.9296,-1.9008,-1.8695,-1.8614,-1.8492,-1.7931,-1.7708,-1.7412,-1.6966,-1.6754,-1.6547,-1.6528,-1.6528,-1.6528,-1.6485,-1.6244,-1.577,-1.5626,-1.5135,-1.4411,-1.3448,-1.1983,-1.0668,-0.972,-0.9845,-1.0414,-1.0927,-1.1868,-1.2657,-1.2866,-1.3065,-1.3238,-1.3505,-1.3868,-1.4231,-1.3962,-1.3742,-1.3831,-1.3967,-1.4601,-1.5416,-1.5964,-1.6343,-1.6644,-1.6873,-1.7076,-1.7201,-1.7153,-1.6938,-1.6708,-1.641,-1.6478,-1.6466,-1.6324,-1.6225,-1.6805,-1.7347,-1.734,-1.7251,-1.7292,-1.7699,-1.8541,-1.909,-1.9596,-1.9811,-1.9778,-1.9814,-1.9728,-1.9376,-1.9089,-1.9725,-2.01,-1.9913,-1.9805,-1.9656,-1.8899,-2.6628,-2.5204,-2.4569,-2.2751,-2.0586,-1.912,-1.8555,-1.8501,-1.8442,-1.8555,-1.8715,-1.9307,-1.9527,-1.9527,-1.9534,-1.9695,-1.9747,-1.9798,-1.9798,-1.9798,-1.9798,-1.9798,-1.9798,-1.9798,-1.9798,-1.9798,-1.9637,-1.9423,-1.9475,-1.9365,-1.9254,-1.9637,-1.9475,-1.9313,-1.9172,-1.8833,-1.8799,-1.903,-1.8933,-1.8766,-1.8851,-1.8573,-1.8264,-1.8297,-1.8197,-1.808,-1.7638,-1.7314,-1.7129,-1.6729,-1.6528,-1.6528,-1.6528,-1.6485,-1.6151,-1.5688,-1.541,-1.4727,-1.3899,-1.2981,-1.1653,-1.0289,-0.9075,-0.8978,-0.9438,-1.0195,-1.1182,-1.2344,-1.2662,-1.2671,-1.2803,-1.2779,-1.2996,-1.3077,-1.2938,-1.3092,-1.3426,-1.38,-1.4641,-1.5416,-1.5826,-1.6201,-1.6528,-1.6716,-1.6606,-1.6866,-1.6776,-1.6429,-1.6027,-1.5714,-1.5902,-1.6145,-1.6139,-1.6164,-1.6973,-1.7429,-1.7585,-1.7619,-1.7626,-1.778,-1.8299,-1.8844,-1.9374,-1.9885,-2.0353,-1.9606,-1.9295,-1.9049,-1.8941,-1.9067,-1.9339,-1.9411,-1.9439,-1.9349,-1.8965,-2.6006,-2.4566,-2.2974,-2.1351,-1.98,-1.8452,-1.7572,-1.7034,-1.7034,-1.7357,-1.7852,-1.8118,-1.8495,-1.9038,-1.9038,-1.9261,-1.9753,-1.9798,-1.9798,-1.9798,-1.9798,-1.9798,-1.9798,-1.9798,-1.9798,-1.9585,-1.9313,-1.8721,-1.8447,-1.828,-1.8172,-1.8178,-1.8286,-1.834,-1.8323,-1.797,-1.8053,-1.8382,-1.8021,-1.8157,-1.8447,-1.8632,-1.8562,-1.8624,-1.858,-1.8426,-1.8012,-1.7576,-1.7104,-1.6623,-1.6516,-1.6528,-1.6528,-1.6528,-1.5932,-1.5152,-1.4977,-1.4335,-1.3442,-1.2511,-1.1323,-0.9929,-0.8857,-0.8557,-0.8763,-0.9522,-1.0503,-1.1657,-1.2304,-1.2309,-1.2264,-1.2143,-1.2026,-1.1967,-1.1913,-1.2444,-1.2971,-1.3831,-1.4635,-1.5141,-1.5594,-1.6014,-1.6343,-1.6429,-1.6275,-1.617,-1.599,-1.5676,-1.5135,-1.4772,-1.5084,-1.5365,-1.5682,-1.6021,-1.6912,-1.7463,-1.7626,-1.782,-1.786,-1.798,-1.8131,-1.8903,-1.9725,-2.0572,-2.0911,-1.9813,-1.9072,-1.9023,-1.8924,-1.8721,-1.844,-1.8426,-1.8055,-1.7875,-1.7725,-2.5634,-2.3926,-2.2001,-2.0629,-1.9515,-1.8179,-1.7523,-1.7302,-1.6477,-1.6415,-1.7135,-1.7462,-1.8004,-1.8608,-1.8715,-1.9038,-1.9637,-1.9798,-1.9798,-1.9798,-1.9798,-1.9798,-1.9798,-1.9747,-1.9469,-1.9254,-1.8602,-1.801,-1.7523,-1.7639,-1.7688,-1.7523,-1.7523,-1.7523,-1.7506,-1.7357,-1.728,-1.7578,-1.7049,-1.7134,-1.7769,-1.797,-1.8246,-1.8331,-1.8559,-1.8487,-1.8319,-1.7831,-1.7299,-1.6754,-1.654,-1.6528,-1.6528,-1.6528,-1.5876,-1.5107,-1.4612,-1.4201,-1.3127,-1.2187,-1.124,-0.9838,-0.8433,-0.8134,-0.7576,-0.8394,-0.9936,-1.1036,-1.1475,-1.1538,-1.1737,-1.1724,-1.1421,-1.1266,-1.1362,-1.1652,-1.2487,-1.3363,-1.3982,-1.4411,-1.5,-1.5732,-1.6058,-1.638,-1.6225,-1.5896,-1.5632,-1.5039,-1.4451,-1.3899,-1.4215,-1.4538,-1.4846,-1.5872,-1.7044,-1.7463,-1.7626,-1.782,-1.7933,-1.8039,-1.8097,-1.9163,-2.007,-2.0374,-2.0237,-1.9385,-1.8831,-1.8637,-1.8296,-1.7922,-1.7612,-1.7341,-1.6928,-1.6585,-1.628,-2.5145,-2.3197,-2.1459,-2.0387,-1.9629,-1.834,-1.8015,-1.8112,-1.6466,-1.5864,-1.6368,-1.6968,-1.7737,-1.8232,-1.8453,-1.8933,-1.9307,-1.9365,-1.9527,-1.9637,-1.9753,-1.9798,-1.9747,-1.9637,-1.9032,-1.8382,-1.7737,-1.7352,-1.7018,-1.7024,-1.7024,-1.7296,-1.7296,-1.7296,-1.7113,-1.6847,-1.6546,-1.6576,-1.627,-1.5913,-1.6368,-1.7013,-1.7398,-1.7855,-1.8277,-1.8428,-1.8227,-1.799,-1.7507,-1.6999,-1.6528,-1.6528,-1.6528,-1.6485,-1.5882,-1.5197,-1.4749,-1.416,-1.3228,-1.2491,-1.1295,-0.9999,-0.859,-0.7715,-0.7315,-0.7679,-0.9172,-1.0003,-1.0438,-1.0864,-1.1065,-1.1011,-1.0708,-1.0564,-1.0661,-1.1015,-1.1998,-1.2836,-1.3226,-1.3663,-1.4451,-1.527,-1.5776,-1.6139,-1.6002,-1.5632,-1.5168,-1.4527,-1.393,-1.3358,-1.3205,-1.3533,-1.3804,-1.5099,-1.6549,-1.712,-1.719,-1.7313,-1.7382,-1.7686,-1.8108,-1.8956,-1.9432,-1.9416,-1.9082,-1.8695,-1.8211,-1.7881,-1.7547,-1.7234,-1.6841,-1.6506,-1.6207,-1.5728,-1.5033,-2.3858,-2.2007,-2.1136,-2.0392,-1.9695,-1.8815,-1.8232,-1.7688,-1.6749,-1.6093,-1.5806,-1.5806,-1.6249,-1.6928,-1.6928,-1.7413,-1.8328,-1.8661,-1.8874,-1.8927,-1.9319,-1.9585,-1.9475,-1.888,-1.8058,-1.7413,-1.6816,-1.642,-1.6301,-1.6078,-1.5853,-1.5968,-1.5886,-1.5891,-1.5838,-1.5653,-1.5565,-1.5659,-1.5647,-1.5426,-1.5469,-1.6059,-1.6596,-1.7235,-1.8024,-1.7853,-1.7733,-1.7925,-1.7408,-1.6885,-1.6528,-1.6528,-1.6528,-1.6479,-1.6014,-1.546,-1.5017,-1.4381,-1.3579,-1.2972,-1.1944,-1.0738,-0.9486,-0.8502,-0.7841,-0.6904,-0.815,-0.8871,-0.9352,-0.9993,-1.0198,-0.9942,-0.9692,-0.9603,-0.9658,-1.0564,-1.1507,-1.2052,-1.2444,-1.3077,-1.3847,-1.467,-1.5404,-1.5543,-1.546,-1.509,-1.4767,-1.4023,-1.2827,-1.2487,-1.2185,-1.2468,-1.2749,-1.3773,-1.4931,-1.6127,-1.6464,-1.6627,-1.688,-1.7233,-1.7746,-1.8565,-1.8882,-1.8718,-1.8659,-1.8418,-1.7894,-1.7371,-1.7001,-1.6705,-1.6126,-1.5746,-1.5443,-1.4949,-1.4236]}]]